<?xml version="1.0" encoding="UTF-8"?>
<gpx version="1.1" creator="Endomondo.com" xsi:schemaLocation="http://www.topografix.com/GPX/1/1 http://www.topografix.com/GPX/1/1/gpx.xsd http://www.garmin.com/xmlschemas/GpxExtensions/v3 http://www.garmin.com/xmlschemas/GpxExtensionsv3.xsd http://www.garmin.com/xmlschemas/TrackPointExtension/v1 http://www.garmin.com/xmlschemas/TrackPointExtensionv1.xsd" xmlns="http://www.topografix.com/GPX/1/1" xmlns:gpxtpx="http://www.garmin.com/xmlschemas/TrackPointExtension/v1" xmlns:gpxx="http://www.garmin.com/xmlschemas/GpxExtensions/v3" xmlns:xsi="http://www.w3.org/2001/XMLSchema-instance">
  <metadata>
    <author>
      <name>Vladimir Lipets</name>
      <email id="lipets" domain="gmail.com"/>
    </author>
    <link href="http://www.endomondo.com">
      <text>Endomondo</text>
    </link>
    <time>2012-01-26T11:54:43Z</time>
    <bounds minlat="32.771442" minlon="35.01355" maxlat="32.771322" maxlon="35.01394"/>
  </metadata>
  <trk>
    <name>Froid</name>
    <cmt>16min</cmt>
    <src>http://www.endomondo.com/</src>
    <link href="http://www.endomondo.com/workouts/gxIn2FQYhXE">
      <text>Froid</text>
    </link>
    <type>MOUNTAIN_BIKING</type>
    <trkseg>
      <trkpt lat="32.771442" lon="35.01355">
        <time>2011-11-30T19:16:55Z</time>
      </trkpt>
      <trkpt lat="32.771442" lon="35.01355">
        <ele>320.0</ele>
        <time>2011-11-30T19:17:19Z</time>
      </trkpt>
      <trkpt lat="32.771353" lon="35.01357">
        <ele>316.0</ele>
        <time>2011-11-30T19:17:22Z</time>
      </trkpt>
      <trkpt lat="32.771353" lon="35.01357">
        <time>2011-11-30T19:17:33Z</time>
      </trkpt>
    </trkseg>
    <trkseg>
      <trkpt lat="32.771353" lon="35.01357">
        <time>2011-11-30T19:17:37Z</time>
      </trkpt>
      <trkpt lat="32.771353" lon="35.01357">
        <time>2011-11-30T19:17:49Z</time>
      </trkpt>
    </trkseg>
    <trkseg>
      <trkpt lat="32.771353" lon="35.01357">
        <time>2011-11-30T19:18:24Z</time>
      </trkpt>
      <trkpt lat="32.771575" lon="35.013757">
        <ele>337.0</ele>
        <time>2011-11-30T19:18:26Z</time>
      </trkpt>
      <trkpt lat="32.771642" lon="35.013791">
        <ele>337.0</ele>
        <time>2011-11-30T19:18:28Z</time>
      </trkpt>
      <trkpt lat="32.771854" lon="35.013873">
        <ele>337.0</ele>
        <time>2011-11-30T19:18:34Z</time>
      </trkpt>
      <trkpt lat="32.772" lon="35.013859">
        <ele>337.0</ele>
        <time>2011-11-30T19:18:38Z</time>
      </trkpt>
      <trkpt lat="32.772149" lon="35.013824">
        <ele>337.0</ele>
        <time>2011-11-30T19:18:42Z</time>
      </trkpt>
      <trkpt lat="32.772305" lon="35.013775">
        <ele>337.0</ele>
        <time>2011-11-30T19:18:46Z</time>
      </trkpt>
      <trkpt lat="32.772445" lon="35.013707">
        <ele>337.0</ele>
        <time>2011-11-30T19:18:50Z</time>
      </trkpt>
      <trkpt lat="32.77256" lon="35.013566">
        <ele>337.0</ele>
        <time>2011-11-30T19:18:54Z</time>
      </trkpt>
      <trkpt lat="32.772771" lon="35.013429">
        <ele>340.0</ele>
        <time>2011-11-30T19:18:59Z</time>
      </trkpt>
      <trkpt lat="32.772982" lon="35.013342">
        <ele>343.0</ele>
        <time>2011-11-30T19:19:02Z</time>
      </trkpt>
      <trkpt lat="32.773168" lon="35.013246">
        <ele>343.0</ele>
        <time>2011-11-30T19:19:06Z</time>
      </trkpt>
      <trkpt lat="32.773224" lon="35.013199">
        <ele>343.0</ele>
        <time>2011-11-30T19:19:08Z</time>
      </trkpt>
      <trkpt lat="32.773334" lon="35.013062">
        <ele>342.0</ele>
        <time>2011-11-30T19:19:13Z</time>
      </trkpt>
      <trkpt lat="32.77348" lon="35.012974">
        <ele>341.0</ele>
        <time>2011-11-30T19:19:18Z</time>
      </trkpt>
      <trkpt lat="32.773735" lon="35.013087">
        <ele>336.0</ele>
        <time>2011-11-30T19:19:22Z</time>
      </trkpt>
      <trkpt lat="32.774033" lon="35.013242">
        <ele>333.0</ele>
        <time>2011-11-30T19:19:26Z</time>
      </trkpt>
      <trkpt lat="32.774347" lon="35.013384">
        <ele>333.0</ele>
        <time>2011-11-30T19:19:30Z</time>
      </trkpt>
      <trkpt lat="32.774639" lon="35.013566">
        <ele>332.0</ele>
        <time>2011-11-30T19:19:34Z</time>
      </trkpt>
      <trkpt lat="32.774793" lon="35.013639">
        <ele>332.0</ele>
        <time>2011-11-30T19:19:36Z</time>
      </trkpt>
      <trkpt lat="32.775278" lon="35.013676">
        <ele>331.0</ele>
        <time>2011-11-30T19:19:42Z</time>
      </trkpt>
      <trkpt lat="32.775685" lon="35.01366">
        <ele>330.0</ele>
        <time>2011-11-30T19:19:46Z</time>
      </trkpt>
      <trkpt lat="32.776035" lon="35.013649">
        <ele>328.0</ele>
        <time>2011-11-30T19:19:50Z</time>
      </trkpt>
      <trkpt lat="32.776381" lon="35.01367">
        <ele>325.0</ele>
        <time>2011-11-30T19:19:54Z</time>
      </trkpt>
      <trkpt lat="32.776665" lon="35.013707">
        <ele>322.0</ele>
        <time>2011-11-30T19:19:58Z</time>
      </trkpt>
      <trkpt lat="32.776914" lon="35.013641">
        <ele>319.0</ele>
        <time>2011-11-30T19:20:02Z</time>
      </trkpt>
      <trkpt lat="32.777179" lon="35.013509">
        <ele>316.0</ele>
        <time>2011-11-30T19:20:06Z</time>
      </trkpt>
      <trkpt lat="32.777337" lon="35.013294">
        <ele>309.0</ele>
        <time>2011-11-30T19:20:10Z</time>
      </trkpt>
      <trkpt lat="32.777363" lon="35.012948">
        <ele>306.0</ele>
        <time>2011-11-30T19:20:14Z</time>
      </trkpt>
      <trkpt lat="32.777376" lon="35.012582">
        <ele>305.0</ele>
        <time>2011-11-30T19:20:18Z</time>
      </trkpt>
      <trkpt lat="32.777377" lon="35.012306">
        <ele>303.0</ele>
        <time>2011-11-30T19:20:21Z</time>
      </trkpt>
      <trkpt lat="32.777438" lon="35.012">
        <ele>301.0</ele>
        <time>2011-11-30T19:20:25Z</time>
      </trkpt>
      <trkpt lat="32.777582" lon="35.011742">
        <ele>299.0</ele>
        <time>2011-11-30T19:20:30Z</time>
      </trkpt>
      <trkpt lat="32.777905" lon="35.011568">
        <ele>297.0</ele>
        <time>2011-11-30T19:20:34Z</time>
      </trkpt>
      <trkpt lat="32.778085" lon="35.01154">
        <ele>296.0</ele>
        <time>2011-11-30T19:20:37Z</time>
      </trkpt>
      <trkpt lat="32.778294" lon="35.011525">
        <ele>294.0</ele>
        <time>2011-11-30T19:20:41Z</time>
      </trkpt>
      <trkpt lat="32.778436" lon="35.011453">
        <ele>294.0</ele>
        <time>2011-11-30T19:20:46Z</time>
      </trkpt>
      <trkpt lat="32.778498" lon="35.011391">
        <ele>294.0</ele>
        <time>2011-11-30T19:20:49Z</time>
      </trkpt>
      <trkpt lat="32.778498" lon="35.011391">
        <time>2011-11-30T19:21:01Z</time>
      </trkpt>
    </trkseg>
    <trkseg>
      <trkpt lat="32.778498" lon="35.011391">
        <time>2011-11-30T19:21:03Z</time>
      </trkpt>
      <trkpt lat="32.778353" lon="35.010931">
        <ele>291.0</ele>
        <time>2011-11-30T19:21:09Z</time>
      </trkpt>
      <trkpt lat="32.77833" lon="35.010841">
        <ele>290.0</ele>
        <time>2011-11-30T19:21:12Z</time>
      </trkpt>
      <trkpt lat="32.778307" lon="35.010754">
        <ele>290.0</ele>
        <time>2011-11-30T19:21:15Z</time>
      </trkpt>
      <trkpt lat="32.778252" lon="35.010579">
        <ele>289.0</ele>
        <time>2011-11-30T19:21:21Z</time>
      </trkpt>
      <trkpt lat="32.778229" lon="35.010494">
        <ele>289.0</ele>
        <time>2011-11-30T19:21:24Z</time>
      </trkpt>
      <trkpt lat="32.778333" lon="35.010294">
        <ele>288.0</ele>
        <time>2011-11-30T19:21:33Z</time>
      </trkpt>
      <trkpt lat="32.778416" lon="35.010264">
        <ele>288.0</ele>
        <time>2011-11-30T19:21:36Z</time>
      </trkpt>
      <trkpt lat="32.778508" lon="35.010243">
        <ele>288.0</ele>
        <time>2011-11-30T19:21:39Z</time>
      </trkpt>
      <trkpt lat="32.778836" lon="35.010227">
        <ele>287.0</ele>
        <time>2011-11-30T19:21:49Z</time>
      </trkpt>
      <trkpt lat="32.778982" lon="35.010202">
        <ele>286.0</ele>
        <time>2011-11-30T19:21:53Z</time>
      </trkpt>
      <trkpt lat="32.779113" lon="35.010113">
        <ele>286.0</ele>
        <time>2011-11-30T19:21:57Z</time>
      </trkpt>
      <trkpt lat="32.779269" lon="35.01">
        <ele>283.0</ele>
        <time>2011-11-30T19:22:01Z</time>
      </trkpt>
      <trkpt lat="32.779455" lon="35.009919">
        <ele>282.0</ele>
        <time>2011-11-30T19:22:05Z</time>
      </trkpt>
      <trkpt lat="32.779644" lon="35.009839">
        <ele>282.0</ele>
        <time>2011-11-30T19:22:09Z</time>
      </trkpt>
      <trkpt lat="32.779838" lon="35.009843">
        <ele>282.0</ele>
        <time>2011-11-30T19:22:13Z</time>
      </trkpt>
      <trkpt lat="32.78018" lon="35.009728">
        <ele>281.0</ele>
        <time>2011-11-30T19:22:21Z</time>
      </trkpt>
      <trkpt lat="32.780367" lon="35.009634">
        <ele>280.0</ele>
        <time>2011-11-30T19:22:25Z</time>
      </trkpt>
      <trkpt lat="32.78045" lon="35.009589">
        <ele>280.0</ele>
        <time>2011-11-30T19:22:28Z</time>
      </trkpt>
      <trkpt lat="32.780506" lon="35.009536">
        <ele>280.0</ele>
        <time>2011-11-30T19:22:32Z</time>
      </trkpt>
      <trkpt lat="32.78073" lon="35.009409">
        <ele>279.0</ele>
        <time>2011-11-30T19:22:40Z</time>
      </trkpt>
      <trkpt lat="32.780907" lon="35.009305">
        <ele>278.0</ele>
        <time>2011-11-30T19:22:44Z</time>
      </trkpt>
      <trkpt lat="32.781112" lon="35.009181">
        <ele>277.0</ele>
        <time>2011-11-30T19:22:48Z</time>
      </trkpt>
      <trkpt lat="32.781257" lon="35.009092">
        <ele>277.0</ele>
        <time>2011-11-30T19:22:53Z</time>
      </trkpt>
      <trkpt lat="32.781382" lon="35.009023">
        <ele>277.0</ele>
        <time>2011-11-30T19:22:57Z</time>
      </trkpt>
      <trkpt lat="32.781569" lon="35.008962">
        <ele>274.0</ele>
        <time>2011-11-30T19:23:01Z</time>
      </trkpt>
      <trkpt lat="32.781758" lon="35.008918">
        <ele>273.0</ele>
        <time>2011-11-30T19:23:05Z</time>
      </trkpt>
      <trkpt lat="32.781915" lon="35.008891">
        <ele>272.0</ele>
        <time>2011-11-30T19:23:09Z</time>
      </trkpt>
      <trkpt lat="32.781992" lon="35.008869">
        <ele>272.0</ele>
        <time>2011-11-30T19:23:13Z</time>
      </trkpt>
      <trkpt lat="32.782028" lon="35.008799">
        <ele>272.0</ele>
        <time>2011-11-30T19:23:19Z</time>
      </trkpt>
      <trkpt lat="32.782025" lon="35.008722">
        <ele>271.0</ele>
        <time>2011-11-30T19:23:25Z</time>
      </trkpt>
      <trkpt lat="32.78204" lon="35.008629">
        <ele>270.0</ele>
        <time>2011-11-30T19:23:29Z</time>
      </trkpt>
      <trkpt lat="32.782046" lon="35.008507">
        <ele>267.0</ele>
        <time>2011-11-30T19:23:32Z</time>
      </trkpt>
      <trkpt lat="32.782047" lon="35.008307">
        <ele>265.0</ele>
        <time>2011-11-30T19:23:37Z</time>
      </trkpt>
      <trkpt lat="32.782074" lon="35.008139">
        <ele>265.0</ele>
        <time>2011-11-30T19:23:40Z</time>
      </trkpt>
      <trkpt lat="32.782068" lon="35.008052">
        <ele>265.0</ele>
        <time>2011-11-30T19:23:42Z</time>
      </trkpt>
      <trkpt lat="32.78207" lon="35.007561">
        <ele>271.0</ele>
        <time>2011-11-30T19:23:49Z</time>
      </trkpt>
      <trkpt lat="32.782097" lon="35.007317">
        <ele>273.0</ele>
        <time>2011-11-30T19:23:52Z</time>
      </trkpt>
      <trkpt lat="32.782179" lon="35.006984">
        <ele>274.0</ele>
        <time>2011-11-30T19:23:57Z</time>
      </trkpt>
      <trkpt lat="32.782243" lon="35.006819">
        <ele>273.0</ele>
        <time>2011-11-30T19:24:01Z</time>
      </trkpt>
      <trkpt lat="32.782242" lon="35.006714">
        <ele>273.0</ele>
        <time>2011-11-30T19:24:04Z</time>
      </trkpt>
      <trkpt lat="32.782242" lon="35.006714">
        <time>2011-11-30T19:24:16Z</time>
      </trkpt>
    </trkseg>
    <trkseg>
      <trkpt lat="32.782242" lon="35.006714">
        <time>2011-11-30T19:24:18Z</time>
      </trkpt>
      <trkpt lat="32.782316" lon="35.006578">
        <ele>272.0</ele>
        <time>2011-11-30T19:24:24Z</time>
      </trkpt>
      <trkpt lat="32.782415" lon="35.006414">
        <ele>272.0</ele>
        <time>2011-11-30T19:24:29Z</time>
      </trkpt>
      <trkpt lat="32.782497" lon="35.006265">
        <ele>271.0</ele>
        <time>2011-11-30T19:24:32Z</time>
      </trkpt>
      <trkpt lat="32.782588" lon="35.006137">
        <ele>271.0</ele>
        <time>2011-11-30T19:24:36Z</time>
      </trkpt>
      <trkpt lat="32.782689" lon="35.006019">
        <ele>271.0</ele>
        <time>2011-11-30T19:24:41Z</time>
      </trkpt>
      <trkpt lat="32.782747" lon="35.005939">
        <ele>271.0</ele>
        <time>2011-11-30T19:24:43Z</time>
      </trkpt>
      <trkpt lat="32.782818" lon="35.005809">
        <ele>271.0</ele>
        <time>2011-11-30T19:24:47Z</time>
      </trkpt>
      <trkpt lat="32.782904" lon="35.005671">
        <ele>271.0</ele>
        <time>2011-11-30T19:24:52Z</time>
      </trkpt>
      <trkpt lat="32.782985" lon="35.005538">
        <ele>270.0</ele>
        <time>2011-11-30T19:24:55Z</time>
      </trkpt>
      <trkpt lat="32.783047" lon="35.005392">
        <ele>270.0</ele>
        <time>2011-11-30T19:24:59Z</time>
      </trkpt>
      <trkpt lat="32.783109" lon="35.00525">
        <ele>270.0</ele>
        <time>2011-11-30T19:25:03Z</time>
      </trkpt>
      <trkpt lat="32.783181" lon="35.005122">
        <ele>270.0</ele>
        <time>2011-11-30T19:25:07Z</time>
      </trkpt>
      <trkpt lat="32.783266" lon="35.004956">
        <ele>270.0</ele>
        <time>2011-11-30T19:25:12Z</time>
      </trkpt>
      <trkpt lat="32.783337" lon="35.004826">
        <ele>270.0</ele>
        <time>2011-11-30T19:25:16Z</time>
      </trkpt>
      <trkpt lat="32.783421" lon="35.004711">
        <ele>269.0</ele>
        <time>2011-11-30T19:25:20Z</time>
      </trkpt>
      <trkpt lat="32.783501" lon="35.004581">
        <ele>269.0</ele>
        <time>2011-11-30T19:25:24Z</time>
      </trkpt>
      <trkpt lat="32.783596" lon="35.004439">
        <ele>269.0</ele>
        <time>2011-11-30T19:25:28Z</time>
      </trkpt>
      <trkpt lat="32.783694" lon="35.004307">
        <ele>269.0</ele>
        <time>2011-11-30T19:25:32Z</time>
      </trkpt>
      <trkpt lat="32.783744" lon="35.004242">
        <ele>269.0</ele>
        <time>2011-11-30T19:25:34Z</time>
      </trkpt>
      <trkpt lat="32.78389" lon="35.004052">
        <ele>269.0</ele>
        <time>2011-11-30T19:25:40Z</time>
      </trkpt>
      <trkpt lat="32.783978" lon="35.003928">
        <ele>269.0</ele>
        <time>2011-11-30T19:25:44Z</time>
      </trkpt>
      <trkpt lat="32.784022" lon="35.003871">
        <ele>269.0</ele>
        <time>2011-11-30T19:25:46Z</time>
      </trkpt>
      <trkpt lat="32.78414" lon="35.003704">
        <ele>268.0</ele>
        <time>2011-11-30T19:25:51Z</time>
      </trkpt>
      <trkpt lat="32.784221" lon="35.003459">
        <ele>268.0</ele>
        <time>2011-11-30T19:25:55Z</time>
      </trkpt>
      <trkpt lat="32.784302" lon="35.003196">
        <ele>268.0</ele>
        <time>2011-11-30T19:25:59Z</time>
      </trkpt>
      <trkpt lat="32.784452" lon="35.00287">
        <ele>268.0</ele>
        <time>2011-11-30T19:26:04Z</time>
      </trkpt>
      <trkpt lat="32.784571" lon="35.002698">
        <ele>268.0</ele>
        <time>2011-11-30T19:26:08Z</time>
      </trkpt>
      <trkpt lat="32.784706" lon="35.00255">
        <ele>266.0</ele>
        <time>2011-11-30T19:26:12Z</time>
      </trkpt>
      <trkpt lat="32.784839" lon="35.002414">
        <ele>265.0</ele>
        <time>2011-11-30T19:26:16Z</time>
      </trkpt>
      <trkpt lat="32.785087" lon="35.002288">
        <ele>265.0</ele>
        <time>2011-11-30T19:26:20Z</time>
      </trkpt>
      <trkpt lat="32.785392" lon="35.002197">
        <ele>264.0</ele>
        <time>2011-11-30T19:26:24Z</time>
      </trkpt>
      <trkpt lat="32.78567" lon="35.002109">
        <ele>265.0</ele>
        <time>2011-11-30T19:26:28Z</time>
      </trkpt>
      <trkpt lat="32.785926" lon="35.002017">
        <ele>265.0</ele>
        <time>2011-11-30T19:26:32Z</time>
      </trkpt>
      <trkpt lat="32.786171" lon="35.001929">
        <ele>265.0</ele>
        <time>2011-11-30T19:26:36Z</time>
      </trkpt>
      <trkpt lat="32.786356" lon="35.001861">
        <ele>264.0</ele>
        <time>2011-11-30T19:26:39Z</time>
      </trkpt>
      <trkpt lat="32.78666" lon="35.001724">
        <ele>264.0</ele>
        <time>2011-11-30T19:26:44Z</time>
      </trkpt>
      <trkpt lat="32.786907" lon="35.001605">
        <ele>263.0</ele>
        <time>2011-11-30T19:26:48Z</time>
      </trkpt>
      <trkpt lat="32.787114" lon="35.001418">
        <ele>262.0</ele>
        <time>2011-11-30T19:26:52Z</time>
      </trkpt>
      <trkpt lat="32.787258" lon="35.001144">
        <ele>261.0</ele>
        <time>2011-11-30T19:26:56Z</time>
      </trkpt>
      <trkpt lat="32.787418" lon="35.000876">
        <ele>261.0</ele>
        <time>2011-11-30T19:27:00Z</time>
      </trkpt>
      <trkpt lat="32.787522" lon="35.000676">
        <ele>261.0</ele>
        <time>2011-11-30T19:27:03Z</time>
      </trkpt>
      <trkpt lat="32.787626" lon="35.000416">
        <ele>260.0</ele>
        <time>2011-11-30T19:27:07Z</time>
      </trkpt>
      <trkpt lat="32.787605" lon="35.00013">
        <ele>260.0</ele>
        <time>2011-11-30T19:27:11Z</time>
      </trkpt>
      <trkpt lat="32.787557" lon="35.000007">
        <ele>260.0</ele>
        <time>2011-11-30T19:27:14Z</time>
      </trkpt>
      <trkpt lat="32.787435" lon="34.999842">
        <ele>260.0</ele>
        <time>2011-11-30T19:27:17Z</time>
      </trkpt>
      <trkpt lat="32.787371" lon="34.999689">
        <ele>259.0</ele>
        <time>2011-11-30T19:27:24Z</time>
      </trkpt>
      <trkpt lat="32.78735" lon="34.9996">
        <ele>259.0</ele>
        <time>2011-11-30T19:27:27Z</time>
      </trkpt>
      <trkpt lat="32.787303" lon="34.999433">
        <ele>259.0</ele>
        <time>2011-11-30T19:27:32Z</time>
      </trkpt>
      <trkpt lat="32.787257" lon="34.999252">
        <ele>259.0</ele>
        <time>2011-11-30T19:27:36Z</time>
      </trkpt>
      <trkpt lat="32.787215" lon="34.999086">
        <ele>259.0</ele>
        <time>2011-11-30T19:27:40Z</time>
      </trkpt>
      <trkpt lat="32.787166" lon="34.998902">
        <ele>259.0</ele>
        <time>2011-11-30T19:27:44Z</time>
      </trkpt>
      <trkpt lat="32.787136" lon="34.998795">
        <ele>258.0</ele>
        <time>2011-11-30T19:27:47Z</time>
      </trkpt>
      <trkpt lat="32.787104" lon="34.998709">
        <ele>258.0</ele>
        <time>2011-11-30T19:27:53Z</time>
      </trkpt>
      <trkpt lat="32.787104" lon="34.998709">
        <time>2011-11-30T19:28:04Z</time>
      </trkpt>
    </trkseg>
    <trkseg>
      <trkpt lat="32.787104" lon="34.998709">
        <time>2011-11-30T19:28:17Z</time>
      </trkpt>
      <trkpt lat="32.787104" lon="34.998709">
        <time>2011-11-30T19:28:29Z</time>
      </trkpt>
    </trkseg>
    <trkseg>
      <trkpt lat="32.787104" lon="34.998709">
        <time>2011-11-30T19:28:34Z</time>
      </trkpt>
      <trkpt lat="32.787029" lon="34.998329">
        <ele>256.0</ele>
        <time>2011-11-30T19:28:40Z</time>
      </trkpt>
      <trkpt lat="32.787014" lon="34.99823">
        <ele>256.0</ele>
        <time>2011-11-30T19:28:43Z</time>
      </trkpt>
      <trkpt lat="32.787" lon="34.998145">
        <ele>255.0</ele>
        <time>2011-11-30T19:28:46Z</time>
      </trkpt>
      <trkpt lat="32.787024" lon="34.998075">
        <ele>255.0</ele>
        <time>2011-11-30T19:28:56Z</time>
      </trkpt>
      <trkpt lat="32.787052" lon="34.998252">
        <ele>253.0</ele>
        <time>2011-11-30T19:29:04Z</time>
      </trkpt>
      <trkpt lat="32.787054" lon="34.998586">
        <ele>251.0</ele>
        <time>2011-11-30T19:29:07Z</time>
      </trkpt>
      <trkpt lat="32.787112" lon="34.998911">
        <ele>244.0</ele>
        <time>2011-11-30T19:29:13Z</time>
      </trkpt>
      <trkpt lat="32.787151" lon="34.998984">
        <ele>244.0</ele>
        <time>2011-11-30T19:29:17Z</time>
      </trkpt>
      <trkpt lat="32.787151" lon="34.998984">
        <time>2011-11-30T19:29:29Z</time>
      </trkpt>
    </trkseg>
    <trkseg>
      <trkpt lat="32.787151" lon="34.998984">
        <time>2011-11-30T19:29:57Z</time>
      </trkpt>
      <trkpt lat="32.78738" lon="34.999231">
        <ele>237.0</ele>
        <time>2011-11-30T19:30:01Z</time>
      </trkpt>
      <trkpt lat="32.787496" lon="34.999397">
        <ele>236.0</ele>
        <time>2011-11-30T19:30:05Z</time>
      </trkpt>
      <trkpt lat="32.787625" lon="34.999554">
        <ele>237.0</ele>
        <time>2011-11-30T19:30:09Z</time>
      </trkpt>
      <trkpt lat="32.787723" lon="34.999825">
        <ele>237.0</ele>
        <time>2011-11-30T19:30:13Z</time>
      </trkpt>
      <trkpt lat="32.787784" lon="35.000163">
        <ele>236.0</ele>
        <time>2011-11-30T19:30:17Z</time>
      </trkpt>
      <trkpt lat="32.787814" lon="35.000483">
        <ele>234.0</ele>
        <time>2011-11-30T19:30:21Z</time>
      </trkpt>
      <trkpt lat="32.787868" lon="35.000802">
        <ele>229.0</ele>
        <time>2011-11-30T19:30:25Z</time>
      </trkpt>
      <trkpt lat="32.787927" lon="35.001132">
        <ele>227.0</ele>
        <time>2011-11-30T19:30:29Z</time>
      </trkpt>
      <trkpt lat="32.787996" lon="35.001369">
        <ele>226.0</ele>
        <time>2011-11-30T19:30:32Z</time>
      </trkpt>
      <trkpt lat="32.788048" lon="35.001575">
        <ele>224.0</ele>
        <time>2011-11-30T19:30:36Z</time>
      </trkpt>
      <trkpt lat="32.788142" lon="35.001723">
        <ele>224.0</ele>
        <time>2011-11-30T19:30:41Z</time>
      </trkpt>
      <trkpt lat="32.788207" lon="35.001877">
        <ele>223.0</ele>
        <time>2011-11-30T19:30:45Z</time>
      </trkpt>
      <trkpt lat="32.788301" lon="35.002024">
        <ele>220.0</ele>
        <time>2011-11-30T19:30:49Z</time>
      </trkpt>
      <trkpt lat="32.788434" lon="35.00221">
        <ele>218.0</ele>
        <time>2011-11-30T19:30:53Z</time>
      </trkpt>
      <trkpt lat="32.788758" lon="35.002612">
        <ele>215.0</ele>
        <time>2011-11-30T19:31:01Z</time>
      </trkpt>
      <trkpt lat="32.788902" lon="35.002702">
        <ele>209.0</ele>
        <time>2011-11-30T19:31:04Z</time>
      </trkpt>
      <trkpt lat="32.78901" lon="35.002871">
        <ele>209.0</ele>
        <time>2011-11-30T19:31:09Z</time>
      </trkpt>
      <trkpt lat="32.789168" lon="35.003018">
        <ele>208.0</ele>
        <time>2011-11-30T19:31:13Z</time>
      </trkpt>
      <trkpt lat="32.789254" lon="35.003088">
        <ele>208.0</ele>
        <time>2011-11-30T19:31:15Z</time>
      </trkpt>
      <trkpt lat="32.789771" lon="35.003589">
        <ele>210.0</ele>
        <time>2011-11-30T19:31:25Z</time>
      </trkpt>
      <trkpt lat="32.789932" lon="35.003799">
        <ele>209.0</ele>
        <time>2011-11-30T19:31:29Z</time>
      </trkpt>
      <trkpt lat="32.789961" lon="35.003869">
        <ele>208.0</ele>
        <time>2011-11-30T19:31:31Z</time>
      </trkpt>
      <trkpt lat="32.790053" lon="35.003848">
        <ele>207.0</ele>
        <time>2011-11-30T19:31:35Z</time>
      </trkpt>
      <trkpt lat="32.790053" lon="35.003848">
        <time>2011-11-30T19:31:47Z</time>
      </trkpt>
    </trkseg>
    <trkseg>
      <trkpt lat="32.790053" lon="35.003848">
        <time>2011-11-30T19:32:02Z</time>
      </trkpt>
      <trkpt lat="32.790053" lon="35.003848">
        <time>2011-11-30T19:32:14Z</time>
      </trkpt>
    </trkseg>
    <trkseg>
      <trkpt lat="32.790053" lon="35.003848">
        <time>2011-11-30T19:32:31Z</time>
      </trkpt>
      <trkpt lat="32.790396" lon="35.003886">
        <ele>200.0</ele>
        <time>2011-11-30T19:32:33Z</time>
      </trkpt>
      <trkpt lat="32.790511" lon="35.003721">
        <ele>195.0</ele>
        <time>2011-11-30T19:32:38Z</time>
      </trkpt>
      <trkpt lat="32.790823" lon="35.00327">
        <ele>189.0</ele>
        <time>2011-11-30T19:32:47Z</time>
      </trkpt>
      <trkpt lat="32.791031" lon="35.003024">
        <ele>189.0</ele>
        <time>2011-11-30T19:32:51Z</time>
      </trkpt>
      <trkpt lat="32.791262" lon="35.002751">
        <ele>188.0</ele>
        <time>2011-11-30T19:32:55Z</time>
      </trkpt>
      <trkpt lat="32.791463" lon="35.002493">
        <ele>188.0</ele>
        <time>2011-11-30T19:32:59Z</time>
      </trkpt>
      <trkpt lat="32.791639" lon="35.002298">
        <ele>187.0</ele>
        <time>2011-11-30T19:33:03Z</time>
      </trkpt>
      <trkpt lat="32.791676" lon="35.002222">
        <ele>186.0</ele>
        <time>2011-11-30T19:33:05Z</time>
      </trkpt>
      <trkpt lat="32.791723" lon="35.002148">
        <ele>186.0</ele>
        <time>2011-11-30T19:33:08Z</time>
      </trkpt>
      <trkpt lat="32.791824" lon="35.001985">
        <ele>186.0</ele>
        <time>2011-11-30T19:33:15Z</time>
      </trkpt>
      <trkpt lat="32.791866" lon="35.001911">
        <ele>185.0</ele>
        <time>2011-11-30T19:33:18Z</time>
      </trkpt>
      <trkpt lat="32.791885" lon="35.001797">
        <ele>184.0</ele>
        <time>2011-11-30T19:33:22Z</time>
      </trkpt>
      <trkpt lat="32.791914" lon="35.001557">
        <ele>182.0</ele>
        <time>2011-11-30T19:33:26Z</time>
      </trkpt>
      <trkpt lat="32.791956" lon="35.001345">
        <ele>181.0</ele>
        <time>2011-11-30T19:33:30Z</time>
      </trkpt>
      <trkpt lat="32.792022" lon="35.001155">
        <ele>181.0</ele>
        <time>2011-11-30T19:33:34Z</time>
      </trkpt>
      <trkpt lat="32.791998" lon="35.000972">
        <ele>181.0</ele>
        <time>2011-11-30T19:33:38Z</time>
      </trkpt>
      <trkpt lat="32.791928" lon="35.000825">
        <ele>181.0</ele>
        <time>2011-11-30T19:33:42Z</time>
      </trkpt>
      <trkpt lat="32.791859" lon="35.000692">
        <ele>181.0</ele>
        <time>2011-11-30T19:33:47Z</time>
      </trkpt>
      <trkpt lat="32.791805" lon="35.000608">
        <ele>181.0</ele>
        <time>2011-11-30T19:33:53Z</time>
      </trkpt>
      <trkpt lat="32.791758" lon="35.000542">
        <ele>181.0</ele>
        <time>2011-11-30T19:33:57Z</time>
      </trkpt>
      <trkpt lat="32.791703" lon="35.000461">
        <ele>180.0</ele>
        <time>2011-11-30T19:34:02Z</time>
      </trkpt>
      <trkpt lat="32.791661" lon="35.000399">
        <ele>180.0</ele>
        <time>2011-11-30T19:34:06Z</time>
      </trkpt>
      <trkpt lat="32.791576" lon="35.000263">
        <ele>180.0</ele>
        <time>2011-11-30T19:34:11Z</time>
      </trkpt>
      <trkpt lat="32.791576" lon="35.000263">
        <time>2011-11-30T19:34:23Z</time>
      </trkpt>
    </trkseg>
    <trkseg>
      <trkpt lat="32.791576" lon="35.000263">
        <time>2011-11-30T19:34:23Z</time>
      </trkpt>
      <trkpt lat="32.791425" lon="34.999959">
        <ele>180.0</ele>
        <time>2011-11-30T19:34:27Z</time>
      </trkpt>
      <trkpt lat="32.791344" lon="34.99983">
        <ele>180.0</ele>
        <time>2011-11-30T19:34:35Z</time>
      </trkpt>
      <trkpt lat="32.791268" lon="34.999677">
        <ele>180.0</ele>
        <time>2011-11-30T19:34:44Z</time>
      </trkpt>
      <trkpt lat="32.791268" lon="34.999677">
        <time>2011-11-30T19:34:56Z</time>
      </trkpt>
    </trkseg>
    <trkseg>
      <trkpt lat="32.791268" lon="34.999677">
        <time>2011-11-30T19:34:57Z</time>
      </trkpt>
      <trkpt lat="32.791135" lon="34.999393">
        <ele>180.0</ele>
        <time>2011-11-30T19:35:01Z</time>
      </trkpt>
      <trkpt lat="32.791102" lon="34.99927">
        <ele>180.0</ele>
        <time>2011-11-30T19:35:05Z</time>
      </trkpt>
      <trkpt lat="32.791102" lon="34.99927">
        <time>2011-11-30T19:35:17Z</time>
      </trkpt>
    </trkseg>
    <trkseg>
      <trkpt lat="32.791102" lon="34.99927">
        <time>2011-11-30T19:35:18Z</time>
      </trkpt>
      <trkpt lat="32.791015" lon="34.998972">
        <ele>180.0</ele>
        <time>2011-11-30T19:35:21Z</time>
      </trkpt>
      <trkpt lat="32.791001" lon="34.998897">
        <ele>180.0</ele>
        <time>2011-11-30T19:35:25Z</time>
      </trkpt>
      <trkpt lat="32.790984" lon="34.998794">
        <ele>180.0</ele>
        <time>2011-11-30T19:35:30Z</time>
      </trkpt>
      <trkpt lat="32.790971" lon="34.998709">
        <ele>180.0</ele>
        <time>2011-11-30T19:35:35Z</time>
      </trkpt>
      <trkpt lat="32.790961" lon="34.998542">
        <ele>180.0</ele>
        <time>2011-11-30T19:35:40Z</time>
      </trkpt>
      <trkpt lat="32.790985" lon="34.998252">
        <ele>180.0</ele>
        <time>2011-11-30T19:35:51Z</time>
      </trkpt>
      <trkpt lat="32.791001" lon="34.998154">
        <ele>180.0</ele>
        <time>2011-11-30T19:35:54Z</time>
      </trkpt>
      <trkpt lat="32.79102" lon="34.997958">
        <ele>180.0</ele>
        <time>2011-11-30T19:36:00Z</time>
      </trkpt>
      <trkpt lat="32.791053" lon="34.997691">
        <ele>181.0</ele>
        <time>2011-11-30T19:36:10Z</time>
      </trkpt>
      <trkpt lat="32.791069" lon="34.997486">
        <ele>181.0</ele>
        <time>2011-11-30T19:36:16Z</time>
      </trkpt>
      <trkpt lat="32.791151" lon="34.997249">
        <ele>181.0</ele>
        <time>2011-11-30T19:36:25Z</time>
      </trkpt>
      <trkpt lat="32.791231" lon="34.997094">
        <ele>181.0</ele>
        <time>2011-11-30T19:36:32Z</time>
      </trkpt>
      <trkpt lat="32.791327" lon="34.996884">
        <ele>182.0</ele>
        <time>2011-11-30T19:36:41Z</time>
      </trkpt>
      <trkpt lat="32.791447" lon="34.996686">
        <ele>182.0</ele>
        <time>2011-11-30T19:36:50Z</time>
      </trkpt>
      <trkpt lat="32.791481" lon="34.996619">
        <ele>182.0</ele>
        <time>2011-11-30T19:36:53Z</time>
      </trkpt>
      <trkpt lat="32.791518" lon="34.996536">
        <ele>182.0</ele>
        <time>2011-11-30T19:36:58Z</time>
      </trkpt>
      <trkpt lat="32.791551" lon="34.99646">
        <ele>182.0</ele>
        <time>2011-11-30T19:37:01Z</time>
      </trkpt>
      <trkpt lat="32.791595" lon="34.996392">
        <ele>182.0</ele>
        <time>2011-11-30T19:37:05Z</time>
      </trkpt>
      <trkpt lat="32.791635" lon="34.996325">
        <ele>182.0</ele>
        <time>2011-11-30T19:37:10Z</time>
      </trkpt>
      <trkpt lat="32.791678" lon="34.996257">
        <ele>183.0</ele>
        <time>2011-11-30T19:37:14Z</time>
      </trkpt>
      <trkpt lat="32.791733" lon="34.996201">
        <ele>183.0</ele>
        <time>2011-11-30T19:37:17Z</time>
      </trkpt>
      <trkpt lat="32.791733" lon="34.996201">
        <time>2011-11-30T19:37:29Z</time>
      </trkpt>
    </trkseg>
    <trkseg>
      <trkpt lat="32.791733" lon="34.996201">
        <time>2011-11-30T19:37:30Z</time>
      </trkpt>
      <trkpt lat="32.791903" lon="34.995958">
        <ele>184.0</ele>
        <time>2011-11-30T19:37:34Z</time>
      </trkpt>
      <trkpt lat="32.791943" lon="34.995887">
        <ele>184.0</ele>
        <time>2011-11-30T19:37:38Z</time>
      </trkpt>
      <trkpt lat="32.79198" lon="34.995816">
        <ele>184.0</ele>
        <time>2011-11-30T19:37:41Z</time>
      </trkpt>
      <trkpt lat="32.79198" lon="34.995816">
        <time>2011-11-30T19:37:53Z</time>
      </trkpt>
    </trkseg>
    <trkseg>
      <trkpt lat="32.79198" lon="34.995816">
        <time>2011-11-30T19:37:53Z</time>
      </trkpt>
      <trkpt lat="32.79198" lon="34.995816">
        <time>2011-11-30T19:38:05Z</time>
      </trkpt>
    </trkseg>
    <trkseg>
      <trkpt lat="32.79198" lon="34.995816">
        <time>2011-11-30T19:38:28Z</time>
      </trkpt>
      <trkpt lat="32.792236" lon="34.995356">
        <ele>187.0</ele>
        <time>2011-11-30T19:38:32Z</time>
      </trkpt>
      <trkpt lat="32.792236" lon="34.995356">
        <time>2011-11-30T19:38:44Z</time>
      </trkpt>
    </trkseg>
    <trkseg>
      <trkpt lat="32.792236" lon="34.995356">
        <time>2011-11-30T19:38:45Z</time>
      </trkpt>
      <trkpt lat="32.792236" lon="34.995356">
        <time>2011-11-30T19:38:56Z</time>
      </trkpt>
    </trkseg>
    <trkseg>
      <trkpt lat="32.792236" lon="34.995356">
        <time>2011-11-30T19:38:57Z</time>
      </trkpt>
      <trkpt lat="32.792461" lon="34.994842">
        <ele>189.0</ele>
        <time>2011-11-30T19:39:00Z</time>
      </trkpt>
      <trkpt lat="32.792494" lon="34.994765">
        <ele>189.0</ele>
        <time>2011-11-30T19:39:04Z</time>
      </trkpt>
      <trkpt lat="32.79253" lon="34.994701">
        <ele>190.0</ele>
        <time>2011-11-30T19:39:08Z</time>
      </trkpt>
      <trkpt lat="32.792575" lon="34.994626">
        <ele>190.0</ele>
        <time>2011-11-30T19:39:14Z</time>
      </trkpt>
      <trkpt lat="32.792609" lon="34.994555">
        <ele>191.0</ele>
        <time>2011-11-30T19:39:18Z</time>
      </trkpt>
      <trkpt lat="32.792644" lon="34.994481">
        <ele>192.0</ele>
        <time>2011-11-30T19:39:22Z</time>
      </trkpt>
      <trkpt lat="32.792644" lon="34.994481">
        <time>2011-11-30T19:39:33Z</time>
      </trkpt>
    </trkseg>
    <trkseg>
      <trkpt lat="32.792644" lon="34.994481">
        <time>2011-11-30T19:39:34Z</time>
      </trkpt>
      <trkpt lat="32.792798" lon="34.994207">
        <ele>195.0</ele>
        <time>2011-11-30T19:39:38Z</time>
      </trkpt>
      <trkpt lat="32.792798" lon="34.994207">
        <time>2011-11-30T19:39:49Z</time>
      </trkpt>
    </trkseg>
    <trkseg>
      <trkpt lat="32.792798" lon="34.994207">
        <time>2011-11-30T19:39:51Z</time>
      </trkpt>
      <trkpt lat="32.792976" lon="34.993848">
        <ele>198.0</ele>
        <time>2011-11-30T19:39:59Z</time>
      </trkpt>
      <trkpt lat="32.793049" lon="34.993714">
        <ele>199.0</ele>
        <time>2011-11-30T19:40:07Z</time>
      </trkpt>
      <trkpt lat="32.793049" lon="34.993714">
        <time>2011-11-30T19:40:18Z</time>
      </trkpt>
    </trkseg>
    <trkseg>
      <trkpt lat="32.793049" lon="34.993714">
        <time>2011-11-30T19:40:21Z</time>
      </trkpt>
      <trkpt lat="32.793259" lon="34.993493">
        <ele>201.0</ele>
        <time>2011-11-30T19:40:26Z</time>
      </trkpt>
      <trkpt lat="32.793319" lon="34.993452">
        <ele>202.0</ele>
        <time>2011-11-30T19:40:31Z</time>
      </trkpt>
      <trkpt lat="32.793388" lon="34.99341">
        <ele>202.0</ele>
        <time>2011-11-30T19:40:36Z</time>
      </trkpt>
      <trkpt lat="32.793462" lon="34.993375">
        <ele>203.0</ele>
        <time>2011-11-30T19:40:41Z</time>
      </trkpt>
      <trkpt lat="32.793462" lon="34.993375">
        <time>2011-11-30T19:40:52Z</time>
      </trkpt>
    </trkseg>
    <trkseg>
      <trkpt lat="32.793462" lon="34.993375">
        <time>2011-11-30T19:40:53Z</time>
      </trkpt>
      <trkpt lat="32.793714" lon="34.993239">
        <ele>206.0</ele>
        <time>2011-11-30T19:40:57Z</time>
      </trkpt>
      <trkpt lat="32.793714" lon="34.993239">
        <time>2011-11-30T19:41:08Z</time>
      </trkpt>
    </trkseg>
    <trkseg>
      <trkpt lat="32.793714" lon="34.993239">
        <time>2011-11-30T19:41:09Z</time>
      </trkpt>
      <trkpt lat="32.794001" lon="34.993273">
        <ele>209.0</ele>
        <time>2011-11-30T19:41:13Z</time>
      </trkpt>
      <trkpt lat="32.794194" lon="34.993345">
        <ele>211.0</ele>
        <time>2011-11-30T19:41:24Z</time>
      </trkpt>
      <trkpt lat="32.794194" lon="34.993345">
        <time>2011-11-30T19:41:35Z</time>
      </trkpt>
    </trkseg>
    <trkseg>
      <trkpt lat="32.794194" lon="34.993345">
        <time>2011-11-30T19:41:36Z</time>
      </trkpt>
      <trkpt lat="32.794194" lon="34.993345">
        <time>2011-11-30T19:41:47Z</time>
      </trkpt>
    </trkseg>
    <trkseg>
      <trkpt lat="32.794194" lon="34.993345">
        <time>2011-11-30T19:42:24Z</time>
      </trkpt>
      <trkpt lat="32.794467" lon="34.993115">
        <ele>213.0</ele>
        <time>2011-11-30T19:42:26Z</time>
      </trkpt>
      <trkpt lat="32.794613" lon="34.992983">
        <ele>214.0</ele>
        <time>2011-11-30T19:42:31Z</time>
      </trkpt>
      <trkpt lat="32.794683" lon="34.992918">
        <ele>214.0</ele>
        <time>2011-11-30T19:42:34Z</time>
      </trkpt>
      <trkpt lat="32.794756" lon="34.992854">
        <ele>214.0</ele>
        <time>2011-11-30T19:42:37Z</time>
      </trkpt>
      <trkpt lat="32.794878" lon="34.992739">
        <ele>215.0</ele>
        <time>2011-11-30T19:42:42Z</time>
      </trkpt>
      <trkpt lat="32.79498" lon="34.992642">
        <ele>215.0</ele>
        <time>2011-11-30T19:42:46Z</time>
      </trkpt>
      <trkpt lat="32.795081" lon="34.992546">
        <ele>215.0</ele>
        <time>2011-11-30T19:42:51Z</time>
      </trkpt>
      <trkpt lat="32.795337" lon="34.992313">
        <ele>218.0</ele>
        <time>2011-11-30T19:43:02Z</time>
      </trkpt>
      <trkpt lat="32.795398" lon="34.99225">
        <ele>218.0</ele>
        <time>2011-11-30T19:43:05Z</time>
      </trkpt>
      <trkpt lat="32.795519" lon="34.992132">
        <ele>220.0</ele>
        <time>2011-11-30T19:43:11Z</time>
      </trkpt>
      <trkpt lat="32.795575" lon="34.992084">
        <ele>221.0</ele>
        <time>2011-11-30T19:43:15Z</time>
      </trkpt>
      <trkpt lat="32.795629" lon="34.992038">
        <ele>222.0</ele>
        <time>2011-11-30T19:43:18Z</time>
      </trkpt>
      <trkpt lat="32.795747" lon="34.991912">
        <ele>225.0</ele>
        <time>2011-11-30T19:43:23Z</time>
      </trkpt>
      <trkpt lat="32.795805" lon="34.991836">
        <ele>226.0</ele>
        <time>2011-11-30T19:43:26Z</time>
      </trkpt>
      <trkpt lat="32.795921" lon="34.991534">
        <ele>231.0</ele>
        <time>2011-11-30T19:43:39Z</time>
      </trkpt>
      <trkpt lat="32.795936" lon="34.991443">
        <ele>233.0</ele>
        <time>2011-11-30T19:43:42Z</time>
      </trkpt>
      <trkpt lat="32.795953" lon="34.991346">
        <ele>234.0</ele>
        <time>2011-11-30T19:43:46Z</time>
      </trkpt>
      <trkpt lat="32.795973" lon="34.991267">
        <ele>235.0</ele>
        <time>2011-11-30T19:43:50Z</time>
      </trkpt>
      <trkpt lat="32.795998" lon="34.991198">
        <ele>236.0</ele>
        <time>2011-11-30T19:43:52Z</time>
      </trkpt>
      <trkpt lat="32.79603" lon="34.991114">
        <ele>237.0</ele>
        <time>2011-11-30T19:43:56Z</time>
      </trkpt>
      <trkpt lat="32.796051" lon="34.99103">
        <ele>238.0</ele>
        <time>2011-11-30T19:44:00Z</time>
      </trkpt>
      <trkpt lat="32.796071" lon="34.990954">
        <ele>239.0</ele>
        <time>2011-11-30T19:44:04Z</time>
      </trkpt>
      <trkpt lat="32.796097" lon="34.990869">
        <ele>240.0</ele>
        <time>2011-11-30T19:44:10Z</time>
      </trkpt>
      <trkpt lat="32.796157" lon="34.990703">
        <ele>241.0</ele>
        <time>2011-11-30T19:44:19Z</time>
      </trkpt>
      <trkpt lat="32.796185" lon="34.990626">
        <ele>242.0</ele>
        <time>2011-11-30T19:44:23Z</time>
      </trkpt>
      <trkpt lat="32.796213" lon="34.990539">
        <ele>242.0</ele>
        <time>2011-11-30T19:44:28Z</time>
      </trkpt>
      <trkpt lat="32.796238" lon="34.990461">
        <ele>243.0</ele>
        <time>2011-11-30T19:44:32Z</time>
      </trkpt>
      <trkpt lat="32.796262" lon="34.99038">
        <ele>243.0</ele>
        <time>2011-11-30T19:44:36Z</time>
      </trkpt>
      <trkpt lat="32.796321" lon="34.990213">
        <ele>244.0</ele>
        <time>2011-11-30T19:44:43Z</time>
      </trkpt>
      <trkpt lat="32.796351" lon="34.990131">
        <ele>244.0</ele>
        <time>2011-11-30T19:44:47Z</time>
      </trkpt>
      <trkpt lat="32.796373" lon="34.990048">
        <ele>245.0</ele>
        <time>2011-11-30T19:44:49Z</time>
      </trkpt>
      <trkpt lat="32.796412" lon="34.989889">
        <ele>245.0</ele>
        <time>2011-11-30T19:44:55Z</time>
      </trkpt>
      <trkpt lat="32.796439" lon="34.989819">
        <ele>245.0</ele>
        <time>2011-11-30T19:44:59Z</time>
      </trkpt>
      <trkpt lat="32.796472" lon="34.989733">
        <ele>246.0</ele>
        <time>2011-11-30T19:45:03Z</time>
      </trkpt>
      <trkpt lat="32.796501" lon="34.989643">
        <ele>246.0</ele>
        <time>2011-11-30T19:45:06Z</time>
      </trkpt>
      <trkpt lat="32.796518" lon="34.989568">
        <ele>247.0</ele>
        <time>2011-11-30T19:45:10Z</time>
      </trkpt>
      <trkpt lat="32.796509" lon="34.989489">
        <ele>247.0</ele>
        <time>2011-11-30T19:45:15Z</time>
      </trkpt>
      <trkpt lat="32.796482" lon="34.989421">
        <ele>248.0</ele>
        <time>2011-11-30T19:45:19Z</time>
      </trkpt>
      <trkpt lat="32.796449" lon="34.98935">
        <ele>248.0</ele>
        <time>2011-11-30T19:45:24Z</time>
      </trkpt>
      <trkpt lat="32.796414" lon="34.989278">
        <ele>248.0</ele>
        <time>2011-11-30T19:45:27Z</time>
      </trkpt>
      <trkpt lat="32.796345" lon="34.989117">
        <ele>248.0</ele>
        <time>2011-11-30T19:45:36Z</time>
      </trkpt>
      <trkpt lat="32.796314" lon="34.98905">
        <ele>248.0</ele>
        <time>2011-11-30T19:45:38Z</time>
      </trkpt>
      <trkpt lat="32.796277" lon="34.98897">
        <ele>249.0</ele>
        <time>2011-11-30T19:45:41Z</time>
      </trkpt>
      <trkpt lat="32.796196" lon="34.988802">
        <ele>249.0</ele>
        <time>2011-11-30T19:45:48Z</time>
      </trkpt>
      <trkpt lat="32.796163" lon="34.988714">
        <ele>249.0</ele>
        <time>2011-11-30T19:45:50Z</time>
      </trkpt>
      <trkpt lat="32.796131" lon="34.988628">
        <ele>249.0</ele>
        <time>2011-11-30T19:45:53Z</time>
      </trkpt>
      <trkpt lat="32.796048" lon="34.988394">
        <ele>250.0</ele>
        <time>2011-11-30T19:46:02Z</time>
      </trkpt>
      <trkpt lat="32.796017" lon="34.988305">
        <ele>250.0</ele>
        <time>2011-11-30T19:46:06Z</time>
      </trkpt>
      <trkpt lat="32.795995" lon="34.988212">
        <ele>251.0</ele>
        <time>2011-11-30T19:46:08Z</time>
      </trkpt>
      <trkpt lat="32.795984" lon="34.988125">
        <ele>251.0</ele>
        <time>2011-11-30T19:46:12Z</time>
      </trkpt>
      <trkpt lat="32.795978" lon="34.988045">
        <ele>251.0</ele>
        <time>2011-11-30T19:46:17Z</time>
      </trkpt>
      <trkpt lat="32.795969" lon="34.987946">
        <ele>251.0</ele>
        <time>2011-11-30T19:46:21Z</time>
      </trkpt>
      <trkpt lat="32.795972" lon="34.987868">
        <ele>252.0</ele>
        <time>2011-11-30T19:46:24Z</time>
      </trkpt>
      <trkpt lat="32.796007" lon="34.987805">
        <ele>252.0</ele>
        <time>2011-11-30T19:46:30Z</time>
      </trkpt>
      <trkpt lat="32.796072" lon="34.987757">
        <ele>252.0</ele>
        <time>2011-11-30T19:46:34Z</time>
      </trkpt>
      <trkpt lat="32.796186" lon="34.987662">
        <ele>252.0</ele>
        <time>2011-11-30T19:46:39Z</time>
      </trkpt>
      <trkpt lat="32.796256" lon="34.987598">
        <ele>253.0</ele>
        <time>2011-11-30T19:46:42Z</time>
      </trkpt>
      <trkpt lat="32.796383" lon="34.987483">
        <ele>253.0</ele>
        <time>2011-11-30T19:46:48Z</time>
      </trkpt>
      <trkpt lat="32.796484" lon="34.98738">
        <ele>253.0</ele>
        <time>2011-11-30T19:46:51Z</time>
      </trkpt>
      <trkpt lat="32.796569" lon="34.987251">
        <ele>253.0</ele>
        <time>2011-11-30T19:46:55Z</time>
      </trkpt>
      <trkpt lat="32.796615" lon="34.987186">
        <ele>253.0</ele>
        <time>2011-11-30T19:46:57Z</time>
      </trkpt>
      <trkpt lat="32.796783" lon="34.986883">
        <ele>253.0</ele>
        <time>2011-11-30T19:47:03Z</time>
      </trkpt>
      <trkpt lat="32.796889" lon="34.986657">
        <ele>254.0</ele>
        <time>2011-11-30T19:47:07Z</time>
      </trkpt>
      <trkpt lat="32.797026" lon="34.986459">
        <ele>255.0</ele>
        <time>2011-11-30T19:47:12Z</time>
      </trkpt>
      <trkpt lat="32.797087" lon="34.986434">
        <ele>255.0</ele>
        <time>2011-11-30T19:47:13Z</time>
      </trkpt>
      <trkpt lat="32.797266" lon="34.986376">
        <ele>255.0</ele>
        <time>2011-11-30T19:47:19Z</time>
      </trkpt>
      <trkpt lat="32.797437" lon="34.98641">
        <ele>255.0</ele>
        <time>2011-11-30T19:47:23Z</time>
      </trkpt>
      <trkpt lat="32.797514" lon="34.986466">
        <ele>256.0</ele>
        <time>2011-11-30T19:47:31Z</time>
      </trkpt>
      <trkpt lat="32.797704" lon="34.986642">
        <ele>257.0</ele>
        <time>2011-11-30T19:47:35Z</time>
      </trkpt>
      <trkpt lat="32.797909" lon="34.986826">
        <ele>257.0</ele>
        <time>2011-11-30T19:47:38Z</time>
      </trkpt>
      <trkpt lat="32.798151" lon="34.987072">
        <ele>257.0</ele>
        <time>2011-11-30T19:47:42Z</time>
      </trkpt>
      <trkpt lat="32.798338" lon="34.987301">
        <ele>257.0</ele>
        <time>2011-11-30T19:47:46Z</time>
      </trkpt>
      <trkpt lat="32.798469" lon="34.987466">
        <ele>257.0</ele>
        <time>2011-11-30T19:47:50Z</time>
      </trkpt>
      <trkpt lat="32.79853" lon="34.98752">
        <ele>257.0</ele>
        <time>2011-11-30T19:47:51Z</time>
      </trkpt>
      <trkpt lat="32.798679" lon="34.987716">
        <ele>257.0</ele>
        <time>2011-11-30T19:47:58Z</time>
      </trkpt>
      <trkpt lat="32.798825" lon="34.987892">
        <ele>259.0</ele>
        <time>2011-11-30T19:48:02Z</time>
      </trkpt>
      <trkpt lat="32.798948" lon="34.988062">
        <ele>259.0</ele>
        <time>2011-11-30T19:48:07Z</time>
      </trkpt>
      <trkpt lat="32.799052" lon="34.988225">
        <ele>260.0</ele>
        <time>2011-11-30T19:48:11Z</time>
      </trkpt>
      <trkpt lat="32.799181" lon="34.988454">
        <ele>260.0</ele>
        <time>2011-11-30T19:48:14Z</time>
      </trkpt>
      <trkpt lat="32.799352" lon="34.988786">
        <ele>260.0</ele>
        <time>2011-11-30T19:48:18Z</time>
      </trkpt>
      <trkpt lat="32.799518" lon="34.989137">
        <ele>259.0</ele>
        <time>2011-11-30T19:48:22Z</time>
      </trkpt>
      <trkpt lat="32.799647" lon="34.989476">
        <ele>259.0</ele>
        <time>2011-11-30T19:48:26Z</time>
      </trkpt>
      <trkpt lat="32.799704" lon="34.989731">
        <ele>259.0</ele>
        <time>2011-11-30T19:48:30Z</time>
      </trkpt>
      <trkpt lat="32.799725" lon="34.989828">
        <ele>259.0</ele>
        <time>2011-11-30T19:48:34Z</time>
      </trkpt>
      <trkpt lat="32.79979" lon="34.990002">
        <ele>259.0</ele>
        <time>2011-11-30T19:48:38Z</time>
      </trkpt>
      <trkpt lat="32.799831" lon="34.990102">
        <ele>259.0</ele>
        <time>2011-11-30T19:48:41Z</time>
      </trkpt>
      <trkpt lat="32.799958" lon="34.990168">
        <ele>258.0</ele>
        <time>2011-11-30T19:48:46Z</time>
      </trkpt>
      <trkpt lat="32.800032" lon="34.990224">
        <ele>257.0</ele>
        <time>2011-11-30T19:48:53Z</time>
      </trkpt>
      <trkpt lat="32.80002" lon="34.990322">
        <ele>256.0</ele>
        <time>2011-11-30T19:48:57Z</time>
      </trkpt>
      <trkpt lat="32.799907" lon="34.990534">
        <ele>256.0</ele>
        <time>2011-11-30T19:49:01Z</time>
      </trkpt>
      <trkpt lat="32.799806" lon="34.990822">
        <ele>255.0</ele>
        <time>2011-11-30T19:49:07Z</time>
      </trkpt>
      <trkpt lat="32.799759" lon="34.991107">
        <ele>254.0</ele>
        <time>2011-11-30T19:49:14Z</time>
      </trkpt>
      <trkpt lat="32.799758" lon="34.991419">
        <ele>254.0</ele>
        <time>2011-11-30T19:49:21Z</time>
      </trkpt>
      <trkpt lat="32.799761" lon="34.991526">
        <ele>253.0</ele>
        <time>2011-11-30T19:49:24Z</time>
      </trkpt>
      <trkpt lat="32.799775" lon="34.991735">
        <ele>253.0</ele>
        <time>2011-11-30T19:49:31Z</time>
      </trkpt>
      <trkpt lat="32.799798" lon="34.991927">
        <ele>252.0</ele>
        <time>2011-11-30T19:49:36Z</time>
      </trkpt>
      <trkpt lat="32.799822" lon="34.992213">
        <ele>252.0</ele>
        <time>2011-11-30T19:49:45Z</time>
      </trkpt>
      <trkpt lat="32.799812" lon="34.992302">
        <ele>252.0</ele>
        <time>2011-11-30T19:49:48Z</time>
      </trkpt>
      <trkpt lat="32.799802" lon="34.99247">
        <ele>251.0</ele>
        <time>2011-11-30T19:49:54Z</time>
      </trkpt>
      <trkpt lat="32.799805" lon="34.992556">
        <ele>251.0</ele>
        <time>2011-11-30T19:49:57Z</time>
      </trkpt>
      <trkpt lat="32.799814" lon="34.992638">
        <ele>251.0</ele>
        <time>2011-11-30T19:50:00Z</time>
      </trkpt>
      <trkpt lat="32.799825" lon="34.992714">
        <ele>251.0</ele>
        <time>2011-11-30T19:50:05Z</time>
      </trkpt>
      <trkpt lat="32.799836" lon="34.992789">
        <ele>251.0</ele>
        <time>2011-11-30T19:50:13Z</time>
      </trkpt>
      <trkpt lat="32.799864" lon="34.992979">
        <ele>250.0</ele>
        <time>2011-11-30T19:50:18Z</time>
      </trkpt>
      <trkpt lat="32.79989" lon="34.993138">
        <ele>250.0</ele>
        <time>2011-11-30T19:50:21Z</time>
      </trkpt>
      <trkpt lat="32.799907" lon="34.993292">
        <ele>250.0</ele>
        <time>2011-11-30T19:50:25Z</time>
      </trkpt>
      <trkpt lat="32.799911" lon="34.99345">
        <ele>250.0</ele>
        <time>2011-11-30T19:50:30Z</time>
      </trkpt>
      <trkpt lat="32.799914" lon="34.993623">
        <ele>250.0</ele>
        <time>2011-11-30T19:50:33Z</time>
      </trkpt>
      <trkpt lat="32.799935" lon="34.993886">
        <ele>249.0</ele>
        <time>2011-11-30T19:50:40Z</time>
      </trkpt>
      <trkpt lat="32.799943" lon="34.993983">
        <ele>249.0</ele>
        <time>2011-11-30T19:50:44Z</time>
      </trkpt>
      <trkpt lat="32.799942" lon="34.994071">
        <ele>249.0</ele>
        <time>2011-11-30T19:50:49Z</time>
      </trkpt>
      <trkpt lat="32.799916" lon="34.994262">
        <ele>249.0</ele>
        <time>2011-11-30T19:50:54Z</time>
      </trkpt>
      <trkpt lat="32.799917" lon="34.994464">
        <ele>249.0</ele>
        <time>2011-11-30T19:50:57Z</time>
      </trkpt>
      <trkpt lat="32.79992" lon="34.994659">
        <ele>249.0</ele>
        <time>2011-11-30T19:51:01Z</time>
      </trkpt>
      <trkpt lat="32.799917" lon="34.994829">
        <ele>249.0</ele>
        <time>2011-11-30T19:51:05Z</time>
      </trkpt>
      <trkpt lat="32.799921" lon="34.995011">
        <ele>249.0</ele>
        <time>2011-11-30T19:51:09Z</time>
      </trkpt>
      <trkpt lat="32.799939" lon="34.995179">
        <ele>249.0</ele>
        <time>2011-11-30T19:51:13Z</time>
      </trkpt>
      <trkpt lat="32.800015" lon="34.995209">
        <ele>249.0</ele>
        <time>2011-11-30T19:51:19Z</time>
      </trkpt>
      <trkpt lat="32.800171" lon="34.99516">
        <ele>249.0</ele>
        <time>2011-11-30T19:51:22Z</time>
      </trkpt>
      <trkpt lat="32.800237" lon="34.995121">
        <ele>249.0</ele>
        <time>2011-11-30T19:51:24Z</time>
      </trkpt>
      <trkpt lat="32.800352" lon="34.995008">
        <ele>248.0</ele>
        <time>2011-11-30T19:51:31Z</time>
      </trkpt>
      <trkpt lat="32.800401" lon="34.994942">
        <ele>248.0</ele>
        <time>2011-11-30T19:51:33Z</time>
      </trkpt>
      <trkpt lat="32.800507" lon="34.994788">
        <ele>248.0</ele>
        <time>2011-11-30T19:51:38Z</time>
      </trkpt>
      <trkpt lat="32.800581" lon="34.994654">
        <ele>248.0</ele>
        <time>2011-11-30T19:51:42Z</time>
      </trkpt>
      <trkpt lat="32.800612" lon="34.994587">
        <ele>248.0</ele>
        <time>2011-11-30T19:51:44Z</time>
      </trkpt>
      <trkpt lat="32.800683" lon="34.994396">
        <ele>248.0</ele>
        <time>2011-11-30T19:51:50Z</time>
      </trkpt>
      <trkpt lat="32.800713" lon="34.994297">
        <ele>248.0</ele>
        <time>2011-11-30T19:51:54Z</time>
      </trkpt>
      <trkpt lat="32.800743" lon="34.994206">
        <ele>248.0</ele>
        <time>2011-11-30T19:51:56Z</time>
      </trkpt>
      <trkpt lat="32.800798" lon="34.994014">
        <ele>248.0</ele>
        <time>2011-11-30T19:52:03Z</time>
      </trkpt>
      <trkpt lat="32.800821" lon="34.99392">
        <ele>248.0</ele>
        <time>2011-11-30T19:52:05Z</time>
      </trkpt>
      <trkpt lat="32.800849" lon="34.99383">
        <ele>248.0</ele>
        <time>2011-11-30T19:52:09Z</time>
      </trkpt>
      <trkpt lat="32.800914" lon="34.993654">
        <ele>248.0</ele>
        <time>2011-11-30T19:52:15Z</time>
      </trkpt>
      <trkpt lat="32.800945" lon="34.993562">
        <ele>248.0</ele>
        <time>2011-11-30T19:52:17Z</time>
      </trkpt>
      <trkpt lat="32.800978" lon="34.993464">
        <ele>248.0</ele>
        <time>2011-11-30T19:52:20Z</time>
      </trkpt>
      <trkpt lat="32.80105" lon="34.993265">
        <ele>248.0</ele>
        <time>2011-11-30T19:52:26Z</time>
      </trkpt>
      <trkpt lat="32.801088" lon="34.993161">
        <ele>248.0</ele>
        <time>2011-11-30T19:52:29Z</time>
      </trkpt>
      <trkpt lat="32.801148" lon="34.992992">
        <ele>248.0</ele>
        <time>2011-11-30T19:52:34Z</time>
      </trkpt>
      <trkpt lat="32.801194" lon="34.992847">
        <ele>248.0</ele>
        <time>2011-11-30T19:52:38Z</time>
      </trkpt>
      <trkpt lat="32.801252" lon="34.992696">
        <ele>248.0</ele>
        <time>2011-11-30T19:52:42Z</time>
      </trkpt>
      <trkpt lat="32.801316" lon="34.992533">
        <ele>248.0</ele>
        <time>2011-11-30T19:52:46Z</time>
      </trkpt>
      <trkpt lat="32.801381" lon="34.992374">
        <ele>248.0</ele>
        <time>2011-11-30T19:52:51Z</time>
      </trkpt>
      <trkpt lat="32.801445" lon="34.992217">
        <ele>248.0</ele>
        <time>2011-11-30T19:52:57Z</time>
      </trkpt>
      <trkpt lat="32.80147" lon="34.992137">
        <ele>248.0</ele>
        <time>2011-11-30T19:53:02Z</time>
      </trkpt>
      <trkpt lat="32.801507" lon="34.991981">
        <ele>248.0</ele>
        <time>2011-11-30T19:53:11Z</time>
      </trkpt>
      <trkpt lat="32.801528" lon="34.991901">
        <ele>248.0</ele>
        <time>2011-11-30T19:53:14Z</time>
      </trkpt>
      <trkpt lat="32.801549" lon="34.991807">
        <ele>247.0</ele>
        <time>2011-11-30T19:53:18Z</time>
      </trkpt>
      <trkpt lat="32.801568" lon="34.991735">
        <ele>247.0</ele>
        <time>2011-11-30T19:53:22Z</time>
      </trkpt>
      <trkpt lat="32.801603" lon="34.991647">
        <ele>247.0</ele>
        <time>2011-11-30T19:53:26Z</time>
      </trkpt>
      <trkpt lat="32.801637" lon="34.99158">
        <ele>247.0</ele>
        <time>2011-11-30T19:53:28Z</time>
      </trkpt>
      <trkpt lat="32.80173" lon="34.991437">
        <ele>248.0</ele>
        <time>2011-11-30T19:53:34Z</time>
      </trkpt>
      <trkpt lat="32.801788" lon="34.991362">
        <ele>248.0</ele>
        <time>2011-11-30T19:53:37Z</time>
      </trkpt>
      <trkpt lat="32.801927" lon="34.991268">
        <ele>248.0</ele>
        <time>2011-11-30T19:53:42Z</time>
      </trkpt>
      <trkpt lat="32.802063" lon="34.991248">
        <ele>248.0</ele>
        <time>2011-11-30T19:53:46Z</time>
      </trkpt>
      <trkpt lat="32.802203" lon="34.991221">
        <ele>249.0</ele>
        <time>2011-11-30T19:53:50Z</time>
      </trkpt>
      <trkpt lat="32.802327" lon="34.991134">
        <ele>249.0</ele>
        <time>2011-11-30T19:53:54Z</time>
      </trkpt>
      <trkpt lat="32.802394" lon="34.990974">
        <ele>249.0</ele>
        <time>2011-11-30T19:53:58Z</time>
      </trkpt>
      <trkpt lat="32.802387" lon="34.990808">
        <ele>250.0</ele>
        <time>2011-11-30T19:54:02Z</time>
      </trkpt>
      <trkpt lat="32.802258" lon="34.990706">
        <ele>251.0</ele>
        <time>2011-11-30T19:54:06Z</time>
      </trkpt>
      <trkpt lat="32.801995" lon="34.990658">
        <ele>254.0</ele>
        <time>2011-11-30T19:54:14Z</time>
      </trkpt>
      <trkpt lat="32.801857" lon="34.990667">
        <ele>255.0</ele>
        <time>2011-11-30T19:54:18Z</time>
      </trkpt>
      <trkpt lat="32.801792" lon="34.990623">
        <ele>256.0</ele>
        <time>2011-11-30T19:54:21Z</time>
      </trkpt>
      <trkpt lat="32.801776" lon="34.990469">
        <ele>257.0</ele>
        <time>2011-11-30T19:54:25Z</time>
      </trkpt>
      <trkpt lat="32.801836" lon="34.990116">
        <ele>265.0</ele>
        <time>2011-11-30T19:54:33Z</time>
      </trkpt>
      <trkpt lat="32.801869" lon="34.989937">
        <ele>268.0</ele>
        <time>2011-11-30T19:54:37Z</time>
      </trkpt>
      <trkpt lat="32.80194" lon="34.989671">
        <ele>272.0</ele>
        <time>2011-11-30T19:54:43Z</time>
      </trkpt>
      <trkpt lat="32.801995" lon="34.989423">
        <ele>273.0</ele>
        <time>2011-11-30T19:54:49Z</time>
      </trkpt>
      <trkpt lat="32.802015" lon="34.989318">
        <ele>273.0</ele>
        <time>2011-11-30T19:54:52Z</time>
      </trkpt>
      <trkpt lat="32.802044" lon="34.989231">
        <ele>274.0</ele>
        <time>2011-11-30T19:54:55Z</time>
      </trkpt>
      <trkpt lat="32.802137" lon="34.988991">
        <ele>275.0</ele>
        <time>2011-11-30T19:55:06Z</time>
      </trkpt>
      <trkpt lat="32.802169" lon="34.988918">
        <ele>275.0</ele>
        <time>2011-11-30T19:55:10Z</time>
      </trkpt>
      <trkpt lat="32.802169" lon="34.988918">
        <time>2011-11-30T19:55:21Z</time>
      </trkpt>
    </trkseg>
    <trkseg>
      <trkpt lat="32.802169" lon="34.988918">
        <time>2011-11-30T19:55:23Z</time>
      </trkpt>
      <trkpt lat="32.802218" lon="34.988586">
        <ele>277.0</ele>
        <time>2011-11-30T19:55:25Z</time>
      </trkpt>
      <trkpt lat="32.802233" lon="34.988394">
        <ele>278.0</ele>
        <time>2011-11-30T19:55:29Z</time>
      </trkpt>
      <trkpt lat="32.802246" lon="34.988312">
        <ele>278.0</ele>
        <time>2011-11-30T19:55:31Z</time>
      </trkpt>
      <trkpt lat="32.802331" lon="34.988013">
        <ele>279.0</ele>
        <time>2011-11-30T19:55:40Z</time>
      </trkpt>
      <trkpt lat="32.802331" lon="34.988013">
        <time>2011-11-30T19:55:52Z</time>
      </trkpt>
    </trkseg>
    <trkseg>
      <trkpt lat="32.802331" lon="34.988013">
        <time>2011-11-30T19:55:54Z</time>
      </trkpt>
      <trkpt lat="32.802429" lon="34.98787">
        <ele>282.0</ele>
        <time>2011-11-30T19:55:57Z</time>
      </trkpt>
      <trkpt lat="32.802494" lon="34.987707">
        <ele>283.0</ele>
        <time>2011-11-30T19:56:03Z</time>
      </trkpt>
      <trkpt lat="32.802492" lon="34.987619">
        <ele>284.0</ele>
        <time>2011-11-30T19:56:06Z</time>
      </trkpt>
      <trkpt lat="32.802572" lon="34.987454">
        <ele>285.0</ele>
        <time>2011-11-30T19:56:11Z</time>
      </trkpt>
      <trkpt lat="32.802646" lon="34.987285">
        <ele>286.0</ele>
        <time>2011-11-30T19:56:19Z</time>
      </trkpt>
      <trkpt lat="32.802762" lon="34.987031">
        <ele>287.0</ele>
        <time>2011-11-30T19:56:26Z</time>
      </trkpt>
      <trkpt lat="32.80279" lon="34.986954">
        <ele>288.0</ele>
        <time>2011-11-30T19:56:28Z</time>
      </trkpt>
      <trkpt lat="32.80281" lon="34.986792">
        <ele>288.0</ele>
        <time>2011-11-30T19:56:32Z</time>
      </trkpt>
      <trkpt lat="32.802879" lon="34.986545">
        <ele>291.0</ele>
        <time>2011-11-30T19:56:39Z</time>
      </trkpt>
      <trkpt lat="32.802976" lon="34.986431">
        <ele>292.0</ele>
        <time>2011-11-30T19:56:43Z</time>
      </trkpt>
      <trkpt lat="32.802976" lon="34.986431">
        <time>2011-11-30T19:56:55Z</time>
      </trkpt>
    </trkseg>
    <trkseg>
      <trkpt lat="32.802976" lon="34.986431">
        <time>2011-11-30T19:58:07Z</time>
      </trkpt>
      <trkpt lat="32.803192" lon="34.986411">
        <ele>294.0</ele>
        <time>2011-11-30T19:58:12Z</time>
      </trkpt>
      <trkpt lat="32.803238" lon="34.986489">
        <ele>294.0</ele>
        <time>2011-11-30T19:58:14Z</time>
      </trkpt>
      <trkpt lat="32.803421" lon="34.986619">
        <ele>295.0</ele>
        <time>2011-11-30T19:58:21Z</time>
      </trkpt>
      <trkpt lat="32.803668" lon="34.986835">
        <ele>296.0</ele>
        <time>2011-11-30T19:58:28Z</time>
      </trkpt>
      <trkpt lat="32.803733" lon="34.986894">
        <ele>297.0</ele>
        <time>2011-11-30T19:58:30Z</time>
      </trkpt>
      <trkpt lat="32.803733" lon="34.986894">
        <time>2011-11-30T19:58:42Z</time>
      </trkpt>
    </trkseg>
    <trkseg>
      <trkpt lat="32.803733" lon="34.986894">
        <time>2011-11-30T19:58:48Z</time>
      </trkpt>
      <trkpt lat="32.804007" lon="34.986861">
        <ele>296.999</ele>
        <time>2011-11-30T19:58:54Z</time>
      </trkpt>
      <trkpt lat="32.804083" lon="34.986791">
        <ele>296.999</ele>
        <time>2011-11-30T19:58:57Z</time>
      </trkpt>
      <trkpt lat="32.804265" lon="34.986474">
        <ele>296.999</ele>
        <time>2011-11-30T19:59:07Z</time>
      </trkpt>
      <trkpt lat="32.804286" lon="34.986359">
        <ele>296.999</ele>
        <time>2011-11-30T19:59:10Z</time>
      </trkpt>
      <trkpt lat="32.804316" lon="34.986161">
        <ele>297.0</ele>
        <time>2011-11-30T19:59:14Z</time>
      </trkpt>
      <trkpt lat="32.80432" lon="34.986082">
        <ele>297.0</ele>
        <time>2011-11-30T19:59:18Z</time>
      </trkpt>
      <trkpt lat="32.804317" lon="34.985985">
        <ele>297.0</ele>
        <time>2011-11-30T19:59:22Z</time>
      </trkpt>
      <trkpt lat="32.804307" lon="34.985882">
        <ele>297.0</ele>
        <time>2011-11-30T19:59:25Z</time>
      </trkpt>
      <trkpt lat="32.804279" lon="34.985618">
        <ele>297.0</ele>
        <time>2011-11-30T19:59:34Z</time>
      </trkpt>
      <trkpt lat="32.804312" lon="34.985394">
        <ele>298.0</ele>
        <time>2011-11-30T19:59:39Z</time>
      </trkpt>
      <trkpt lat="32.804344" lon="34.985237">
        <ele>298.0</ele>
        <time>2011-11-30T19:59:43Z</time>
      </trkpt>
      <trkpt lat="32.804381" lon="34.985074">
        <ele>298.0</ele>
        <time>2011-11-30T19:59:47Z</time>
      </trkpt>
      <trkpt lat="32.8044" lon="34.984994">
        <ele>298.0</ele>
        <time>2011-11-30T19:59:49Z</time>
      </trkpt>
      <trkpt lat="32.80444" lon="34.984933">
        <ele>298.0</ele>
        <time>2011-11-30T19:59:55Z</time>
      </trkpt>
      <trkpt lat="32.804492" lon="34.984876">
        <ele>298.0</ele>
        <time>2011-11-30T20:00:00Z</time>
      </trkpt>
      <trkpt lat="32.804536" lon="34.984822">
        <ele>298.0</ele>
        <time>2011-11-30T20:00:05Z</time>
      </trkpt>
      <trkpt lat="32.804585" lon="34.984771">
        <ele>298.999</ele>
        <time>2011-11-30T20:00:08Z</time>
      </trkpt>
      <trkpt lat="32.804585" lon="34.984771">
        <time>2011-11-30T20:00:20Z</time>
      </trkpt>
    </trkseg>
    <trkseg>
      <trkpt lat="32.804585" lon="34.984771">
        <time>2011-11-30T20:01:24Z</time>
      </trkpt>
      <trkpt lat="32.80469" lon="34.984617">
        <ele>298.999</ele>
        <time>2011-11-30T20:01:28Z</time>
      </trkpt>
      <trkpt lat="32.804718" lon="34.984516">
        <ele>298.999</ele>
        <time>2011-11-30T20:01:31Z</time>
      </trkpt>
      <trkpt lat="32.804736" lon="34.984415">
        <ele>298.999</ele>
        <time>2011-11-30T20:01:34Z</time>
      </trkpt>
      <trkpt lat="32.804746" lon="34.984238">
        <ele>299.0</ele>
        <time>2011-11-30T20:01:40Z</time>
      </trkpt>
      <trkpt lat="32.804735" lon="34.984159">
        <ele>299.0</ele>
        <time>2011-11-30T20:01:44Z</time>
      </trkpt>
      <trkpt lat="32.804712" lon="34.984085">
        <ele>300.0</ele>
        <time>2011-11-30T20:01:50Z</time>
      </trkpt>
      <trkpt lat="32.804698" lon="34.983999">
        <ele>300.0</ele>
        <time>2011-11-30T20:01:55Z</time>
      </trkpt>
      <trkpt lat="32.804713" lon="34.983838">
        <ele>300.0</ele>
        <time>2011-11-30T20:01:59Z</time>
      </trkpt>
      <trkpt lat="32.804758" lon="34.983663">
        <ele>299.999</ele>
        <time>2011-11-30T20:02:04Z</time>
      </trkpt>
      <trkpt lat="32.80479" lon="34.98357">
        <ele>300.0</ele>
        <time>2011-11-30T20:02:07Z</time>
      </trkpt>
      <trkpt lat="32.80482" lon="34.983481">
        <ele>300.0</ele>
        <time>2011-11-30T20:02:10Z</time>
      </trkpt>
      <trkpt lat="32.804882" lon="34.983285">
        <ele>300.999</ele>
        <time>2011-11-30T20:02:16Z</time>
      </trkpt>
      <trkpt lat="32.804928" lon="34.983137">
        <ele>300.999</ele>
        <time>2011-11-30T20:02:20Z</time>
      </trkpt>
      <trkpt lat="32.804957" lon="34.982984">
        <ele>300.999</ele>
        <time>2011-11-30T20:02:24Z</time>
      </trkpt>
      <trkpt lat="32.805008" lon="34.982776">
        <ele>301.0</ele>
        <time>2011-11-30T20:02:28Z</time>
      </trkpt>
      <trkpt lat="32.80506" lon="34.982609">
        <ele>301.0</ele>
        <time>2011-11-30T20:02:32Z</time>
      </trkpt>
      <trkpt lat="32.805108" lon="34.982451">
        <ele>302.0</ele>
        <time>2011-11-30T20:02:36Z</time>
      </trkpt>
      <trkpt lat="32.805158" lon="34.982297">
        <ele>302.0</ele>
        <time>2011-11-30T20:02:40Z</time>
      </trkpt>
      <trkpt lat="32.805343" lon="34.982082">
        <ele>302.0</ele>
        <time>2011-11-30T20:02:44Z</time>
      </trkpt>
      <trkpt lat="32.805614" lon="34.981798">
        <ele>301.0</ele>
        <time>2011-11-30T20:02:48Z</time>
      </trkpt>
      <trkpt lat="32.805821" lon="34.981518">
        <ele>298.0</ele>
        <time>2011-11-30T20:02:52Z</time>
      </trkpt>
      <trkpt lat="32.805974" lon="34.981294">
        <ele>295.0</ele>
        <time>2011-11-30T20:02:56Z</time>
      </trkpt>
      <trkpt lat="32.805996" lon="34.981219">
        <ele>295.0</ele>
        <time>2011-11-30T20:02:58Z</time>
      </trkpt>
      <trkpt lat="32.806101" lon="34.981031">
        <ele>292.0</ele>
        <time>2011-11-30T20:03:03Z</time>
      </trkpt>
      <trkpt lat="32.806257" lon="34.980869">
        <ele>290.0</ele>
        <time>2011-11-30T20:03:07Z</time>
      </trkpt>
      <trkpt lat="32.806352" lon="34.980756">
        <ele>288.0</ele>
        <time>2011-11-30T20:03:11Z</time>
      </trkpt>
      <trkpt lat="32.806472" lon="34.980614">
        <ele>286.0</ele>
        <time>2011-11-30T20:03:15Z</time>
      </trkpt>
      <trkpt lat="32.806611" lon="34.980465">
        <ele>285.0</ele>
        <time>2011-11-30T20:03:19Z</time>
      </trkpt>
      <trkpt lat="32.806726" lon="34.980324">
        <ele>283.0</ele>
        <time>2011-11-30T20:03:23Z</time>
      </trkpt>
      <trkpt lat="32.806826" lon="34.980204">
        <ele>282.0</ele>
        <time>2011-11-30T20:03:27Z</time>
      </trkpt>
      <trkpt lat="32.806947" lon="34.98006">
        <ele>281.0</ele>
        <time>2011-11-30T20:03:31Z</time>
      </trkpt>
      <trkpt lat="32.807085" lon="34.979903">
        <ele>279.0</ele>
        <time>2011-11-30T20:03:35Z</time>
      </trkpt>
      <trkpt lat="32.807153" lon="34.979828">
        <ele>279.0</ele>
        <time>2011-11-30T20:03:38Z</time>
      </trkpt>
      <trkpt lat="32.807267" lon="34.979702">
        <ele>278.0</ele>
        <time>2011-11-30T20:03:43Z</time>
      </trkpt>
      <trkpt lat="32.807476" lon="34.97941">
        <ele>276.0</ele>
        <time>2011-11-30T20:03:52Z</time>
      </trkpt>
      <trkpt lat="32.807542" lon="34.979266">
        <ele>276.0</ele>
        <time>2011-11-30T20:03:56Z</time>
      </trkpt>
      <trkpt lat="32.80759" lon="34.979112">
        <ele>275.0</ele>
        <time>2011-11-30T20:04:00Z</time>
      </trkpt>
      <trkpt lat="32.807679" lon="34.978751">
        <ele>272.0</ele>
        <time>2011-11-30T20:04:11Z</time>
      </trkpt>
      <trkpt lat="32.807741" lon="34.978411">
        <ele>268.0</ele>
        <time>2011-11-30T20:04:16Z</time>
      </trkpt>
      <trkpt lat="32.807762" lon="34.97809">
        <ele>266.0</ele>
        <time>2011-11-30T20:04:20Z</time>
      </trkpt>
      <trkpt lat="32.807794" lon="34.977776">
        <ele>264.0</ele>
        <time>2011-11-30T20:04:24Z</time>
      </trkpt>
      <trkpt lat="32.807838" lon="34.977484">
        <ele>263.0</ele>
        <time>2011-11-30T20:04:28Z</time>
      </trkpt>
      <trkpt lat="32.807879" lon="34.977401">
        <ele>263.0</ele>
        <time>2011-11-30T20:04:30Z</time>
      </trkpt>
      <trkpt lat="32.807956" lon="34.977025">
        <ele>263.0</ele>
        <time>2011-11-30T20:04:44Z</time>
      </trkpt>
      <trkpt lat="32.808086" lon="34.976922">
        <ele>262.0</ele>
        <time>2011-11-30T20:04:48Z</time>
      </trkpt>
      <trkpt lat="32.808206" lon="34.976836">
        <ele>262.0</ele>
        <time>2011-11-30T20:04:52Z</time>
      </trkpt>
      <trkpt lat="32.808292" lon="34.976716">
        <ele>261.0</ele>
        <time>2011-11-30T20:04:56Z</time>
      </trkpt>
      <trkpt lat="32.808318" lon="34.976641">
        <ele>261.0</ele>
        <time>2011-11-30T20:04:58Z</time>
      </trkpt>
      <trkpt lat="32.808629" lon="34.976359">
        <ele>257.0</ele>
        <time>2011-11-30T20:05:07Z</time>
      </trkpt>
      <trkpt lat="32.808781" lon="34.976215">
        <ele>256.0</ele>
        <time>2011-11-30T20:05:11Z</time>
      </trkpt>
      <trkpt lat="32.808961" lon="34.976065">
        <ele>254.0</ele>
        <time>2011-11-30T20:05:15Z</time>
      </trkpt>
      <trkpt lat="32.809072" lon="34.975956">
        <ele>254.0</ele>
        <time>2011-11-30T20:05:19Z</time>
      </trkpt>
      <trkpt lat="32.809175" lon="34.975862">
        <ele>254.0</ele>
        <time>2011-11-30T20:05:23Z</time>
      </trkpt>
      <trkpt lat="32.809277" lon="34.975764">
        <ele>253.0</ele>
        <time>2011-11-30T20:05:27Z</time>
      </trkpt>
      <trkpt lat="32.809331" lon="34.975704">
        <ele>253.0</ele>
        <time>2011-11-30T20:05:30Z</time>
      </trkpt>
      <trkpt lat="32.809426" lon="34.975581">
        <ele>252.0</ele>
        <time>2011-11-30T20:05:36Z</time>
      </trkpt>
      <trkpt lat="32.809537" lon="34.975451">
        <ele>252.0</ele>
        <time>2011-11-30T20:05:40Z</time>
      </trkpt>
      <trkpt lat="32.809647" lon="34.975323">
        <ele>251.0</ele>
        <time>2011-11-30T20:05:44Z</time>
      </trkpt>
      <trkpt lat="32.809701" lon="34.975256">
        <ele>251.0</ele>
        <time>2011-11-30T20:05:46Z</time>
      </trkpt>
      <trkpt lat="32.809794" lon="34.975129">
        <ele>250.0</ele>
        <time>2011-11-30T20:05:50Z</time>
      </trkpt>
      <trkpt lat="32.809962" lon="34.974908">
        <ele>249.0</ele>
        <time>2011-11-30T20:05:58Z</time>
      </trkpt>
      <trkpt lat="32.81003" lon="34.974832">
        <ele>249.0</ele>
        <time>2011-11-30T20:06:03Z</time>
      </trkpt>
      <trkpt lat="32.810198" lon="34.9747">
        <ele>246.0</ele>
        <time>2011-11-30T20:06:08Z</time>
      </trkpt>
      <trkpt lat="32.810273" lon="34.974624">
        <ele>244.0</ele>
        <time>2011-11-30T20:06:10Z</time>
      </trkpt>
      <trkpt lat="32.810337" lon="34.974465">
        <ele>243.0</ele>
        <time>2011-11-30T20:06:14Z</time>
      </trkpt>
      <trkpt lat="32.810344" lon="34.974222">
        <ele>240.0</ele>
        <time>2011-11-30T20:06:20Z</time>
      </trkpt>
      <trkpt lat="32.810308" lon="34.973979">
        <ele>238.0</ele>
        <time>2011-11-30T20:06:26Z</time>
      </trkpt>
      <trkpt lat="32.810221" lon="34.973785">
        <ele>238.0</ele>
        <time>2011-11-30T20:06:32Z</time>
      </trkpt>
      <trkpt lat="32.81011" lon="34.973631">
        <ele>237.0</ele>
        <time>2011-11-30T20:06:36Z</time>
      </trkpt>
      <trkpt lat="32.810018" lon="34.973485">
        <ele>237.0</ele>
        <time>2011-11-30T20:06:40Z</time>
      </trkpt>
      <trkpt lat="32.809922" lon="34.973335">
        <ele>237.0</ele>
        <time>2011-11-30T20:06:44Z</time>
      </trkpt>
      <trkpt lat="32.809876" lon="34.973269">
        <ele>237.0</ele>
        <time>2011-11-30T20:06:46Z</time>
      </trkpt>
      <trkpt lat="32.809748" lon="34.973026">
        <ele>236.0</ele>
        <time>2011-11-30T20:06:52Z</time>
      </trkpt>
      <trkpt lat="32.809756" lon="34.972795">
        <ele>234.0</ele>
        <time>2011-11-30T20:06:56Z</time>
      </trkpt>
      <trkpt lat="32.809879" lon="34.972637">
        <ele>228.0</ele>
        <time>2011-11-30T20:07:00Z</time>
      </trkpt>
      <trkpt lat="32.810052" lon="34.972468">
        <ele>223.0</ele>
        <time>2011-11-30T20:07:04Z</time>
      </trkpt>
      <trkpt lat="32.810172" lon="34.972372">
        <ele>222.0</ele>
        <time>2011-11-30T20:07:08Z</time>
      </trkpt>
      <trkpt lat="32.810328" lon="34.972229">
        <ele>218.0</ele>
        <time>2011-11-30T20:07:12Z</time>
      </trkpt>
      <trkpt lat="32.810532" lon="34.97205">
        <ele>215.0</ele>
        <time>2011-11-30T20:07:16Z</time>
      </trkpt>
      <trkpt lat="32.810726" lon="34.971873">
        <ele>211.0</ele>
        <time>2011-11-30T20:07:20Z</time>
      </trkpt>
      <trkpt lat="32.810918" lon="34.971797">
        <ele>208.0</ele>
        <time>2011-11-30T20:07:24Z</time>
      </trkpt>
      <trkpt lat="32.811106" lon="34.971759">
        <ele>207.0</ele>
        <time>2011-11-30T20:07:28Z</time>
      </trkpt>
      <trkpt lat="32.811242" lon="34.971741">
        <ele>207.0</ele>
        <time>2011-11-30T20:07:32Z</time>
      </trkpt>
      <trkpt lat="32.811404" lon="34.971704">
        <ele>206.0</ele>
        <time>2011-11-30T20:07:36Z</time>
      </trkpt>
      <trkpt lat="32.811604" lon="34.971589">
        <ele>205.0</ele>
        <time>2011-11-30T20:07:40Z</time>
      </trkpt>
      <trkpt lat="32.811767" lon="34.971428">
        <ele>203.0</ele>
        <time>2011-11-30T20:07:44Z</time>
      </trkpt>
      <trkpt lat="32.811916" lon="34.971279">
        <ele>201.0</ele>
        <time>2011-11-30T20:07:48Z</time>
      </trkpt>
      <trkpt lat="32.812023" lon="34.971145">
        <ele>200.0</ele>
        <time>2011-11-30T20:07:52Z</time>
      </trkpt>
      <trkpt lat="32.812137" lon="34.971009">
        <ele>199.0</ele>
        <time>2011-11-30T20:07:56Z</time>
      </trkpt>
      <trkpt lat="32.812195" lon="34.970939">
        <ele>198.0</ele>
        <time>2011-11-30T20:07:58Z</time>
      </trkpt>
      <trkpt lat="32.812271" lon="34.970776">
        <ele>198.0</ele>
        <time>2011-11-30T20:08:03Z</time>
      </trkpt>
      <trkpt lat="32.812477" lon="34.970445">
        <ele>197.0</ele>
        <time>2011-11-30T20:08:11Z</time>
      </trkpt>
      <trkpt lat="32.812516" lon="34.970361">
        <ele>197.0</ele>
        <time>2011-11-30T20:08:14Z</time>
      </trkpt>
      <trkpt lat="32.812642" lon="34.970054">
        <ele>196.0</ele>
        <time>2011-11-30T20:08:20Z</time>
      </trkpt>
      <trkpt lat="32.812804" lon="34.969752">
        <ele>196.0</ele>
        <time>2011-11-30T20:08:24Z</time>
      </trkpt>
      <trkpt lat="32.81301" lon="34.969379">
        <ele>195.0</ele>
        <time>2011-11-30T20:08:28Z</time>
      </trkpt>
      <trkpt lat="32.813154" lon="34.968983">
        <ele>195.0</ele>
        <time>2011-11-30T20:08:32Z</time>
      </trkpt>
      <trkpt lat="32.813164" lon="34.968588">
        <ele>194.0</ele>
        <time>2011-11-30T20:08:36Z</time>
      </trkpt>
      <trkpt lat="32.813124" lon="34.968361">
        <ele>192.0</ele>
        <time>2011-11-30T20:08:39Z</time>
      </trkpt>
      <trkpt lat="32.813029" lon="34.968112">
        <ele>191.0</ele>
        <time>2011-11-30T20:08:43Z</time>
      </trkpt>
      <trkpt lat="32.813029" lon="34.967898">
        <ele>189.0</ele>
        <time>2011-11-30T20:08:47Z</time>
      </trkpt>
      <trkpt lat="32.81317" lon="34.967648">
        <ele>185.0</ele>
        <time>2011-11-30T20:08:52Z</time>
      </trkpt>
      <trkpt lat="32.813291" lon="34.967491">
        <ele>181.0</ele>
        <time>2011-11-30T20:08:55Z</time>
      </trkpt>
      <trkpt lat="32.813356" lon="34.967429">
        <ele>181.0</ele>
        <time>2011-11-30T20:08:58Z</time>
      </trkpt>
      <trkpt lat="32.813631" lon="34.967054">
        <ele>174.0</ele>
        <time>2011-11-30T20:09:08Z</time>
      </trkpt>
      <trkpt lat="32.813744" lon="34.966933">
        <ele>173.0</ele>
        <time>2011-11-30T20:09:11Z</time>
      </trkpt>
      <trkpt lat="32.813895" lon="34.966944">
        <ele>173.0</ele>
        <time>2011-11-30T20:09:16Z</time>
      </trkpt>
      <trkpt lat="32.814057" lon="34.966988">
        <ele>170.0</ele>
        <time>2011-11-30T20:09:20Z</time>
      </trkpt>
      <trkpt lat="32.814111" lon="34.967039">
        <ele>170.0</ele>
        <time>2011-11-30T20:09:22Z</time>
      </trkpt>
      <trkpt lat="32.814457" lon="34.967177">
        <ele>167.0</ele>
        <time>2011-11-30T20:09:29Z</time>
      </trkpt>
      <trkpt lat="32.814732" lon="34.967261">
        <ele>166.0</ele>
        <time>2011-11-30T20:09:33Z</time>
      </trkpt>
      <trkpt lat="32.815051" lon="34.96737">
        <ele>164.0</ele>
        <time>2011-11-30T20:09:41Z</time>
      </trkpt>
      <trkpt lat="32.815113" lon="34.967348">
        <ele>164.0</ele>
        <time>2011-11-30T20:09:43Z</time>
      </trkpt>
      <trkpt lat="32.81523" lon="34.9672">
        <ele>162.0</ele>
        <time>2011-11-30T20:09:48Z</time>
      </trkpt>
      <trkpt lat="32.815364" lon="34.967054">
        <ele>155.0</ele>
        <time>2011-11-30T20:09:52Z</time>
      </trkpt>
      <trkpt lat="32.815494" lon="34.966923">
        <ele>150.0</ele>
        <time>2011-11-30T20:09:57Z</time>
      </trkpt>
      <trkpt lat="32.815544" lon="34.96683">
        <ele>147.0</ele>
        <time>2011-11-30T20:10:00Z</time>
      </trkpt>
      <trkpt lat="32.815595" lon="34.966736">
        <ele>145.0</ele>
        <time>2011-11-30T20:10:02Z</time>
      </trkpt>
      <trkpt lat="32.81569" lon="34.96641">
        <ele>142.0</ele>
        <time>2011-11-30T20:10:08Z</time>
      </trkpt>
      <trkpt lat="32.815746" lon="34.966196">
        <ele>140.0</ele>
        <time>2011-11-30T20:10:12Z</time>
      </trkpt>
      <trkpt lat="32.815792" lon="34.965981">
        <ele>137.0</ele>
        <time>2011-11-30T20:10:16Z</time>
      </trkpt>
      <trkpt lat="32.815935" lon="34.965724">
        <ele>135.0</ele>
        <time>2011-11-30T20:10:24Z</time>
      </trkpt>
      <trkpt lat="32.816316" lon="34.965485">
        <ele>130.0</ele>
        <time>2011-11-30T20:10:32Z</time>
      </trkpt>
      <trkpt lat="32.816502" lon="34.965329">
        <ele>128.0</ele>
        <time>2011-11-30T20:10:36Z</time>
      </trkpt>
      <trkpt lat="32.816566" lon="34.965117">
        <ele>125.0</ele>
        <time>2011-11-30T20:10:40Z</time>
      </trkpt>
      <trkpt lat="32.816319" lon="34.964735">
        <ele>122.0</ele>
        <time>2011-11-30T20:10:48Z</time>
      </trkpt>
      <trkpt lat="32.816153" lon="34.964656">
        <ele>119.0</ele>
        <time>2011-11-30T20:10:52Z</time>
      </trkpt>
      <trkpt lat="32.816023" lon="34.96458">
        <ele>115.0</ele>
        <time>2011-11-30T20:10:56Z</time>
      </trkpt>
      <trkpt lat="32.815954" lon="34.964366">
        <ele>110.0</ele>
        <time>2011-11-30T20:11:00Z</time>
      </trkpt>
      <trkpt lat="32.816008" lon="34.964256">
        <ele>109.0</ele>
        <time>2011-11-30T20:11:02Z</time>
      </trkpt>
      <trkpt lat="32.816197" lon="34.963996">
        <ele>105.0</ele>
        <time>2011-11-30T20:11:07Z</time>
      </trkpt>
      <trkpt lat="32.816306" lon="34.963845">
        <ele>103.0</ele>
        <time>2011-11-30T20:11:11Z</time>
      </trkpt>
      <trkpt lat="32.816347" lon="34.963644">
        <ele>100.0</ele>
        <time>2011-11-30T20:11:15Z</time>
      </trkpt>
      <trkpt lat="32.816362" lon="34.963431">
        <ele>98.0</ele>
        <time>2011-11-30T20:11:19Z</time>
      </trkpt>
      <trkpt lat="32.816359" lon="34.963341">
        <ele>97.0</ele>
        <time>2011-11-30T20:11:23Z</time>
      </trkpt>
      <trkpt lat="32.816346" lon="34.963242">
        <ele>97.0</ele>
        <time>2011-11-30T20:11:26Z</time>
      </trkpt>
      <trkpt lat="32.81637" lon="34.963063">
        <ele>96.0</ele>
        <time>2011-11-30T20:11:31Z</time>
      </trkpt>
      <trkpt lat="32.816369" lon="34.962957">
        <ele>94.0</ele>
        <time>2011-11-30T20:11:33Z</time>
      </trkpt>
      <trkpt lat="32.816316" lon="34.962762">
        <ele>93.0</ele>
        <time>2011-11-30T20:11:38Z</time>
      </trkpt>
      <trkpt lat="32.816233" lon="34.9627">
        <ele>93.0</ele>
        <time>2011-11-30T20:11:41Z</time>
      </trkpt>
      <trkpt lat="32.816233" lon="34.9627">
        <time>2011-11-30T20:11:52Z</time>
      </trkpt>
    </trkseg>
    <trkseg>
      <trkpt lat="32.816233" lon="34.9627">
        <time>2011-11-30T20:12:22Z</time>
      </trkpt>
      <trkpt lat="32.816126" lon="34.962628">
        <ele>91.0</ele>
        <time>2011-11-30T20:12:28Z</time>
      </trkpt>
      <trkpt lat="32.816082" lon="34.962564">
        <ele>90.0</ele>
        <time>2011-11-30T20:12:32Z</time>
      </trkpt>
      <trkpt lat="32.816023" lon="34.962503">
        <ele>89.0</ele>
        <time>2011-11-30T20:12:36Z</time>
      </trkpt>
      <trkpt lat="32.816007" lon="34.962428">
        <ele>89.0</ele>
        <time>2011-11-30T20:12:39Z</time>
      </trkpt>
      <trkpt lat="32.815889" lon="34.962371">
        <ele>87.0</ele>
        <time>2011-11-30T20:12:50Z</time>
      </trkpt>
      <trkpt lat="32.815734" lon="34.962373">
        <ele>86.0</ele>
        <time>2011-11-30T20:13:01Z</time>
      </trkpt>
      <trkpt lat="32.815672" lon="34.962355">
        <ele>86.0</ele>
        <time>2011-11-30T20:13:04Z</time>
      </trkpt>
      <trkpt lat="32.815606" lon="34.962332">
        <ele>85.0</ele>
        <time>2011-11-30T20:13:08Z</time>
      </trkpt>
      <trkpt lat="32.815371" lon="34.962308">
        <ele>85.0</ele>
        <time>2011-11-30T20:13:18Z</time>
      </trkpt>
      <trkpt lat="32.815279" lon="34.962289">
        <ele>84.0</ele>
        <time>2011-11-30T20:13:21Z</time>
      </trkpt>
      <trkpt lat="32.815131" lon="34.96224">
        <ele>82.0</ele>
        <time>2011-11-30T20:13:25Z</time>
      </trkpt>
      <trkpt lat="32.814944" lon="34.962161">
        <ele>79.0</ele>
        <time>2011-11-30T20:13:29Z</time>
      </trkpt>
      <trkpt lat="32.814715" lon="34.962029">
        <ele>77.0</ele>
        <time>2011-11-30T20:13:33Z</time>
      </trkpt>
      <trkpt lat="32.8144" lon="34.961734">
        <ele>75.0</ele>
        <time>2011-11-30T20:13:39Z</time>
      </trkpt>
      <trkpt lat="32.814287" lon="34.961498">
        <ele>74.0</ele>
        <time>2011-11-30T20:13:42Z</time>
      </trkpt>
      <trkpt lat="32.814154" lon="34.96118">
        <ele>73.0</ele>
        <time>2011-11-30T20:13:46Z</time>
      </trkpt>
      <trkpt lat="32.814113" lon="34.960852">
        <ele>72.0</ele>
        <time>2011-11-30T20:13:51Z</time>
      </trkpt>
      <trkpt lat="32.814089" lon="34.960759">
        <ele>72.0</ele>
        <time>2011-11-30T20:13:54Z</time>
      </trkpt>
      <trkpt lat="32.814023" lon="34.96058">
        <ele>68.0</ele>
        <time>2011-11-30T20:13:58Z</time>
      </trkpt>
      <trkpt lat="32.813944" lon="34.960387">
        <ele>66.0</ele>
        <time>2011-11-30T20:14:02Z</time>
      </trkpt>
      <trkpt lat="32.813793" lon="34.960052">
        <ele>65.0</ele>
        <time>2011-11-30T20:14:07Z</time>
      </trkpt>
      <trkpt lat="32.813748" lon="34.959845">
        <ele>64.0</ele>
        <time>2011-11-30T20:14:10Z</time>
      </trkpt>
      <trkpt lat="32.813683" lon="34.959559">
        <ele>64.0</ele>
        <time>2011-11-30T20:14:14Z</time>
      </trkpt>
      <trkpt lat="32.813639" lon="34.95943">
        <ele>63.0</ele>
        <time>2011-11-30T20:14:16Z</time>
      </trkpt>
      <trkpt lat="32.813546" lon="34.959099">
        <ele>62.0</ele>
        <time>2011-11-30T20:14:22Z</time>
      </trkpt>
      <trkpt lat="32.813499" lon="34.958884">
        <ele>61.0</ele>
        <time>2011-11-30T20:14:27Z</time>
      </trkpt>
      <trkpt lat="32.813414" lon="34.95867">
        <ele>61.0</ele>
        <time>2011-11-30T20:14:31Z</time>
      </trkpt>
      <trkpt lat="32.813342" lon="34.958508">
        <ele>62.0</ele>
        <time>2011-11-30T20:14:35Z</time>
      </trkpt>
      <trkpt lat="32.813258" lon="34.958302">
        <ele>61.0</ele>
        <time>2011-11-30T20:14:39Z</time>
      </trkpt>
      <trkpt lat="32.8132" lon="34.958098">
        <ele>60.0</ele>
        <time>2011-11-30T20:14:43Z</time>
      </trkpt>
      <trkpt lat="32.8132" lon="34.958098">
        <time>2011-11-30T20:14:54Z</time>
      </trkpt>
    </trkseg>
    <trkseg>
      <trkpt lat="32.8132" lon="34.958098">
        <time>2011-11-30T20:15:58Z</time>
      </trkpt>
      <trkpt lat="32.813205" lon="34.957908">
        <ele>56.0</ele>
        <time>2011-11-30T20:16:02Z</time>
      </trkpt>
      <trkpt lat="32.813165" lon="34.957749">
        <ele>51.0</ele>
        <time>2011-11-30T20:16:07Z</time>
      </trkpt>
      <trkpt lat="32.813095" lon="34.957561">
        <ele>43.0</ele>
        <time>2011-11-30T20:16:11Z</time>
      </trkpt>
      <trkpt lat="32.813039" lon="34.957338">
        <ele>40.0</ele>
        <time>2011-11-30T20:16:15Z</time>
      </trkpt>
      <trkpt lat="32.812987" lon="34.957108">
        <ele>38.0</ele>
        <time>2011-11-30T20:16:19Z</time>
      </trkpt>
      <trkpt lat="32.812939" lon="34.956899">
        <ele>38.0</ele>
        <time>2011-11-30T20:16:23Z</time>
      </trkpt>
      <trkpt lat="32.812951" lon="34.956708">
        <ele>37.0</ele>
        <time>2011-11-30T20:16:27Z</time>
      </trkpt>
      <trkpt lat="32.812887" lon="34.956624">
        <ele>37.0</ele>
        <time>2011-11-30T20:16:30Z</time>
      </trkpt>
      <trkpt lat="32.812757" lon="34.956616">
        <ele>37.0</ele>
        <time>2011-11-30T20:16:34Z</time>
      </trkpt>
      <trkpt lat="32.812693" lon="34.956629">
        <ele>37.0</ele>
        <time>2011-11-30T20:16:36Z</time>
      </trkpt>
      <trkpt lat="32.812621" lon="34.956626">
        <ele>37.0</ele>
        <time>2011-11-30T20:16:40Z</time>
      </trkpt>
      <trkpt lat="32.812621" lon="34.956626">
        <time>2011-11-30T20:16:51Z</time>
      </trkpt>
    </trkseg>
    <trkseg>
      <trkpt lat="32.812621" lon="34.956626">
        <time>2011-11-30T20:17:14Z</time>
      </trkpt>
      <trkpt lat="32.812588" lon="34.95647">
        <ele>36.0</ele>
        <time>2011-11-30T20:17:17Z</time>
      </trkpt>
      <trkpt lat="32.812588" lon="34.95647">
        <time>2011-11-30T20:17:28Z</time>
      </trkpt>
    </trkseg>
    <trkseg>
      <trkpt lat="32.812588" lon="34.95647">
        <time>2011-11-30T20:17:33Z</time>
      </trkpt>
      <trkpt lat="32.812578" lon="34.95629">
        <ele>36.0</ele>
        <time>2011-11-30T20:17:36Z</time>
      </trkpt>
      <trkpt lat="32.812429" lon="34.956246">
        <ele>36.0</ele>
        <time>2011-11-30T20:17:43Z</time>
      </trkpt>
      <trkpt lat="32.812382" lon="34.956192">
        <ele>35.0</ele>
        <time>2011-11-30T20:17:46Z</time>
      </trkpt>
      <trkpt lat="32.812293" lon="34.956068">
        <ele>34.0</ele>
        <time>2011-11-30T20:17:50Z</time>
      </trkpt>
      <trkpt lat="32.812131" lon="34.95594">
        <ele>33.0</ele>
        <time>2011-11-30T20:17:54Z</time>
      </trkpt>
      <trkpt lat="32.811969" lon="34.955829">
        <ele>33.0</ele>
        <time>2011-11-30T20:17:58Z</time>
      </trkpt>
      <trkpt lat="32.811812" lon="34.955776">
        <ele>32.0</ele>
        <time>2011-11-30T20:18:03Z</time>
      </trkpt>
      <trkpt lat="32.811742" lon="34.955742">
        <ele>32.0</ele>
        <time>2011-11-30T20:18:04Z</time>
      </trkpt>
      <trkpt lat="32.811571" lon="34.955568">
        <ele>31.0</ele>
        <time>2011-11-30T20:18:10Z</time>
      </trkpt>
      <trkpt lat="32.811413" lon="34.955523">
        <ele>29.0</ele>
        <time>2011-11-30T20:18:15Z</time>
      </trkpt>
      <trkpt lat="32.811322" lon="34.955528">
        <ele>29.0</ele>
        <time>2011-11-30T20:18:18Z</time>
      </trkpt>
      <trkpt lat="32.811167" lon="34.955569">
        <ele>27.0</ele>
        <time>2011-11-30T20:18:22Z</time>
      </trkpt>
      <trkpt lat="32.811043" lon="34.955615">
        <ele>27.0</ele>
        <time>2011-11-30T20:18:27Z</time>
      </trkpt>
      <trkpt lat="32.810982" lon="34.955636">
        <ele>27.0</ele>
        <time>2011-11-30T20:18:28Z</time>
      </trkpt>
      <trkpt lat="32.810815" lon="34.955697">
        <ele>27.0</ele>
        <time>2011-11-30T20:18:35Z</time>
      </trkpt>
      <trkpt lat="32.81073" lon="34.955731">
        <ele>26.0</ele>
        <time>2011-11-30T20:18:38Z</time>
      </trkpt>
      <trkpt lat="32.810644" lon="34.955763">
        <ele>26.0</ele>
        <time>2011-11-30T20:18:40Z</time>
      </trkpt>
      <trkpt lat="32.810479" lon="34.95583">
        <ele>26.0</ele>
        <time>2011-11-30T20:18:47Z</time>
      </trkpt>
      <trkpt lat="32.810395" lon="34.955863">
        <ele>26.0</ele>
        <time>2011-11-30T20:18:50Z</time>
      </trkpt>
      <trkpt lat="32.810311" lon="34.955896">
        <ele>26.0</ele>
        <time>2011-11-30T20:18:53Z</time>
      </trkpt>
      <trkpt lat="32.810147" lon="34.955964">
        <ele>26.0</ele>
        <time>2011-11-30T20:18:59Z</time>
      </trkpt>
      <trkpt lat="32.809989" lon="34.95602">
        <ele>26.0</ele>
        <time>2011-11-30T20:19:05Z</time>
      </trkpt>
      <trkpt lat="32.80984" lon="34.956067">
        <ele>26.0</ele>
        <time>2011-11-30T20:19:10Z</time>
      </trkpt>
      <trkpt lat="32.809589" lon="34.956134">
        <ele>26.0</ele>
        <time>2011-11-30T20:19:21Z</time>
      </trkpt>
      <trkpt lat="32.809445" lon="34.956196">
        <ele>26.0</ele>
        <time>2011-11-30T20:19:26Z</time>
      </trkpt>
      <trkpt lat="32.809179" lon="34.956289">
        <ele>26.0</ele>
        <time>2011-11-30T20:19:34Z</time>
      </trkpt>
      <trkpt lat="32.809029" lon="34.956341">
        <ele>26.0</ele>
        <time>2011-11-30T20:19:39Z</time>
      </trkpt>
      <trkpt lat="32.808947" lon="34.956369">
        <ele>26.0</ele>
        <time>2011-11-30T20:19:42Z</time>
      </trkpt>
      <trkpt lat="32.8087" lon="34.956454">
        <ele>26.0</ele>
        <time>2011-11-30T20:19:51Z</time>
      </trkpt>
      <trkpt lat="32.808617" lon="34.956482">
        <ele>26.0</ele>
        <time>2011-11-30T20:19:54Z</time>
      </trkpt>
      <trkpt lat="32.808538" lon="34.956509">
        <ele>26.0</ele>
        <time>2011-11-30T20:19:57Z</time>
      </trkpt>
      <trkpt lat="32.808382" lon="34.956556">
        <ele>26.0</ele>
        <time>2011-11-30T20:20:02Z</time>
      </trkpt>
      <trkpt lat="32.808296" lon="34.956572">
        <ele>26.0</ele>
        <time>2011-11-30T20:20:05Z</time>
      </trkpt>
      <trkpt lat="32.808125" lon="34.956614">
        <ele>27.0</ele>
        <time>2011-11-30T20:20:10Z</time>
      </trkpt>
      <trkpt lat="32.808048" lon="34.956641">
        <ele>27.0</ele>
        <time>2011-11-30T20:20:14Z</time>
      </trkpt>
      <trkpt lat="32.80797" lon="34.956674">
        <ele>27.0</ele>
        <time>2011-11-30T20:20:17Z</time>
      </trkpt>
      <trkpt lat="32.807823" lon="34.956758">
        <ele>27.0</ele>
        <time>2011-11-30T20:20:23Z</time>
      </trkpt>
      <trkpt lat="32.807682" lon="34.956768">
        <ele>27.0</ele>
        <time>2011-11-30T20:20:27Z</time>
      </trkpt>
      <trkpt lat="32.807544" lon="34.956785">
        <ele>27.0</ele>
        <time>2011-11-30T20:20:31Z</time>
      </trkpt>
      <trkpt lat="32.807224" lon="34.956942">
        <ele>27.0</ele>
        <time>2011-11-30T20:20:43Z</time>
      </trkpt>
      <trkpt lat="32.807141" lon="34.956974">
        <ele>27.0</ele>
        <time>2011-11-30T20:20:46Z</time>
      </trkpt>
      <trkpt lat="32.806915" lon="34.957063">
        <ele>27.0</ele>
        <time>2011-11-30T20:20:55Z</time>
      </trkpt>
      <trkpt lat="32.806697" lon="34.957133">
        <ele>28.0</ele>
        <time>2011-11-30T20:21:03Z</time>
      </trkpt>
      <trkpt lat="32.806549" lon="34.957166">
        <ele>29.0</ele>
        <time>2011-11-30T20:21:07Z</time>
      </trkpt>
      <trkpt lat="32.806465" lon="34.957186">
        <ele>29.0</ele>
        <time>2011-11-30T20:21:10Z</time>
      </trkpt>
      <trkpt lat="32.806389" lon="34.957202">
        <ele>29.0</ele>
        <time>2011-11-30T20:21:13Z</time>
      </trkpt>
      <trkpt lat="32.806234" lon="34.957211">
        <ele>29.0</ele>
        <time>2011-11-30T20:21:18Z</time>
      </trkpt>
      <trkpt lat="32.806101" lon="34.95721">
        <ele>29.0</ele>
        <time>2011-11-30T20:21:22Z</time>
      </trkpt>
      <trkpt lat="32.805972" lon="34.957196">
        <ele>29.0</ele>
        <time>2011-11-30T20:21:26Z</time>
      </trkpt>
      <trkpt lat="32.805881" lon="34.957187">
        <ele>29.0</ele>
        <time>2011-11-30T20:21:29Z</time>
      </trkpt>
      <trkpt lat="32.805698" lon="34.95719">
        <ele>29.0</ele>
        <time>2011-11-30T20:21:35Z</time>
      </trkpt>
      <trkpt lat="32.805572" lon="34.95723">
        <ele>29.0</ele>
        <time>2011-11-30T20:21:39Z</time>
      </trkpt>
      <trkpt lat="32.805519" lon="34.957279">
        <ele>29.0</ele>
        <time>2011-11-30T20:21:41Z</time>
      </trkpt>
      <trkpt lat="32.805475" lon="34.957342">
        <ele>29.0</ele>
        <time>2011-11-30T20:21:45Z</time>
      </trkpt>
      <trkpt lat="32.805346" lon="34.957447">
        <ele>30.0</ele>
        <time>2011-11-30T20:21:50Z</time>
      </trkpt>
      <trkpt lat="32.805281" lon="34.957411">
        <ele>30.0</ele>
        <time>2011-11-30T20:21:53Z</time>
      </trkpt>
      <trkpt lat="32.805187" lon="34.957413">
        <ele>30.0</ele>
        <time>2011-11-30T20:21:55Z</time>
      </trkpt>
      <trkpt lat="32.805033" lon="34.957421">
        <ele>30.0</ele>
        <time>2011-11-30T20:22:01Z</time>
      </trkpt>
      <trkpt lat="32.804856" lon="34.957434">
        <ele>30.0</ele>
        <time>2011-11-30T20:22:07Z</time>
      </trkpt>
      <trkpt lat="32.804781" lon="34.957449">
        <ele>30.0</ele>
        <time>2011-11-30T20:22:10Z</time>
      </trkpt>
      <trkpt lat="32.804639" lon="34.957477">
        <ele>30.0</ele>
        <time>2011-11-30T20:22:15Z</time>
      </trkpt>
      <trkpt lat="32.804467" lon="34.957478">
        <ele>30.0</ele>
        <time>2011-11-30T20:22:21Z</time>
      </trkpt>
      <trkpt lat="32.804271" lon="34.957512">
        <ele>30.0</ele>
        <time>2011-11-30T20:22:27Z</time>
      </trkpt>
      <trkpt lat="32.8042" lon="34.957522">
        <ele>30.0</ele>
        <time>2011-11-30T20:22:29Z</time>
      </trkpt>
      <trkpt lat="32.804014" lon="34.957539">
        <ele>31.0</ele>
        <time>2011-11-30T20:22:35Z</time>
      </trkpt>
      <trkpt lat="32.803877" lon="34.957542">
        <ele>31.0</ele>
        <time>2011-11-30T20:22:39Z</time>
      </trkpt>
      <trkpt lat="32.803735" lon="34.957538">
        <ele>31.0</ele>
        <time>2011-11-30T20:22:43Z</time>
      </trkpt>
      <trkpt lat="32.803582" lon="34.957529">
        <ele>31.0</ele>
        <time>2011-11-30T20:22:47Z</time>
      </trkpt>
      <trkpt lat="32.803425" lon="34.957512">
        <ele>31.0</ele>
        <time>2011-11-30T20:22:51Z</time>
      </trkpt>
      <trkpt lat="32.803269" lon="34.957499">
        <ele>30.0</ele>
        <time>2011-11-30T20:22:55Z</time>
      </trkpt>
      <trkpt lat="32.803118" lon="34.957488">
        <ele>30.0</ele>
        <time>2011-11-30T20:22:59Z</time>
      </trkpt>
      <trkpt lat="32.802969" lon="34.957477">
        <ele>30.0</ele>
        <time>2011-11-30T20:23:03Z</time>
      </trkpt>
      <trkpt lat="32.802835" lon="34.957465">
        <ele>30.0</ele>
        <time>2011-11-30T20:23:07Z</time>
      </trkpt>
      <trkpt lat="32.802704" lon="34.957457">
        <ele>30.0</ele>
        <time>2011-11-30T20:23:11Z</time>
      </trkpt>
      <trkpt lat="32.802619" lon="34.957434">
        <ele>30.0</ele>
        <time>2011-11-30T20:23:14Z</time>
      </trkpt>
      <trkpt lat="32.802531" lon="34.957431">
        <ele>30.0</ele>
        <time>2011-11-30T20:23:17Z</time>
      </trkpt>
      <trkpt lat="32.802373" lon="34.957446">
        <ele>30.0</ele>
        <time>2011-11-30T20:23:22Z</time>
      </trkpt>
      <trkpt lat="32.802243" lon="34.957443">
        <ele>30.0</ele>
        <time>2011-11-30T20:23:26Z</time>
      </trkpt>
      <trkpt lat="32.802108" lon="34.957435">
        <ele>30.0</ele>
        <time>2011-11-30T20:23:30Z</time>
      </trkpt>
      <trkpt lat="32.80197" lon="34.957426">
        <ele>30.0</ele>
        <time>2011-11-30T20:23:34Z</time>
      </trkpt>
      <trkpt lat="32.801835" lon="34.957421">
        <ele>30.0</ele>
        <time>2011-11-30T20:23:38Z</time>
      </trkpt>
      <trkpt lat="32.801539" lon="34.957402">
        <ele>30.0</ele>
        <time>2011-11-30T20:23:47Z</time>
      </trkpt>
      <trkpt lat="32.801398" lon="34.957388">
        <ele>29.0</ele>
        <time>2011-11-30T20:23:51Z</time>
      </trkpt>
      <trkpt lat="32.801261" lon="34.957367">
        <ele>29.0</ele>
        <time>2011-11-30T20:23:55Z</time>
      </trkpt>
      <trkpt lat="32.801169" lon="34.957347">
        <ele>29.0</ele>
        <time>2011-11-30T20:23:58Z</time>
      </trkpt>
      <trkpt lat="32.801078" lon="34.957326">
        <ele>29.0</ele>
        <time>2011-11-30T20:24:01Z</time>
      </trkpt>
      <trkpt lat="32.800913" lon="34.957268">
        <ele>29.0</ele>
        <time>2011-11-30T20:24:07Z</time>
      </trkpt>
      <trkpt lat="32.800825" lon="34.95725">
        <ele>29.0</ele>
        <time>2011-11-30T20:24:10Z</time>
      </trkpt>
      <trkpt lat="32.800679" lon="34.95724">
        <ele>29.0</ele>
        <time>2011-11-30T20:24:15Z</time>
      </trkpt>
      <trkpt lat="32.800591" lon="34.957241">
        <ele>29.0</ele>
        <time>2011-11-30T20:24:18Z</time>
      </trkpt>
      <trkpt lat="32.800502" lon="34.957245">
        <ele>29.0</ele>
        <time>2011-11-30T20:24:21Z</time>
      </trkpt>
      <trkpt lat="32.800416" lon="34.957253">
        <ele>29.0</ele>
        <time>2011-11-30T20:24:24Z</time>
      </trkpt>
      <trkpt lat="32.800169" lon="34.957262">
        <ele>29.0</ele>
        <time>2011-11-30T20:24:32Z</time>
      </trkpt>
      <trkpt lat="32.800011" lon="34.957267">
        <ele>29.0</ele>
        <time>2011-11-30T20:24:37Z</time>
      </trkpt>
      <trkpt lat="32.799843" lon="34.957268">
        <ele>29.0</ele>
        <time>2011-11-30T20:24:43Z</time>
      </trkpt>
      <trkpt lat="32.799759" lon="34.957266">
        <ele>29.0</ele>
        <time>2011-11-30T20:24:46Z</time>
      </trkpt>
      <trkpt lat="32.799675" lon="34.957264">
        <ele>29.0</ele>
        <time>2011-11-30T20:24:49Z</time>
      </trkpt>
      <trkpt lat="32.79951" lon="34.957267">
        <ele>29.0</ele>
        <time>2011-11-30T20:24:55Z</time>
      </trkpt>
      <trkpt lat="32.799433" lon="34.95727">
        <ele>29.0</ele>
        <time>2011-11-30T20:24:58Z</time>
      </trkpt>
      <trkpt lat="32.799344" lon="34.957267">
        <ele>29.0</ele>
        <time>2011-11-30T20:25:01Z</time>
      </trkpt>
      <trkpt lat="32.799033" lon="34.957228">
        <ele>28.0</ele>
        <time>2011-11-30T20:25:11Z</time>
      </trkpt>
      <trkpt lat="32.798879" lon="34.957196">
        <ele>28.0</ele>
        <time>2011-11-30T20:25:15Z</time>
      </trkpt>
      <trkpt lat="32.798732" lon="34.957166">
        <ele>28.0</ele>
        <time>2011-11-30T20:25:19Z</time>
      </trkpt>
      <trkpt lat="32.798565" lon="34.957129">
        <ele>26.0</ele>
        <time>2011-11-30T20:25:23Z</time>
      </trkpt>
      <trkpt lat="32.798369" lon="34.957094">
        <ele>26.0</ele>
        <time>2011-11-30T20:25:27Z</time>
      </trkpt>
      <trkpt lat="32.798163" lon="34.957086">
        <ele>25.0</ele>
        <time>2011-11-30T20:25:31Z</time>
      </trkpt>
      <trkpt lat="32.797999" lon="34.957098">
        <ele>25.0</ele>
        <time>2011-11-30T20:25:35Z</time>
      </trkpt>
      <trkpt lat="32.797934" lon="34.957151">
        <ele>25.0</ele>
        <time>2011-11-30T20:25:38Z</time>
      </trkpt>
      <trkpt lat="32.797873" lon="34.957179">
        <ele>25.0</ele>
        <time>2011-11-30T20:25:40Z</time>
      </trkpt>
      <trkpt lat="32.797705" lon="34.9572">
        <ele>25.0</ele>
        <time>2011-11-30T20:25:47Z</time>
      </trkpt>
      <trkpt lat="32.797614" lon="34.957206">
        <ele>25.0</ele>
        <time>2011-11-30T20:25:50Z</time>
      </trkpt>
      <trkpt lat="32.797368" lon="34.957193">
        <ele>25.0</ele>
        <time>2011-11-30T20:25:58Z</time>
      </trkpt>
      <trkpt lat="32.79714" lon="34.957178">
        <ele>25.0</ele>
        <time>2011-11-30T20:26:07Z</time>
      </trkpt>
      <trkpt lat="32.79705" lon="34.957168">
        <ele>25.0</ele>
        <time>2011-11-30T20:26:10Z</time>
      </trkpt>
      <trkpt lat="32.796966" lon="34.957154">
        <ele>25.0</ele>
        <time>2011-11-30T20:26:13Z</time>
      </trkpt>
      <trkpt lat="32.796878" lon="34.957141">
        <ele>25.0</ele>
        <time>2011-11-30T20:26:16Z</time>
      </trkpt>
      <trkpt lat="32.796642" lon="34.95716">
        <ele>25.0</ele>
        <time>2011-11-30T20:26:26Z</time>
      </trkpt>
      <trkpt lat="32.796564" lon="34.957166">
        <ele>25.0</ele>
        <time>2011-11-30T20:26:29Z</time>
      </trkpt>
      <trkpt lat="32.796401" lon="34.957164">
        <ele>25.0</ele>
        <time>2011-11-30T20:26:35Z</time>
      </trkpt>
      <trkpt lat="32.796326" lon="34.957155">
        <ele>25.0</ele>
        <time>2011-11-30T20:26:38Z</time>
      </trkpt>
      <trkpt lat="32.796109" lon="34.95717">
        <ele>26.0</ele>
        <time>2011-11-30T20:26:47Z</time>
      </trkpt>
      <trkpt lat="32.796035" lon="34.957173">
        <ele>26.0</ele>
        <time>2011-11-30T20:26:50Z</time>
      </trkpt>
      <trkpt lat="32.795959" lon="34.957177">
        <ele>26.0</ele>
        <time>2011-11-30T20:26:53Z</time>
      </trkpt>
      <trkpt lat="32.795728" lon="34.95717">
        <ele>26.0</ele>
        <time>2011-11-30T20:27:02Z</time>
      </trkpt>
      <trkpt lat="32.795651" lon="34.957169">
        <ele>26.0</ele>
        <time>2011-11-30T20:27:05Z</time>
      </trkpt>
      <trkpt lat="32.795494" lon="34.957156">
        <ele>26.0</ele>
        <time>2011-11-30T20:27:11Z</time>
      </trkpt>
      <trkpt lat="32.795406" lon="34.95715">
        <ele>26.0</ele>
        <time>2011-11-30T20:27:14Z</time>
      </trkpt>
      <trkpt lat="32.795318" lon="34.957142">
        <ele>26.0</ele>
        <time>2011-11-30T20:27:17Z</time>
      </trkpt>
      <trkpt lat="32.795146" lon="34.957136">
        <ele>26.0</ele>
        <time>2011-11-30T20:27:23Z</time>
      </trkpt>
      <trkpt lat="32.795071" lon="34.957143">
        <ele>27.0</ele>
        <time>2011-11-30T20:27:25Z</time>
      </trkpt>
      <trkpt lat="32.794996" lon="34.957152">
        <ele>27.0</ele>
        <time>2011-11-30T20:27:35Z</time>
      </trkpt>
      <trkpt lat="32.794695" lon="34.957167">
        <ele>27.0</ele>
        <time>2011-11-30T20:27:47Z</time>
      </trkpt>
      <trkpt lat="32.794615" lon="34.957164">
        <ele>27.0</ele>
        <time>2011-11-30T20:27:50Z</time>
      </trkpt>
      <trkpt lat="32.794543" lon="34.957154">
        <ele>27.0</ele>
        <time>2011-11-30T20:27:53Z</time>
      </trkpt>
      <trkpt lat="32.794463" lon="34.957136">
        <ele>27.0</ele>
        <time>2011-11-30T20:27:55Z</time>
      </trkpt>
      <trkpt lat="32.794294" lon="34.956951">
        <ele>28.0</ele>
        <time>2011-11-30T20:28:05Z</time>
      </trkpt>
      <trkpt lat="32.794314" lon="34.95676">
        <ele>28.0</ele>
        <time>2011-11-30T20:28:10Z</time>
      </trkpt>
      <trkpt lat="32.79441" lon="34.956656">
        <ele>27.0</ele>
        <time>2011-11-30T20:28:14Z</time>
      </trkpt>
      <trkpt lat="32.794489" lon="34.956617">
        <ele>27.0</ele>
        <time>2011-11-30T20:28:17Z</time>
      </trkpt>
      <trkpt lat="32.794641" lon="34.956648">
        <ele>27.0</ele>
        <time>2011-11-30T20:28:23Z</time>
      </trkpt>
      <trkpt lat="32.794711" lon="34.956702">
        <ele>27.0</ele>
        <time>2011-11-30T20:28:25Z</time>
      </trkpt>
      <trkpt lat="32.79476" lon="34.956795">
        <ele>27.0</ele>
        <time>2011-11-30T20:28:29Z</time>
      </trkpt>
      <trkpt lat="32.794791" lon="34.956988">
        <ele>28.0</ele>
        <time>2011-11-30T20:28:35Z</time>
      </trkpt>
      <trkpt lat="32.794795" lon="34.9571">
        <ele>28.0</ele>
        <time>2011-11-30T20:28:38Z</time>
      </trkpt>
      <trkpt lat="32.794789" lon="34.957207">
        <ele>28.0</ele>
        <time>2011-11-30T20:28:40Z</time>
      </trkpt>
      <trkpt lat="32.794775" lon="34.95743">
        <ele>28.0</ele>
        <time>2011-11-30T20:28:47Z</time>
      </trkpt>
      <trkpt lat="32.794769" lon="34.95759">
        <ele>28.0</ele>
        <time>2011-11-30T20:28:51Z</time>
      </trkpt>
      <trkpt lat="32.794763" lon="34.957741">
        <ele>28.0</ele>
        <time>2011-11-30T20:28:55Z</time>
      </trkpt>
      <trkpt lat="32.794741" lon="34.957849">
        <ele>28.0</ele>
        <time>2011-11-30T20:28:58Z</time>
      </trkpt>
      <trkpt lat="32.794623" lon="34.957995">
        <ele>28.0</ele>
        <time>2011-11-30T20:29:03Z</time>
      </trkpt>
      <trkpt lat="32.794557" lon="34.958035">
        <ele>28.0</ele>
        <time>2011-11-30T20:29:05Z</time>
      </trkpt>
      <trkpt lat="32.794291" lon="34.957996">
        <ele>29.0</ele>
        <time>2011-11-30T20:29:10Z</time>
      </trkpt>
      <trkpt lat="32.794108" lon="34.957943">
        <ele>29.0</ele>
        <time>2011-11-30T20:29:15Z</time>
      </trkpt>
      <trkpt lat="32.793893" lon="34.957889">
        <ele>28.0</ele>
        <time>2011-11-30T20:29:19Z</time>
      </trkpt>
      <trkpt lat="32.793703" lon="34.957845">
        <ele>28.0</ele>
        <time>2011-11-30T20:29:22Z</time>
      </trkpt>
      <trkpt lat="32.793457" lon="34.957825">
        <ele>28.0</ele>
        <time>2011-11-30T20:29:25Z</time>
      </trkpt>
      <trkpt lat="32.793339" lon="34.957819">
        <ele>28.0</ele>
        <time>2011-11-30T20:29:28Z</time>
      </trkpt>
      <trkpt lat="32.793002" lon="34.957796">
        <ele>33.0</ele>
        <time>2011-11-30T20:29:34Z</time>
      </trkpt>
      <trkpt lat="32.792825" lon="34.957756">
        <ele>34.0</ele>
        <time>2011-11-30T20:29:38Z</time>
      </trkpt>
      <trkpt lat="32.792644" lon="34.95772">
        <ele>34.0</ele>
        <time>2011-11-30T20:29:42Z</time>
      </trkpt>
      <trkpt lat="32.792457" lon="34.957692">
        <ele>34.0</ele>
        <time>2011-11-30T20:29:46Z</time>
      </trkpt>
      <trkpt lat="32.79236" lon="34.957669">
        <ele>32.0</ele>
        <time>2011-11-30T20:29:48Z</time>
      </trkpt>
      <trkpt lat="32.792078" lon="34.957658">
        <ele>30.0</ele>
        <time>2011-11-30T20:29:54Z</time>
      </trkpt>
      <trkpt lat="32.79189" lon="34.957713">
        <ele>30.0</ele>
        <time>2011-11-30T20:29:58Z</time>
      </trkpt>
      <trkpt lat="32.791794" lon="34.957771">
        <ele>30.0</ele>
        <time>2011-11-30T20:30:00Z</time>
      </trkpt>
      <trkpt lat="32.791534" lon="34.95797">
        <ele>30.0</ele>
        <time>2011-11-30T20:30:06Z</time>
      </trkpt>
      <trkpt lat="32.791359" lon="34.958114">
        <ele>30.0</ele>
        <time>2011-11-30T20:30:10Z</time>
      </trkpt>
      <trkpt lat="32.791287" lon="34.958176">
        <ele>31.0</ele>
        <time>2011-11-30T20:30:11Z</time>
      </trkpt>
      <trkpt lat="32.791068" lon="34.958377">
        <ele>30.0</ele>
        <time>2011-11-30T20:30:18Z</time>
      </trkpt>
      <trkpt lat="32.790928" lon="34.958481">
        <ele>30.0</ele>
        <time>2011-11-30T20:30:22Z</time>
      </trkpt>
      <trkpt lat="32.790639" lon="34.958584">
        <ele>30.0</ele>
        <time>2011-11-30T20:30:30Z</time>
      </trkpt>
      <trkpt lat="32.7905" lon="34.958593">
        <ele>29.0</ele>
        <time>2011-11-30T20:30:34Z</time>
      </trkpt>
      <trkpt lat="32.790371" lon="34.958625">
        <ele>29.0</ele>
        <time>2011-11-30T20:30:38Z</time>
      </trkpt>
      <trkpt lat="32.790286" lon="34.958792">
        <ele>29.0</ele>
        <time>2011-11-30T20:30:42Z</time>
      </trkpt>
      <trkpt lat="32.790181" lon="34.958965">
        <ele>30.0</ele>
        <time>2011-11-30T20:30:46Z</time>
      </trkpt>
      <trkpt lat="32.7901" lon="34.959151">
        <ele>30.0</ele>
        <time>2011-11-30T20:30:50Z</time>
      </trkpt>
      <trkpt lat="32.79008" lon="34.959362">
        <ele>30.0</ele>
        <time>2011-11-30T20:30:54Z</time>
      </trkpt>
      <trkpt lat="32.790079" lon="34.959471">
        <ele>30.0</ele>
        <time>2011-11-30T20:30:55Z</time>
      </trkpt>
      <trkpt lat="32.790093" lon="34.959821">
        <ele>30.0</ele>
        <time>2011-11-30T20:31:02Z</time>
      </trkpt>
      <trkpt lat="32.790105" lon="34.960043">
        <ele>29.0</ele>
        <time>2011-11-30T20:31:06Z</time>
      </trkpt>
      <trkpt lat="32.790152" lon="34.960241">
        <ele>29.0</ele>
        <time>2011-11-30T20:31:10Z</time>
      </trkpt>
      <trkpt lat="32.790177" lon="34.960424">
        <ele>29.0</ele>
        <time>2011-11-30T20:31:15Z</time>
      </trkpt>
      <trkpt lat="32.790197" lon="34.960638">
        <ele>29.0</ele>
        <time>2011-11-30T20:31:19Z</time>
      </trkpt>
      <trkpt lat="32.790214" lon="34.960844">
        <ele>29.0</ele>
        <time>2011-11-30T20:31:23Z</time>
      </trkpt>
      <trkpt lat="32.790217" lon="34.960942">
        <ele>29.0</ele>
        <time>2011-11-30T20:31:25Z</time>
      </trkpt>
      <trkpt lat="32.790234" lon="34.961215">
        <ele>29.0</ele>
        <time>2011-11-30T20:31:30Z</time>
      </trkpt>
      <trkpt lat="32.790255" lon="34.961397">
        <ele>31.0</ele>
        <time>2011-11-30T20:31:34Z</time>
      </trkpt>
      <trkpt lat="32.790265" lon="34.961495">
        <ele>33.0</ele>
        <time>2011-11-30T20:31:37Z</time>
      </trkpt>
      <trkpt lat="32.790294" lon="34.961776">
        <ele>35.0</ele>
        <time>2011-11-30T20:31:43Z</time>
      </trkpt>
      <trkpt lat="32.790282" lon="34.961872">
        <ele>35.0</ele>
        <time>2011-11-30T20:31:44Z</time>
      </trkpt>
      <trkpt lat="32.790261" lon="34.962057">
        <ele>35.0</ele>
        <time>2011-11-30T20:31:50Z</time>
      </trkpt>
      <trkpt lat="32.790261" lon="34.962057">
        <time>2011-11-30T20:32:02Z</time>
      </trkpt>
    </trkseg>
    <trkseg>
      <trkpt lat="32.790261" lon="34.962057">
        <time>2011-11-30T20:32:29Z</time>
      </trkpt>
      <trkpt lat="32.790256" lon="34.962322">
        <ele>35.0</ele>
        <time>2011-11-30T20:32:33Z</time>
      </trkpt>
      <trkpt lat="32.790242" lon="34.96249">
        <ele>35.0</ele>
        <time>2011-11-30T20:32:37Z</time>
      </trkpt>
      <trkpt lat="32.790238" lon="34.962647">
        <ele>35.0</ele>
        <time>2011-11-30T20:32:41Z</time>
      </trkpt>
      <trkpt lat="32.790243" lon="34.962798">
        <ele>35.0</ele>
        <time>2011-11-30T20:32:45Z</time>
      </trkpt>
      <trkpt lat="32.79021" lon="34.962978">
        <ele>36.0</ele>
        <time>2011-11-30T20:32:50Z</time>
      </trkpt>
      <trkpt lat="32.790195" lon="34.963085">
        <ele>36.0</ele>
        <time>2011-11-30T20:32:53Z</time>
      </trkpt>
      <trkpt lat="32.790188" lon="34.963162">
        <ele>36.0</ele>
        <time>2011-11-30T20:32:55Z</time>
      </trkpt>
      <trkpt lat="32.790171" lon="34.96337">
        <ele>36.0</ele>
        <time>2011-11-30T20:33:02Z</time>
      </trkpt>
      <trkpt lat="32.790191" lon="34.963559">
        <ele>36.0</ele>
        <time>2011-11-30T20:33:07Z</time>
      </trkpt>
      <trkpt lat="32.790206" lon="34.963887">
        <ele>36.0</ele>
        <time>2011-11-30T20:33:14Z</time>
      </trkpt>
      <trkpt lat="32.79021" lon="34.964053">
        <ele>36.0</ele>
        <time>2011-11-30T20:33:19Z</time>
      </trkpt>
      <trkpt lat="32.790231" lon="34.964361">
        <ele>36.0</ele>
        <time>2011-11-30T20:33:28Z</time>
      </trkpt>
      <trkpt lat="32.790234" lon="34.964546">
        <ele>36.0</ele>
        <time>2011-11-30T20:33:33Z</time>
      </trkpt>
      <trkpt lat="32.790258" lon="34.964808">
        <ele>36.0</ele>
        <time>2011-11-30T20:33:43Z</time>
      </trkpt>
      <trkpt lat="32.790254" lon="34.964913">
        <ele>36.0</ele>
        <time>2011-11-30T20:33:46Z</time>
      </trkpt>
      <trkpt lat="32.790245" lon="34.965016">
        <ele>37.0</ele>
        <time>2011-11-30T20:33:49Z</time>
      </trkpt>
      <trkpt lat="32.790229" lon="34.965217">
        <ele>37.0</ele>
        <time>2011-11-30T20:33:54Z</time>
      </trkpt>
      <trkpt lat="32.790218" lon="34.965486">
        <ele>37.9999</ele>
        <time>2011-11-30T20:34:05Z</time>
      </trkpt>
      <trkpt lat="32.790209" lon="34.965587">
        <ele>37.9999</ele>
        <time>2011-11-30T20:34:10Z</time>
      </trkpt>
      <trkpt lat="32.790202" lon="34.965696">
        <ele>37.9999</ele>
        <time>2011-11-30T20:34:13Z</time>
      </trkpt>
      <trkpt lat="32.7902" lon="34.965895">
        <ele>38.0</ele>
        <time>2011-11-30T20:34:19Z</time>
      </trkpt>
      <trkpt lat="32.790203" lon="34.965988">
        <ele>38.0</ele>
        <time>2011-11-30T20:34:22Z</time>
      </trkpt>
      <trkpt lat="32.790209" lon="34.966083">
        <ele>39.0</ele>
        <time>2011-11-30T20:34:25Z</time>
      </trkpt>
      <trkpt lat="32.790208" lon="34.966303">
        <ele>38.9999</ele>
        <time>2011-11-30T20:34:31Z</time>
      </trkpt>
      <trkpt lat="32.790196" lon="34.966456">
        <ele>38.9999</ele>
        <time>2011-11-30T20:34:34Z</time>
      </trkpt>
      <trkpt lat="32.790186" lon="34.966628">
        <ele>39.9999</ele>
        <time>2011-11-30T20:34:38Z</time>
      </trkpt>
      <trkpt lat="32.79016" lon="34.966828">
        <ele>39.9999</ele>
        <time>2011-11-30T20:34:42Z</time>
      </trkpt>
      <trkpt lat="32.790013" lon="34.967213">
        <ele>40.0</ele>
        <time>2011-11-30T20:34:53Z</time>
      </trkpt>
      <trkpt lat="32.789975" lon="34.967277">
        <ele>40.0</ele>
        <time>2011-11-30T20:34:55Z</time>
      </trkpt>
      <trkpt lat="32.789845" lon="34.967466">
        <ele>40.0</ele>
        <time>2011-11-30T20:35:01Z</time>
      </trkpt>
      <trkpt lat="32.789745" lon="34.967583">
        <ele>41.0</ele>
        <time>2011-11-30T20:35:05Z</time>
      </trkpt>
      <trkpt lat="32.789688" lon="34.967637">
        <ele>41.0</ele>
        <time>2011-11-30T20:35:08Z</time>
      </trkpt>
      <trkpt lat="32.789513" lon="34.96777">
        <ele>41.0</ele>
        <time>2011-11-30T20:35:14Z</time>
      </trkpt>
      <trkpt lat="32.789444" lon="34.967809">
        <ele>41.0</ele>
        <time>2011-11-30T20:35:17Z</time>
      </trkpt>
      <trkpt lat="32.789375" lon="34.967865">
        <ele>41.0</ele>
        <time>2011-11-30T20:35:20Z</time>
      </trkpt>
      <trkpt lat="32.789191" lon="34.968083">
        <ele>41.0</ele>
        <time>2011-11-30T20:35:29Z</time>
      </trkpt>
      <trkpt lat="32.78913" lon="34.968148">
        <ele>42.0</ele>
        <time>2011-11-30T20:35:32Z</time>
      </trkpt>
      <trkpt lat="32.789007" lon="34.968272">
        <ele>42.0</ele>
        <time>2011-11-30T20:35:38Z</time>
      </trkpt>
      <trkpt lat="32.788942" lon="34.968329">
        <ele>42.0</ele>
        <time>2011-11-30T20:35:41Z</time>
      </trkpt>
      <trkpt lat="32.788732" lon="34.968501">
        <ele>43.0</ele>
        <time>2011-11-30T20:35:50Z</time>
      </trkpt>
      <trkpt lat="32.788664" lon="34.968571">
        <ele>43.0</ele>
        <time>2011-11-30T20:35:53Z</time>
      </trkpt>
      <trkpt lat="32.788457" lon="34.96875">
        <ele>43.0</ele>
        <time>2011-11-30T20:36:02Z</time>
      </trkpt>
      <trkpt lat="32.788283" lon="34.968957">
        <ele>44.0</ele>
        <time>2011-11-30T20:36:11Z</time>
      </trkpt>
      <trkpt lat="32.788229" lon="34.969028">
        <ele>44.0</ele>
        <time>2011-11-30T20:36:14Z</time>
      </trkpt>
      <trkpt lat="32.788177" lon="34.9691">
        <ele>44.0</ele>
        <time>2011-11-30T20:36:17Z</time>
      </trkpt>
      <trkpt lat="32.788067" lon="34.969223">
        <ele>44.0</ele>
        <time>2011-11-30T20:36:23Z</time>
      </trkpt>
      <trkpt lat="32.788012" lon="34.969281">
        <ele>45.0</ele>
        <time>2011-11-30T20:36:26Z</time>
      </trkpt>
      <trkpt lat="32.787961" lon="34.969341">
        <ele>45.0</ele>
        <time>2011-11-30T20:36:29Z</time>
      </trkpt>
      <trkpt lat="32.787895" lon="34.969522">
        <ele>44.9999</ele>
        <time>2011-11-30T20:36:35Z</time>
      </trkpt>
      <trkpt lat="32.787859" lon="34.969616">
        <ele>45.9999</ele>
        <time>2011-11-30T20:36:38Z</time>
      </trkpt>
      <trkpt lat="32.787821" lon="34.969705">
        <ele>45.9999</ele>
        <time>2011-11-30T20:36:41Z</time>
      </trkpt>
      <trkpt lat="32.787756" lon="34.969882">
        <ele>47.0</ele>
        <time>2011-11-30T20:36:47Z</time>
      </trkpt>
      <trkpt lat="32.787733" lon="34.96997">
        <ele>47.0</ele>
        <time>2011-11-30T20:36:49Z</time>
      </trkpt>
      <trkpt lat="32.787711" lon="34.970064">
        <ele>47.0</ele>
        <time>2011-11-30T20:36:53Z</time>
      </trkpt>
      <trkpt lat="32.787676" lon="34.970244">
        <ele>48.0</ele>
        <time>2011-11-30T20:36:58Z</time>
      </trkpt>
      <trkpt lat="32.787662" lon="34.970322">
        <ele>49.0</ele>
        <time>2011-11-30T20:37:02Z</time>
      </trkpt>
      <trkpt lat="32.787641" lon="34.970396">
        <ele>50.0</ele>
        <time>2011-11-30T20:37:06Z</time>
      </trkpt>
      <trkpt lat="32.787632" lon="34.970472">
        <ele>51.0002</ele>
        <time>2011-11-30T20:37:15Z</time>
      </trkpt>
      <trkpt lat="32.787632" lon="34.970472">
        <time>2011-11-30T20:37:26Z</time>
      </trkpt>
    </trkseg>
    <trkseg>
      <trkpt lat="32.787632" lon="34.970472">
        <time>2011-11-30T20:39:42Z</time>
      </trkpt>
      <trkpt lat="32.787702" lon="34.970613">
        <ele>55.9996</ele>
        <time>2011-11-30T20:39:45Z</time>
      </trkpt>
      <trkpt lat="32.787664" lon="34.970824">
        <ele>57.9998</ele>
        <time>2011-11-30T20:39:51Z</time>
      </trkpt>
      <trkpt lat="32.787639" lon="34.97093">
        <ele>57.9998</ele>
        <time>2011-11-30T20:39:54Z</time>
      </trkpt>
      <trkpt lat="32.787618" lon="34.971046">
        <ele>58.9999</ele>
        <time>2011-11-30T20:39:57Z</time>
      </trkpt>
      <trkpt lat="32.787601" lon="34.971256">
        <ele>60.0</ele>
        <time>2011-11-30T20:40:03Z</time>
      </trkpt>
      <trkpt lat="32.787594" lon="34.97135">
        <ele>60.0</ele>
        <time>2011-11-30T20:40:06Z</time>
      </trkpt>
      <trkpt lat="32.787586" lon="34.971446">
        <ele>61.0</ele>
        <time>2011-11-30T20:40:09Z</time>
      </trkpt>
      <trkpt lat="32.787568" lon="34.971629">
        <ele>62.0</ele>
        <time>2011-11-30T20:40:15Z</time>
      </trkpt>
      <trkpt lat="32.787553" lon="34.971717">
        <ele>63.0</ele>
        <time>2011-11-30T20:40:18Z</time>
      </trkpt>
      <trkpt lat="32.787543" lon="34.971805">
        <ele>63.0</ele>
        <time>2011-11-30T20:40:21Z</time>
      </trkpt>
      <trkpt lat="32.787515" lon="34.971967">
        <ele>64.0</ele>
        <time>2011-11-30T20:40:27Z</time>
      </trkpt>
      <trkpt lat="32.787504" lon="34.972047">
        <ele>65.0</ele>
        <time>2011-11-30T20:40:30Z</time>
      </trkpt>
      <trkpt lat="32.787494" lon="34.972122">
        <ele>65.0</ele>
        <time>2011-11-30T20:40:33Z</time>
      </trkpt>
      <trkpt lat="32.787463" lon="34.972269">
        <ele>66.0</ele>
        <time>2011-11-30T20:40:39Z</time>
      </trkpt>
      <trkpt lat="32.787379" lon="34.972475">
        <ele>67.0001</ele>
        <time>2011-11-30T20:40:48Z</time>
      </trkpt>
      <trkpt lat="32.787337" lon="34.972559">
        <ele>68.0001</ele>
        <time>2011-11-30T20:40:52Z</time>
      </trkpt>
      <trkpt lat="32.787292" lon="34.972636">
        <ele>68.0001</ele>
        <time>2011-11-30T20:40:56Z</time>
      </trkpt>
      <trkpt lat="32.787243" lon="34.972713">
        <ele>69.0001</ele>
        <time>2011-11-30T20:41:00Z</time>
      </trkpt>
      <trkpt lat="32.78719" lon="34.972785">
        <ele>69.0</ele>
        <time>2011-11-30T20:41:04Z</time>
      </trkpt>
      <trkpt lat="32.787138" lon="34.972856">
        <ele>70.0</ele>
        <time>2011-11-30T20:41:08Z</time>
      </trkpt>
      <trkpt lat="32.787081" lon="34.972916">
        <ele>70.0001</ele>
        <time>2011-11-30T20:41:12Z</time>
      </trkpt>
      <trkpt lat="32.787022" lon="34.972965">
        <ele>70.0001</ele>
        <time>2011-11-30T20:41:16Z</time>
      </trkpt>
      <trkpt lat="32.786958" lon="34.973004">
        <ele>71.0001</ele>
        <time>2011-11-30T20:41:20Z</time>
      </trkpt>
      <trkpt lat="32.786892" lon="34.973039">
        <ele>71.0001</ele>
        <time>2011-11-30T20:41:24Z</time>
      </trkpt>
      <trkpt lat="32.786828" lon="34.973072">
        <ele>71.0001</ele>
        <time>2011-11-30T20:41:28Z</time>
      </trkpt>
      <trkpt lat="32.786757" lon="34.973087">
        <ele>72.0001</ele>
        <time>2011-11-30T20:41:32Z</time>
      </trkpt>
      <trkpt lat="32.786684" lon="34.973093">
        <ele>72.0001</ele>
        <time>2011-11-30T20:41:36Z</time>
      </trkpt>
      <trkpt lat="32.78645" lon="34.973061">
        <ele>73.0001</ele>
        <time>2011-11-30T20:41:47Z</time>
      </trkpt>
      <trkpt lat="32.78625" lon="34.973019">
        <ele>73.0</ele>
        <time>2011-11-30T20:41:56Z</time>
      </trkpt>
      <trkpt lat="32.78618" lon="34.973008">
        <ele>73.0001</ele>
        <time>2011-11-30T20:42:00Z</time>
      </trkpt>
      <trkpt lat="32.785962" lon="34.972976">
        <ele>74.0</ele>
        <time>2011-11-30T20:42:11Z</time>
      </trkpt>
      <trkpt lat="32.785748" lon="34.97294">
        <ele>74.0</ele>
        <time>2011-11-30T20:42:21Z</time>
      </trkpt>
      <trkpt lat="32.785682" lon="34.972931">
        <ele>74.0</ele>
        <time>2011-11-30T20:42:24Z</time>
      </trkpt>
      <trkpt lat="32.785529" lon="34.972912">
        <ele>74.9998</ele>
        <time>2011-11-30T20:42:31Z</time>
      </trkpt>
      <trkpt lat="32.785463" lon="34.972907">
        <ele>75.9998</ele>
        <time>2011-11-30T20:42:34Z</time>
      </trkpt>
      <trkpt lat="32.785332" lon="34.972905">
        <ele>76.9998</ele>
        <time>2011-11-30T20:42:40Z</time>
      </trkpt>
      <trkpt lat="32.785265" lon="34.972903">
        <ele>77.9998</ele>
        <time>2011-11-30T20:42:43Z</time>
      </trkpt>
      <trkpt lat="32.785198" lon="34.972903">
        <ele>77.9998</ele>
        <time>2011-11-30T20:42:46Z</time>
      </trkpt>
      <trkpt lat="32.785064" lon="34.972901">
        <ele>78.9999</ele>
        <time>2011-11-30T20:42:52Z</time>
      </trkpt>
      <trkpt lat="32.784995" lon="34.972906">
        <ele>78.9999</ele>
        <time>2011-11-30T20:42:55Z</time>
      </trkpt>
      <trkpt lat="32.784783" lon="34.972922">
        <ele>80.9999</ele>
        <time>2011-11-30T20:43:05Z</time>
      </trkpt>
      <trkpt lat="32.784697" lon="34.972928">
        <ele>81.9999</ele>
        <time>2011-11-30T20:43:09Z</time>
      </trkpt>
      <trkpt lat="32.784617" lon="34.972939">
        <ele>81.9999</ele>
        <time>2011-11-30T20:43:13Z</time>
      </trkpt>
      <trkpt lat="32.784489" lon="34.972958">
        <ele>82.9998</ele>
        <time>2011-11-30T20:43:19Z</time>
      </trkpt>
      <trkpt lat="32.784422" lon="34.972981">
        <ele>82.9998</ele>
        <time>2011-11-30T20:43:22Z</time>
      </trkpt>
      <trkpt lat="32.784281" lon="34.973044">
        <ele>83.9997</ele>
        <time>2011-11-30T20:43:28Z</time>
      </trkpt>
      <trkpt lat="32.784207" lon="34.973089">
        <ele>83.9996</ele>
        <time>2011-11-30T20:43:31Z</time>
      </trkpt>
      <trkpt lat="32.784132" lon="34.973143">
        <ele>83.9996</ele>
        <time>2011-11-30T20:43:34Z</time>
      </trkpt>
      <trkpt lat="32.783976" lon="34.973259">
        <ele>84.9996</ele>
        <time>2011-11-30T20:43:40Z</time>
      </trkpt>
      <trkpt lat="32.783896" lon="34.973319">
        <ele>84.9996</ele>
        <time>2011-11-30T20:43:43Z</time>
      </trkpt>
      <trkpt lat="32.783785" lon="34.973396">
        <ele>84.9996</ele>
        <time>2011-11-30T20:43:47Z</time>
      </trkpt>
      <trkpt lat="32.783659" lon="34.973462">
        <ele>85.9997</ele>
        <time>2011-11-30T20:43:51Z</time>
      </trkpt>
      <trkpt lat="32.783531" lon="34.97352">
        <ele>85.9997</ele>
        <time>2011-11-30T20:43:55Z</time>
      </trkpt>
      <trkpt lat="32.783443" lon="34.973565">
        <ele>86.9997</ele>
        <time>2011-11-30T20:43:58Z</time>
      </trkpt>
      <trkpt lat="32.783302" lon="34.973651">
        <ele>86.9996</ele>
        <time>2011-11-30T20:44:03Z</time>
      </trkpt>
      <trkpt lat="32.783195" lon="34.973731">
        <ele>87.9996</ele>
        <time>2011-11-30T20:44:07Z</time>
      </trkpt>
      <trkpt lat="32.783144" lon="34.973776">
        <ele>87.9996</ele>
        <time>2011-11-30T20:44:09Z</time>
      </trkpt>
      <trkpt lat="32.783006" lon="34.973924">
        <ele>88.9998</ele>
        <time>2011-11-30T20:44:15Z</time>
      </trkpt>
      <trkpt lat="32.782944" lon="34.973993">
        <ele>89.9997</ele>
        <time>2011-11-30T20:44:18Z</time>
      </trkpt>
      <trkpt lat="32.782816" lon="34.974136">
        <ele>90.9998</ele>
        <time>2011-11-30T20:44:24Z</time>
      </trkpt>
      <trkpt lat="32.782759" lon="34.974215">
        <ele>90.9998</ele>
        <time>2011-11-30T20:44:27Z</time>
      </trkpt>
      <trkpt lat="32.782706" lon="34.974298">
        <ele>91.9998</ele>
        <time>2011-11-30T20:44:30Z</time>
      </trkpt>
      <trkpt lat="32.782603" lon="34.974458">
        <ele>92.9999</ele>
        <time>2011-11-30T20:44:36Z</time>
      </trkpt>
      <trkpt lat="32.782554" lon="34.974537">
        <ele>93.9999</ele>
        <time>2011-11-30T20:44:39Z</time>
      </trkpt>
      <trkpt lat="32.782505" lon="34.974617">
        <ele>95.0</ele>
        <time>2011-11-30T20:44:42Z</time>
      </trkpt>
      <trkpt lat="32.782359" lon="34.974855">
        <ele>96.9999</ele>
        <time>2011-11-30T20:44:51Z</time>
      </trkpt>
      <trkpt lat="32.782306" lon="34.974939">
        <ele>97.9999</ele>
        <time>2011-11-30T20:44:54Z</time>
      </trkpt>
      <trkpt lat="32.782259" lon="34.975022">
        <ele>99.9999</ele>
        <time>2011-11-30T20:44:57Z</time>
      </trkpt>
      <trkpt lat="32.78214" lon="34.975284">
        <ele>103.0</ele>
        <time>2011-11-30T20:45:06Z</time>
      </trkpt>
      <trkpt lat="32.782064" lon="34.97547">
        <ele>105.0</ele>
        <time>2011-11-30T20:45:12Z</time>
      </trkpt>
      <trkpt lat="32.782038" lon="34.975571">
        <ele>106.0</ele>
        <time>2011-11-30T20:45:15Z</time>
      </trkpt>
      <trkpt lat="32.78202" lon="34.975671">
        <ele>108.0</ele>
        <time>2011-11-30T20:45:18Z</time>
      </trkpt>
      <trkpt lat="32.781996" lon="34.975879">
        <ele>110.0</ele>
        <time>2011-11-30T20:45:24Z</time>
      </trkpt>
      <trkpt lat="32.781987" lon="34.975985">
        <ele>111.0</ele>
        <time>2011-11-30T20:45:27Z</time>
      </trkpt>
      <trkpt lat="32.781984" lon="34.976091">
        <ele>112.0</ele>
        <time>2011-11-30T20:45:30Z</time>
      </trkpt>
      <trkpt lat="32.781998" lon="34.976305">
        <ele>114.0</ele>
        <time>2011-11-30T20:45:36Z</time>
      </trkpt>
      <trkpt lat="32.782006" lon="34.97642">
        <ele>115.0</ele>
        <time>2011-11-30T20:45:39Z</time>
      </trkpt>
      <trkpt lat="32.78203" lon="34.976605">
        <ele>117.0</ele>
        <time>2011-11-30T20:45:44Z</time>
      </trkpt>
      <trkpt lat="32.782046" lon="34.976717">
        <ele>118.0</ele>
        <time>2011-11-30T20:45:47Z</time>
      </trkpt>
      <trkpt lat="32.782061" lon="34.97683">
        <ele>118.0</ele>
        <time>2011-11-30T20:45:50Z</time>
      </trkpt>
      <trkpt lat="32.782099" lon="34.977116">
        <ele>121.0</ele>
        <time>2011-11-30T20:45:58Z</time>
      </trkpt>
      <trkpt lat="32.782117" lon="34.977291">
        <ele>122.0</ele>
        <time>2011-11-30T20:46:03Z</time>
      </trkpt>
      <trkpt lat="32.782131" lon="34.977386">
        <ele>123.0</ele>
        <time>2011-11-30T20:46:05Z</time>
      </trkpt>
      <trkpt lat="32.782155" lon="34.977578">
        <ele>125.0</ele>
        <time>2011-11-30T20:46:12Z</time>
      </trkpt>
      <trkpt lat="32.782168" lon="34.977673">
        <ele>125.0</ele>
        <time>2011-11-30T20:46:15Z</time>
      </trkpt>
      <trkpt lat="32.782179" lon="34.977769">
        <ele>126.0</ele>
        <time>2011-11-30T20:46:18Z</time>
      </trkpt>
      <trkpt lat="32.78219" lon="34.977952">
        <ele>128.0</ele>
        <time>2011-11-30T20:46:24Z</time>
      </trkpt>
      <trkpt lat="32.782188" lon="34.978045">
        <ele>129.0</ele>
        <time>2011-11-30T20:46:27Z</time>
      </trkpt>
      <trkpt lat="32.78216" lon="34.978293">
        <ele>131.0</ele>
        <time>2011-11-30T20:46:36Z</time>
      </trkpt>
      <trkpt lat="32.782155" lon="34.97837">
        <ele>132.0</ele>
        <time>2011-11-30T20:46:39Z</time>
      </trkpt>
      <trkpt lat="32.782144" lon="34.978469">
        <ele>133.0</ele>
        <time>2011-11-30T20:46:43Z</time>
      </trkpt>
      <trkpt lat="32.78213" lon="34.978565">
        <ele>134.0</ele>
        <time>2011-11-30T20:46:47Z</time>
      </trkpt>
      <trkpt lat="32.782116" lon="34.978638">
        <ele>135.0</ele>
        <time>2011-11-30T20:46:50Z</time>
      </trkpt>
      <trkpt lat="32.782083" lon="34.978786">
        <ele>136.0</ele>
        <time>2011-11-30T20:46:56Z</time>
      </trkpt>
      <trkpt lat="32.782066" lon="34.978861">
        <ele>137.0</ele>
        <time>2011-11-30T20:46:59Z</time>
      </trkpt>
      <trkpt lat="32.782044" lon="34.978932">
        <ele>138.0</ele>
        <time>2011-11-30T20:47:02Z</time>
      </trkpt>
      <trkpt lat="32.781988" lon="34.97907">
        <ele>139.0</ele>
        <time>2011-11-30T20:47:08Z</time>
      </trkpt>
      <trkpt lat="32.781954" lon="34.979157">
        <ele>140.0</ele>
        <time>2011-11-30T20:47:12Z</time>
      </trkpt>
      <trkpt lat="32.781917" lon="34.979239">
        <ele>141.0</ele>
        <time>2011-11-30T20:47:16Z</time>
      </trkpt>
      <trkpt lat="32.781917" lon="34.979239">
        <time>2011-11-30T20:47:27Z</time>
      </trkpt>
    </trkseg>
    <trkseg>
      <trkpt lat="32.781917" lon="34.979239">
        <time>2011-11-30T20:47:28Z</time>
      </trkpt>
      <trkpt lat="32.781764" lon="34.979527">
        <ele>145.0</ele>
        <time>2011-11-30T20:47:32Z</time>
      </trkpt>
      <trkpt lat="32.781739" lon="34.979596">
        <ele>145.0</ele>
        <time>2011-11-30T20:47:36Z</time>
      </trkpt>
      <trkpt lat="32.781739" lon="34.979596">
        <time>2011-11-30T20:47:47Z</time>
      </trkpt>
    </trkseg>
    <trkseg>
      <trkpt lat="32.781739" lon="34.979596">
        <time>2011-11-30T20:47:49Z</time>
      </trkpt>
      <trkpt lat="32.781545" lon="34.979818">
        <ele>148.0</ele>
        <time>2011-11-30T20:47:53Z</time>
      </trkpt>
      <trkpt lat="32.781486" lon="34.979854">
        <ele>149.0</ele>
        <time>2011-11-30T20:47:57Z</time>
      </trkpt>
      <trkpt lat="32.781416" lon="34.979895">
        <ele>150.0</ele>
        <time>2011-11-30T20:48:02Z</time>
      </trkpt>
      <trkpt lat="32.781355" lon="34.97992">
        <ele>150.0</ele>
        <time>2011-11-30T20:48:06Z</time>
      </trkpt>
      <trkpt lat="32.781355" lon="34.97992">
        <time>2011-11-30T20:48:17Z</time>
      </trkpt>
    </trkseg>
    <trkseg>
      <trkpt lat="32.781355" lon="34.97992">
        <time>2011-11-30T20:48:18Z</time>
      </trkpt>
      <trkpt lat="32.781089" lon="34.979902">
        <ele>152.0</ele>
        <time>2011-11-30T20:48:22Z</time>
      </trkpt>
      <trkpt lat="32.781024" lon="34.979876">
        <ele>152.0</ele>
        <time>2011-11-30T20:48:26Z</time>
      </trkpt>
      <trkpt lat="32.780954" lon="34.979843">
        <ele>152.0</ele>
        <time>2011-11-30T20:48:30Z</time>
      </trkpt>
      <trkpt lat="32.780821" lon="34.979779">
        <ele>153.0</ele>
        <time>2011-11-30T20:48:36Z</time>
      </trkpt>
      <trkpt lat="32.780745" lon="34.979743">
        <ele>154.0</ele>
        <time>2011-11-30T20:48:39Z</time>
      </trkpt>
      <trkpt lat="32.78066" lon="34.9797">
        <ele>154.0</ele>
        <time>2011-11-30T20:48:42Z</time>
      </trkpt>
      <trkpt lat="32.780589" lon="34.979658">
        <ele>155.0</ele>
        <time>2011-11-30T20:48:45Z</time>
      </trkpt>
      <trkpt lat="32.780409" lon="34.97953">
        <ele>156.0</ele>
        <time>2011-11-30T20:48:54Z</time>
      </trkpt>
      <trkpt lat="32.780292" lon="34.979438">
        <ele>157.0</ele>
        <time>2011-11-30T20:49:00Z</time>
      </trkpt>
      <trkpt lat="32.780165" lon="34.979337">
        <ele>158.0</ele>
        <time>2011-11-30T20:49:08Z</time>
      </trkpt>
      <trkpt lat="32.780165" lon="34.979337">
        <time>2011-11-30T20:49:19Z</time>
      </trkpt>
    </trkseg>
    <trkseg>
      <trkpt lat="32.780165" lon="34.979337">
        <time>2011-11-30T20:49:20Z</time>
      </trkpt>
      <trkpt lat="32.779877" lon="34.979224">
        <ele>159.0</ele>
        <time>2011-11-30T20:49:24Z</time>
      </trkpt>
      <trkpt lat="32.779797" lon="34.979223">
        <ele>160.0</ele>
        <time>2011-11-30T20:49:28Z</time>
      </trkpt>
      <trkpt lat="32.779797" lon="34.979223">
        <time>2011-11-30T20:49:39Z</time>
      </trkpt>
    </trkseg>
    <trkseg>
      <trkpt lat="32.779797" lon="34.979223">
        <time>2011-11-30T20:49:40Z</time>
      </trkpt>
      <trkpt lat="32.779491" lon="34.979277">
        <ele>161.0</ele>
        <time>2011-11-30T20:49:44Z</time>
      </trkpt>
      <trkpt lat="32.779417" lon="34.979312">
        <ele>161.0</ele>
        <time>2011-11-30T20:49:48Z</time>
      </trkpt>
      <trkpt lat="32.779218" lon="34.979433">
        <ele>162.0</ele>
        <time>2011-11-30T20:49:59Z</time>
      </trkpt>
      <trkpt lat="32.779026" lon="34.979556">
        <ele>163.999</ele>
        <time>2011-11-30T20:50:09Z</time>
      </trkpt>
      <trkpt lat="32.778966" lon="34.979602">
        <ele>163.999</ele>
        <time>2011-11-30T20:50:12Z</time>
      </trkpt>
      <trkpt lat="32.778856" lon="34.979717">
        <ele>165.998</ele>
        <time>2011-11-30T20:50:17Z</time>
      </trkpt>
      <trkpt lat="32.778764" lon="34.979831">
        <ele>166.998</ele>
        <time>2011-11-30T20:50:21Z</time>
      </trkpt>
      <trkpt lat="32.778676" lon="34.979951">
        <ele>168.999</ele>
        <time>2011-11-30T20:50:25Z</time>
      </trkpt>
      <trkpt lat="32.778625" lon="34.98003">
        <ele>169.999</ele>
        <time>2011-11-30T20:50:28Z</time>
      </trkpt>
      <trkpt lat="32.778541" lon="34.980196">
        <ele>172.999</ele>
        <time>2011-11-30T20:50:34Z</time>
      </trkpt>
      <trkpt lat="32.778512" lon="34.980266">
        <ele>174.0</ele>
        <time>2011-11-30T20:50:36Z</time>
      </trkpt>
      <trkpt lat="32.778458" lon="34.980445">
        <ele>177.0</ele>
        <time>2011-11-30T20:50:42Z</time>
      </trkpt>
      <trkpt lat="32.778417" lon="34.980618">
        <ele>179.0</ele>
        <time>2011-11-30T20:50:48Z</time>
      </trkpt>
      <trkpt lat="32.778381" lon="34.980782">
        <ele>182.0</ele>
        <time>2011-11-30T20:50:54Z</time>
      </trkpt>
      <trkpt lat="32.778362" lon="34.980863">
        <ele>184.0</ele>
        <time>2011-11-30T20:50:57Z</time>
      </trkpt>
      <trkpt lat="32.77835" lon="34.980945">
        <ele>185.0</ele>
        <time>2011-11-30T20:51:00Z</time>
      </trkpt>
      <trkpt lat="32.778344" lon="34.981022">
        <ele>186.0</ele>
        <time>2011-11-30T20:51:03Z</time>
      </trkpt>
      <trkpt lat="32.778316" lon="34.981203">
        <ele>189.0</ele>
        <time>2011-11-30T20:51:11Z</time>
      </trkpt>
      <trkpt lat="32.778312" lon="34.981376">
        <ele>191.0</ele>
        <time>2011-11-30T20:51:18Z</time>
      </trkpt>
      <trkpt lat="32.77831" lon="34.981454">
        <ele>192.0</ele>
        <time>2011-11-30T20:51:21Z</time>
      </trkpt>
      <trkpt lat="32.778303" lon="34.98153">
        <ele>193.0</ele>
        <time>2011-11-30T20:51:24Z</time>
      </trkpt>
      <trkpt lat="32.778279" lon="34.981684">
        <ele>195.0</ele>
        <time>2011-11-30T20:51:30Z</time>
      </trkpt>
      <trkpt lat="32.778264" lon="34.981781">
        <ele>197.0</ele>
        <time>2011-11-30T20:51:34Z</time>
      </trkpt>
      <trkpt lat="32.778247" lon="34.981875">
        <ele>198.0</ele>
        <time>2011-11-30T20:51:38Z</time>
      </trkpt>
      <trkpt lat="32.778234" lon="34.981971">
        <ele>199.0</ele>
        <time>2011-11-30T20:51:42Z</time>
      </trkpt>
      <trkpt lat="32.778218" lon="34.982069">
        <ele>201.0</ele>
        <time>2011-11-30T20:51:46Z</time>
      </trkpt>
      <trkpt lat="32.778205" lon="34.982169">
        <ele>202.0</ele>
        <time>2011-11-30T20:51:50Z</time>
      </trkpt>
      <trkpt lat="32.778202" lon="34.982245">
        <ele>203.0</ele>
        <time>2011-11-30T20:51:53Z</time>
      </trkpt>
      <trkpt lat="32.778164" lon="34.982412">
        <ele>205.0</ele>
        <time>2011-11-30T20:52:00Z</time>
      </trkpt>
      <trkpt lat="32.778057" lon="34.982745">
        <ele>207.0</ele>
        <time>2011-11-30T20:52:14Z</time>
      </trkpt>
      <trkpt lat="32.777929" lon="34.982926">
        <ele>209.0</ele>
        <time>2011-11-30T20:52:23Z</time>
      </trkpt>
      <trkpt lat="32.777864" lon="34.982987">
        <ele>209.0</ele>
        <time>2011-11-30T20:52:27Z</time>
      </trkpt>
      <trkpt lat="32.777792" lon="34.98303">
        <ele>210.0</ele>
        <time>2011-11-30T20:52:31Z</time>
      </trkpt>
      <trkpt lat="32.77772" lon="34.983062">
        <ele>210.0</ele>
        <time>2011-11-30T20:52:35Z</time>
      </trkpt>
      <trkpt lat="32.777642" lon="34.983083">
        <ele>211.0</ele>
        <time>2011-11-30T20:52:39Z</time>
      </trkpt>
      <trkpt lat="32.777566" lon="34.983079">
        <ele>211.0</ele>
        <time>2011-11-30T20:52:43Z</time>
      </trkpt>
      <trkpt lat="32.777487" lon="34.983082">
        <ele>211.0</ele>
        <time>2011-11-30T20:52:47Z</time>
      </trkpt>
      <trkpt lat="32.777409" lon="34.983091">
        <ele>211.0</ele>
        <time>2011-11-30T20:52:51Z</time>
      </trkpt>
      <trkpt lat="32.777332" lon="34.983093">
        <ele>212.0</ele>
        <time>2011-11-30T20:52:55Z</time>
      </trkpt>
      <trkpt lat="32.777332" lon="34.983093">
        <time>2011-11-30T20:53:06Z</time>
      </trkpt>
    </trkseg>
    <trkseg>
      <trkpt lat="32.777332" lon="34.983093">
        <time>2011-11-30T20:53:07Z</time>
      </trkpt>
      <trkpt lat="32.777031" lon="34.983092">
        <ele>212.0</ele>
        <time>2011-11-30T20:53:11Z</time>
      </trkpt>
      <trkpt lat="32.776953" lon="34.983093">
        <ele>212.0</ele>
        <time>2011-11-30T20:53:15Z</time>
      </trkpt>
      <trkpt lat="32.776874" lon="34.983106">
        <ele>212.0</ele>
        <time>2011-11-30T20:53:19Z</time>
      </trkpt>
      <trkpt lat="32.776809" lon="34.983125">
        <ele>212.0</ele>
        <time>2011-11-30T20:53:22Z</time>
      </trkpt>
      <trkpt lat="32.77661" lon="34.983224">
        <ele>213.0</ele>
        <time>2011-11-30T20:53:31Z</time>
      </trkpt>
      <trkpt lat="32.776421" lon="34.983386">
        <ele>212.999</ele>
        <time>2011-11-30T20:53:38Z</time>
      </trkpt>
      <trkpt lat="32.776227" lon="34.983651">
        <ele>214.999</ele>
        <time>2011-11-30T20:53:47Z</time>
      </trkpt>
      <trkpt lat="32.776141" lon="34.983802">
        <ele>215.998</ele>
        <time>2011-11-30T20:53:51Z</time>
      </trkpt>
      <trkpt lat="32.776044" lon="34.98399">
        <ele>217.999</ele>
        <time>2011-11-30T20:53:55Z</time>
      </trkpt>
      <trkpt lat="32.775955" lon="34.984347">
        <ele>220.999</ele>
        <time>2011-11-30T20:54:03Z</time>
      </trkpt>
      <trkpt lat="32.775953" lon="34.984521">
        <ele>222.0</ele>
        <time>2011-11-30T20:54:07Z</time>
      </trkpt>
      <trkpt lat="32.775955" lon="34.984607">
        <ele>222.0</ele>
        <time>2011-11-30T20:54:09Z</time>
      </trkpt>
      <trkpt lat="32.776177" lon="34.984943">
        <ele>221.003</ele>
        <time>2011-11-30T20:54:22Z</time>
      </trkpt>
      <trkpt lat="32.776334" lon="34.985062">
        <ele>222.002</ele>
        <time>2011-11-30T20:54:26Z</time>
      </trkpt>
      <trkpt lat="32.776466" lon="34.985169">
        <ele>223.001</ele>
        <time>2011-11-30T20:54:30Z</time>
      </trkpt>
      <trkpt lat="32.77659" lon="34.985271">
        <ele>228.001</ele>
        <time>2011-11-30T20:54:34Z</time>
      </trkpt>
      <trkpt lat="32.776738" lon="34.985393">
        <ele>238.0</ele>
        <time>2011-11-30T20:54:38Z</time>
      </trkpt>
      <trkpt lat="32.776859" lon="34.985498">
        <ele>242.0</ele>
        <time>2011-11-30T20:54:42Z</time>
      </trkpt>
      <trkpt lat="32.776965" lon="34.9856">
        <ele>243.0</ele>
        <time>2011-11-30T20:54:46Z</time>
      </trkpt>
      <trkpt lat="32.777072" lon="34.9857">
        <ele>244.0</ele>
        <time>2011-11-30T20:54:50Z</time>
      </trkpt>
      <trkpt lat="32.777146" lon="34.985768">
        <ele>245.0</ele>
        <time>2011-11-30T20:54:53Z</time>
      </trkpt>
      <trkpt lat="32.777214" lon="34.985837">
        <ele>246.0</ele>
        <time>2011-11-30T20:54:56Z</time>
      </trkpt>
      <trkpt lat="32.777368" lon="34.985937">
        <ele>247.0</ele>
        <time>2011-11-30T20:55:02Z</time>
      </trkpt>
      <trkpt lat="32.777559" lon="34.986115">
        <ele>250.0</ele>
        <time>2011-11-30T20:55:11Z</time>
      </trkpt>
      <trkpt lat="32.777613" lon="34.986168">
        <ele>250.0</ele>
        <time>2011-11-30T20:55:14Z</time>
      </trkpt>
      <trkpt lat="32.777666" lon="34.986219">
        <ele>251.0</ele>
        <time>2011-11-30T20:55:17Z</time>
      </trkpt>
      <trkpt lat="32.777666" lon="34.986219">
        <time>2011-11-30T20:55:28Z</time>
      </trkpt>
    </trkseg>
    <trkseg>
      <trkpt lat="32.777666" lon="34.986219">
        <time>2011-11-30T20:55:29Z</time>
      </trkpt>
      <trkpt lat="32.777895" lon="34.986444">
        <ele>255.0</ele>
        <time>2011-11-30T20:55:32Z</time>
      </trkpt>
      <trkpt lat="32.778117" lon="34.986611">
        <ele>256.0</ele>
        <time>2011-11-30T20:55:44Z</time>
      </trkpt>
      <trkpt lat="32.778117" lon="34.986611">
        <time>2011-11-30T20:55:55Z</time>
      </trkpt>
    </trkseg>
    <trkseg>
      <trkpt lat="32.778117" lon="34.986611">
        <time>2011-11-30T20:56:15Z</time>
      </trkpt>
      <trkpt lat="32.778117" lon="34.986611">
        <time>2011-11-30T20:56:26Z</time>
      </trkpt>
    </trkseg>
    <trkseg>
      <trkpt lat="32.778117" lon="34.986611">
        <time>2011-11-30T20:57:23Z</time>
      </trkpt>
      <trkpt lat="32.778117" lon="34.986611">
        <time>2011-11-30T20:57:34Z</time>
      </trkpt>
    </trkseg>
    <trkseg>
      <trkpt lat="32.778117" lon="34.986611">
        <time>2011-11-30T20:57:36Z</time>
      </trkpt>
      <trkpt lat="32.778328" lon="34.986933">
        <ele>267.0</ele>
        <time>2011-11-30T20:57:40Z</time>
      </trkpt>
      <trkpt lat="32.778395" lon="34.986991">
        <ele>268.0</ele>
        <time>2011-11-30T20:57:44Z</time>
      </trkpt>
      <trkpt lat="32.778454" lon="34.987043">
        <ele>268.0</ele>
        <time>2011-11-30T20:57:48Z</time>
      </trkpt>
      <trkpt lat="32.778572" lon="34.987133">
        <ele>270.0</ele>
        <time>2011-11-30T20:57:55Z</time>
      </trkpt>
      <trkpt lat="32.778626" lon="34.987179">
        <ele>270.0</ele>
        <time>2011-11-30T20:57:58Z</time>
      </trkpt>
      <trkpt lat="32.778672" lon="34.987233">
        <ele>271.0</ele>
        <time>2011-11-30T20:58:01Z</time>
      </trkpt>
      <trkpt lat="32.778732" lon="34.987302">
        <ele>271.0</ele>
        <time>2011-11-30T20:58:05Z</time>
      </trkpt>
      <trkpt lat="32.778779" lon="34.987357">
        <ele>272.0</ele>
        <time>2011-11-30T20:58:08Z</time>
      </trkpt>
      <trkpt lat="32.778873" lon="34.987486">
        <ele>273.0</ele>
        <time>2011-11-30T20:58:14Z</time>
      </trkpt>
      <trkpt lat="32.778926" lon="34.98756">
        <ele>273.0</ele>
        <time>2011-11-30T20:58:17Z</time>
      </trkpt>
      <trkpt lat="32.779039" lon="34.987707">
        <ele>274.0</ele>
        <time>2011-11-30T20:58:23Z</time>
      </trkpt>
      <trkpt lat="32.779098" lon="34.987781">
        <ele>274.0</ele>
        <time>2011-11-30T20:58:26Z</time>
      </trkpt>
      <trkpt lat="32.779155" lon="34.987863">
        <ele>275.0</ele>
        <time>2011-11-30T20:58:29Z</time>
      </trkpt>
      <trkpt lat="32.779253" lon="34.988039">
        <ele>275.0</ele>
        <time>2011-11-30T20:58:35Z</time>
      </trkpt>
      <trkpt lat="32.779327" lon="34.988166">
        <ele>276.0</ele>
        <time>2011-11-30T20:58:39Z</time>
      </trkpt>
      <trkpt lat="32.779409" lon="34.988287">
        <ele>276.0</ele>
        <time>2011-11-30T20:58:43Z</time>
      </trkpt>
      <trkpt lat="32.779491" lon="34.988409">
        <ele>277.0</ele>
        <time>2011-11-30T20:58:47Z</time>
      </trkpt>
      <trkpt lat="32.779528" lon="34.988472">
        <ele>277.0</ele>
        <time>2011-11-30T20:58:49Z</time>
      </trkpt>
      <trkpt lat="32.779622" lon="34.988633">
        <ele>278.0</ele>
        <time>2011-11-30T20:58:54Z</time>
      </trkpt>
      <trkpt lat="32.779702" lon="34.98877">
        <ele>278.0</ele>
        <time>2011-11-30T20:58:58Z</time>
      </trkpt>
      <trkpt lat="32.779786" lon="34.988902">
        <ele>279.0</ele>
        <time>2011-11-30T20:59:02Z</time>
      </trkpt>
      <trkpt lat="32.779877" lon="34.989051">
        <ele>279.0</ele>
        <time>2011-11-30T20:59:07Z</time>
      </trkpt>
      <trkpt lat="32.780031" lon="34.989125">
        <ele>280.0</ele>
        <time>2011-11-30T20:59:13Z</time>
      </trkpt>
      <trkpt lat="32.780349" lon="34.988972">
        <ele>281.001</ele>
        <time>2011-11-30T20:59:23Z</time>
      </trkpt>
      <trkpt lat="32.780464" lon="34.988847">
        <ele>282.0</ele>
        <time>2011-11-30T20:59:27Z</time>
      </trkpt>
      <trkpt lat="32.78055" lon="34.988711">
        <ele>282.0</ele>
        <time>2011-11-30T20:59:31Z</time>
      </trkpt>
      <trkpt lat="32.780586" lon="34.988645">
        <ele>282.0</ele>
        <time>2011-11-30T20:59:33Z</time>
      </trkpt>
      <trkpt lat="32.780658" lon="34.988448">
        <ele>283.0</ele>
        <time>2011-11-30T20:59:39Z</time>
      </trkpt>
      <trkpt lat="32.780682" lon="34.98835">
        <ele>283.0</ele>
        <time>2011-11-30T20:59:42Z</time>
      </trkpt>
      <trkpt lat="32.780706" lon="34.988252">
        <ele>284.0</ele>
        <time>2011-11-30T20:59:45Z</time>
      </trkpt>
      <trkpt lat="32.780733" lon="34.988159">
        <ele>284.0</ele>
        <time>2011-11-30T20:59:48Z</time>
      </trkpt>
      <trkpt lat="32.780794" lon="34.987987">
        <ele>284.0</ele>
        <time>2011-11-30T20:59:54Z</time>
      </trkpt>
      <trkpt lat="32.780847" lon="34.987918">
        <ele>284.0</ele>
        <time>2011-11-30T20:59:58Z</time>
      </trkpt>
      <trkpt lat="32.780913" lon="34.987859">
        <ele>285.0</ele>
        <time>2011-11-30T21:00:01Z</time>
      </trkpt>
      <trkpt lat="32.781066" lon="34.987785">
        <ele>285.0</ele>
        <time>2011-11-30T21:00:07Z</time>
      </trkpt>
      <trkpt lat="32.781149" lon="34.987795">
        <ele>285.0</ele>
        <time>2011-11-30T21:00:09Z</time>
      </trkpt>
      <trkpt lat="32.781219" lon="34.98781">
        <ele>286.0</ele>
        <time>2011-11-30T21:00:13Z</time>
      </trkpt>
      <trkpt lat="32.781378" lon="34.987872">
        <ele>286.0</ele>
        <time>2011-11-30T21:00:18Z</time>
      </trkpt>
      <trkpt lat="32.781461" lon="34.987915">
        <ele>286.0</ele>
        <time>2011-11-30T21:00:21Z</time>
      </trkpt>
      <trkpt lat="32.781709" lon="34.988059">
        <ele>287.0</ele>
        <time>2011-11-30T21:00:30Z</time>
      </trkpt>
      <trkpt lat="32.781794" lon="34.988092">
        <ele>287.0</ele>
        <time>2011-11-30T21:00:34Z</time>
      </trkpt>
      <trkpt lat="32.781881" lon="34.9881">
        <ele>287.0</ele>
        <time>2011-11-30T21:00:36Z</time>
      </trkpt>
      <trkpt lat="32.782039" lon="34.988083">
        <ele>287.001</ele>
        <time>2011-11-30T21:00:41Z</time>
      </trkpt>
      <trkpt lat="32.78219" lon="34.988018">
        <ele>288.001</ele>
        <time>2011-11-30T21:00:45Z</time>
      </trkpt>
      <trkpt lat="32.782342" lon="34.987942">
        <ele>288.001</ele>
        <time>2011-11-30T21:00:49Z</time>
      </trkpt>
      <trkpt lat="32.782469" lon="34.987858">
        <ele>289.001</ele>
        <time>2011-11-30T21:00:53Z</time>
      </trkpt>
      <trkpt lat="32.782583" lon="34.987767">
        <ele>289.0</ele>
        <time>2011-11-30T21:00:57Z</time>
      </trkpt>
      <trkpt lat="32.782682" lon="34.987663">
        <ele>290.0</ele>
        <time>2011-11-30T21:01:02Z</time>
      </trkpt>
      <trkpt lat="32.782778" lon="34.987552">
        <ele>290.0</ele>
        <time>2011-11-30T21:01:05Z</time>
      </trkpt>
      <trkpt lat="32.782879" lon="34.987442">
        <ele>291.0</ele>
        <time>2011-11-30T21:01:09Z</time>
      </trkpt>
      <trkpt lat="32.782981" lon="34.98735">
        <ele>291.0</ele>
        <time>2011-11-30T21:01:13Z</time>
      </trkpt>
      <trkpt lat="32.78311" lon="34.987248">
        <ele>291.0</ele>
        <time>2011-11-30T21:01:18Z</time>
      </trkpt>
      <trkpt lat="32.783228" lon="34.987187">
        <ele>292.0</ele>
        <time>2011-11-30T21:01:23Z</time>
      </trkpt>
      <trkpt lat="32.783309" lon="34.987172">
        <ele>292.0</ele>
        <time>2011-11-30T21:01:25Z</time>
      </trkpt>
      <trkpt lat="32.783376" lon="34.987212">
        <ele>292.0</ele>
        <time>2011-11-30T21:01:30Z</time>
      </trkpt>
      <trkpt lat="32.783376" lon="34.987212">
        <time>2011-11-30T21:01:42Z</time>
      </trkpt>
    </trkseg>
    <trkseg>
      <trkpt lat="32.783376" lon="34.987212">
        <time>2011-11-30T21:01:58Z</time>
      </trkpt>
      <trkpt lat="32.783535" lon="34.987351">
        <ele>294.0</ele>
        <time>2011-11-30T21:02:04Z</time>
      </trkpt>
      <trkpt lat="32.783576" lon="34.987421">
        <ele>295.0</ele>
        <time>2011-11-30T21:02:07Z</time>
      </trkpt>
      <trkpt lat="32.783476" lon="34.987603">
        <ele>295.0</ele>
        <time>2011-11-30T21:02:17Z</time>
      </trkpt>
      <trkpt lat="32.7834" lon="34.987665">
        <ele>296.0</ele>
        <time>2011-11-30T21:02:21Z</time>
      </trkpt>
      <trkpt lat="32.783229" lon="34.987839">
        <ele>296.0</ele>
        <time>2011-11-30T21:02:29Z</time>
      </trkpt>
      <trkpt lat="32.783221" lon="34.987932">
        <ele>296.0</ele>
        <time>2011-11-30T21:02:33Z</time>
      </trkpt>
      <trkpt lat="32.783244" lon="34.988103">
        <ele>296.0</ele>
        <time>2011-11-30T21:02:39Z</time>
      </trkpt>
      <trkpt lat="32.783255" lon="34.988195">
        <ele>296.0</ele>
        <time>2011-11-30T21:02:41Z</time>
      </trkpt>
      <trkpt lat="32.783264" lon="34.988288">
        <ele>296.0</ele>
        <time>2011-11-30T21:02:45Z</time>
      </trkpt>
      <trkpt lat="32.783309" lon="34.988479">
        <ele>296.0</ele>
        <time>2011-11-30T21:02:51Z</time>
      </trkpt>
      <trkpt lat="32.783332" lon="34.988575">
        <ele>296.0</ele>
        <time>2011-11-30T21:02:54Z</time>
      </trkpt>
      <trkpt lat="32.783364" lon="34.98868">
        <ele>296.0</ele>
        <time>2011-11-30T21:02:57Z</time>
      </trkpt>
      <trkpt lat="32.783467" lon="34.988883">
        <ele>297.0</ele>
        <time>2011-11-30T21:03:03Z</time>
      </trkpt>
      <trkpt lat="32.783558" lon="34.989007">
        <ele>297.0</ele>
        <time>2011-11-30T21:03:07Z</time>
      </trkpt>
      <trkpt lat="32.783784" lon="34.98917">
        <ele>298.0</ele>
        <time>2011-11-30T21:03:15Z</time>
      </trkpt>
      <trkpt lat="32.783867" lon="34.989208">
        <ele>298.0</ele>
        <time>2011-11-30T21:03:18Z</time>
      </trkpt>
      <trkpt lat="32.783944" lon="34.989242">
        <ele>299.0</ele>
        <time>2011-11-30T21:03:21Z</time>
      </trkpt>
      <trkpt lat="32.784088" lon="34.989299">
        <ele>300.0</ele>
        <time>2011-11-30T21:03:27Z</time>
      </trkpt>
      <trkpt lat="32.784088" lon="34.989299">
        <time>2011-11-30T21:03:38Z</time>
      </trkpt>
    </trkseg>
    <trkseg>
      <trkpt lat="32.784088" lon="34.989299">
        <time>2011-11-30T21:03:48Z</time>
      </trkpt>
      <trkpt lat="32.784234" lon="34.989467">
        <ele>302.0</ele>
        <time>2011-11-30T21:03:52Z</time>
      </trkpt>
      <trkpt lat="32.784312" lon="34.989777">
        <ele>304.0</ele>
        <time>2011-11-30T21:04:05Z</time>
      </trkpt>
      <trkpt lat="32.784305" lon="34.989867">
        <ele>304.0</ele>
        <time>2011-11-30T21:04:08Z</time>
      </trkpt>
      <trkpt lat="32.784297" lon="34.989957">
        <ele>305.0</ele>
        <time>2011-11-30T21:04:11Z</time>
      </trkpt>
      <trkpt lat="32.784298" lon="34.990033">
        <ele>305.0</ele>
        <time>2011-11-30T21:04:14Z</time>
      </trkpt>
      <trkpt lat="32.784321" lon="34.990203">
        <ele>306.0</ele>
        <time>2011-11-30T21:04:21Z</time>
      </trkpt>
      <trkpt lat="32.784334" lon="34.990282">
        <ele>307.0</ele>
        <time>2011-11-30T21:04:24Z</time>
      </trkpt>
      <trkpt lat="32.784348" lon="34.990364">
        <ele>307.0</ele>
        <time>2011-11-30T21:04:27Z</time>
      </trkpt>
      <trkpt lat="32.784363" lon="34.990537">
        <ele>308.0</ele>
        <time>2011-11-30T21:04:33Z</time>
      </trkpt>
      <trkpt lat="32.78439" lon="34.990901">
        <ele>309.0</ele>
        <time>2011-11-30T21:04:45Z</time>
      </trkpt>
      <trkpt lat="32.784388" lon="34.990994">
        <ele>310.0</ele>
        <time>2011-11-30T21:04:48Z</time>
      </trkpt>
      <trkpt lat="32.784366" lon="34.991087">
        <ele>310.0</ele>
        <time>2011-11-30T21:04:51Z</time>
      </trkpt>
      <trkpt lat="32.784339" lon="34.99127">
        <ele>311.0</ele>
        <time>2011-11-30T21:04:57Z</time>
      </trkpt>
      <trkpt lat="32.784325" lon="34.991357">
        <ele>311.0</ele>
        <time>2011-11-30T21:05:00Z</time>
      </trkpt>
      <trkpt lat="32.784287" lon="34.99144">
        <ele>311.0</ele>
        <time>2011-11-30T21:05:03Z</time>
      </trkpt>
      <trkpt lat="32.784211" lon="34.991599">
        <ele>312.0</ele>
        <time>2011-11-30T21:05:09Z</time>
      </trkpt>
      <trkpt lat="32.784183" lon="34.99168">
        <ele>312.0</ele>
        <time>2011-11-30T21:05:12Z</time>
      </trkpt>
      <trkpt lat="32.784154" lon="34.991779">
        <ele>313.0</ele>
        <time>2011-11-30T21:05:15Z</time>
      </trkpt>
      <trkpt lat="32.784091" lon="34.991957">
        <ele>314.0</ele>
        <time>2011-11-30T21:05:21Z</time>
      </trkpt>
      <trkpt lat="32.784069" lon="34.992034">
        <ele>314.0</ele>
        <time>2011-11-30T21:05:24Z</time>
      </trkpt>
      <trkpt lat="32.78405" lon="34.992109">
        <ele>315.0</ele>
        <time>2011-11-30T21:05:27Z</time>
      </trkpt>
      <trkpt lat="32.784024" lon="34.992184">
        <ele>315.0</ele>
        <time>2011-11-30T21:05:31Z</time>
      </trkpt>
      <trkpt lat="32.783987" lon="34.992272">
        <ele>316.0</ele>
        <time>2011-11-30T21:05:35Z</time>
      </trkpt>
      <trkpt lat="32.783952" lon="34.992362">
        <ele>317.0</ele>
        <time>2011-11-30T21:05:39Z</time>
      </trkpt>
      <trkpt lat="32.783895" lon="34.9925">
        <ele>317.0</ele>
        <time>2011-11-30T21:05:45Z</time>
      </trkpt>
      <trkpt lat="32.78386" lon="34.992569">
        <ele>318.0</ele>
        <time>2011-11-30T21:05:48Z</time>
      </trkpt>
      <trkpt lat="32.783739" lon="34.992786">
        <ele>319.0</ele>
        <time>2011-11-30T21:05:56Z</time>
      </trkpt>
      <trkpt lat="32.783691" lon="34.992858">
        <ele>319.0</ele>
        <time>2011-11-30T21:06:00Z</time>
      </trkpt>
      <trkpt lat="32.783645" lon="34.992926">
        <ele>319.0</ele>
        <time>2011-11-30T21:06:03Z</time>
      </trkpt>
      <trkpt lat="32.783536" lon="34.993057">
        <ele>320.0</ele>
        <time>2011-11-30T21:06:09Z</time>
      </trkpt>
      <trkpt lat="32.783473" lon="34.993145">
        <ele>320.0</ele>
        <time>2011-11-30T21:06:12Z</time>
      </trkpt>
      <trkpt lat="32.783428" lon="34.993211">
        <ele>320.0</ele>
        <time>2011-11-30T21:06:15Z</time>
      </trkpt>
      <trkpt lat="32.783375" lon="34.993283">
        <ele>320.0</ele>
        <time>2011-11-30T21:06:18Z</time>
      </trkpt>
      <trkpt lat="32.783215" lon="34.993454">
        <ele>320.0</ele>
        <time>2011-11-30T21:06:27Z</time>
      </trkpt>
      <trkpt lat="32.783113" lon="34.993563">
        <ele>321.0</ele>
        <time>2011-11-30T21:06:33Z</time>
      </trkpt>
      <trkpt lat="32.783069" lon="34.993623">
        <ele>321.0</ele>
        <time>2011-11-30T21:06:36Z</time>
      </trkpt>
      <trkpt lat="32.783021" lon="34.993683">
        <ele>321.0</ele>
        <time>2011-11-30T21:06:39Z</time>
      </trkpt>
      <trkpt lat="32.782968" lon="34.993732">
        <ele>321.0</ele>
        <time>2011-11-30T21:06:42Z</time>
      </trkpt>
      <trkpt lat="32.782792" lon="34.993911">
        <ele>321.0</ele>
        <time>2011-11-30T21:06:51Z</time>
      </trkpt>
      <trkpt lat="32.782659" lon="34.994014">
        <ele>322.0</ele>
        <time>2011-11-30T21:06:57Z</time>
      </trkpt>
      <trkpt lat="32.78259" lon="34.99406">
        <ele>322.0</ele>
        <time>2011-11-30T21:07:00Z</time>
      </trkpt>
      <trkpt lat="32.782463" lon="34.994167">
        <ele>322.0</ele>
        <time>2011-11-30T21:07:06Z</time>
      </trkpt>
      <trkpt lat="32.782343" lon="34.994284">
        <ele>323.0</ele>
        <time>2011-11-30T21:07:12Z</time>
      </trkpt>
      <trkpt lat="32.78228" lon="34.994338">
        <ele>323.0</ele>
        <time>2011-11-30T21:07:15Z</time>
      </trkpt>
      <trkpt lat="32.782103" lon="34.99456">
        <ele>324.0</ele>
        <time>2011-11-30T21:07:23Z</time>
      </trkpt>
      <trkpt lat="32.781924" lon="34.994743">
        <ele>326.0</ele>
        <time>2011-11-30T21:07:32Z</time>
      </trkpt>
      <trkpt lat="32.78186" lon="34.994809">
        <ele>326.0</ele>
        <time>2011-11-30T21:07:36Z</time>
      </trkpt>
      <trkpt lat="32.781669" lon="34.995029">
        <ele>328.0</ele>
        <time>2011-11-30T21:07:48Z</time>
      </trkpt>
      <trkpt lat="32.781608" lon="34.995092">
        <ele>328.0</ele>
        <time>2011-11-30T21:07:52Z</time>
      </trkpt>
      <trkpt lat="32.781536" lon="34.995145">
        <ele>329.0</ele>
        <time>2011-11-30T21:07:56Z</time>
      </trkpt>
      <trkpt lat="32.781366" lon="34.995309">
        <ele>330.0</ele>
        <time>2011-11-30T21:08:05Z</time>
      </trkpt>
      <trkpt lat="32.781312" lon="34.995356">
        <ele>330.0</ele>
        <time>2011-11-30T21:08:08Z</time>
      </trkpt>
      <trkpt lat="32.781253" lon="34.995407">
        <ele>331.0</ele>
        <time>2011-11-30T21:08:11Z</time>
      </trkpt>
      <trkpt lat="32.781187" lon="34.995459">
        <ele>331.0</ele>
        <time>2011-11-30T21:08:14Z</time>
      </trkpt>
      <trkpt lat="32.781039" lon="34.995574">
        <ele>332.0</ele>
        <time>2011-11-30T21:08:20Z</time>
      </trkpt>
      <trkpt lat="32.780971" lon="34.995631">
        <ele>333.0</ele>
        <time>2011-11-30T21:08:23Z</time>
      </trkpt>
      <trkpt lat="32.780904" lon="34.995686">
        <ele>333.0</ele>
        <time>2011-11-30T21:08:26Z</time>
      </trkpt>
      <trkpt lat="32.780783" lon="34.995776">
        <ele>334.0</ele>
        <time>2011-11-30T21:08:32Z</time>
      </trkpt>
      <trkpt lat="32.780723" lon="34.995822">
        <ele>334.0</ele>
        <time>2011-11-30T21:08:35Z</time>
      </trkpt>
      <trkpt lat="32.780557" lon="34.995973">
        <ele>335.0</ele>
        <time>2011-11-30T21:08:44Z</time>
      </trkpt>
      <trkpt lat="32.780506" lon="34.996042">
        <ele>335.0</ele>
        <time>2011-11-30T21:08:47Z</time>
      </trkpt>
      <trkpt lat="32.78036" lon="34.996203">
        <ele>336.0</ele>
        <time>2011-11-30T21:08:56Z</time>
      </trkpt>
      <trkpt lat="32.780309" lon="34.996248">
        <ele>336.0</ele>
        <time>2011-11-30T21:08:59Z</time>
      </trkpt>
      <trkpt lat="32.780214" lon="34.996367">
        <ele>337.0</ele>
        <time>2011-11-30T21:09:05Z</time>
      </trkpt>
      <trkpt lat="32.780174" lon="34.996435">
        <ele>337.0</ele>
        <time>2011-11-30T21:09:08Z</time>
      </trkpt>
      <trkpt lat="32.780131" lon="34.996497">
        <ele>337.0</ele>
        <time>2011-11-30T21:09:11Z</time>
      </trkpt>
      <trkpt lat="32.780027" lon="34.996643">
        <ele>338.0</ele>
        <time>2011-11-30T21:09:17Z</time>
      </trkpt>
      <trkpt lat="32.779977" lon="34.996714">
        <ele>338.0</ele>
        <time>2011-11-30T21:09:20Z</time>
      </trkpt>
      <trkpt lat="32.779931" lon="34.996783">
        <ele>339.0</ele>
        <time>2011-11-30T21:09:23Z</time>
      </trkpt>
      <trkpt lat="32.779846" lon="34.996927">
        <ele>340.0</ele>
        <time>2011-11-30T21:09:29Z</time>
      </trkpt>
      <trkpt lat="32.779801" lon="34.996985">
        <ele>340.0</ele>
        <time>2011-11-30T21:09:32Z</time>
      </trkpt>
      <trkpt lat="32.779751" lon="34.997044">
        <ele>341.0</ele>
        <time>2011-11-30T21:09:35Z</time>
      </trkpt>
      <trkpt lat="32.779705" lon="34.997101">
        <ele>341.0</ele>
        <time>2011-11-30T21:09:38Z</time>
      </trkpt>
      <trkpt lat="32.779619" lon="34.997243">
        <ele>342.0</ele>
        <time>2011-11-30T21:09:45Z</time>
      </trkpt>
      <trkpt lat="32.779455" lon="34.997494">
        <ele>344.0</ele>
        <time>2011-11-30T21:09:57Z</time>
      </trkpt>
      <trkpt lat="32.779416" lon="34.997559">
        <ele>344.0</ele>
        <time>2011-11-30T21:10:00Z</time>
      </trkpt>
      <trkpt lat="32.779369" lon="34.997636">
        <ele>345.0</ele>
        <time>2011-11-30T21:10:04Z</time>
      </trkpt>
      <trkpt lat="32.779331" lon="34.997697">
        <ele>345.0</ele>
        <time>2011-11-30T21:10:07Z</time>
      </trkpt>
      <trkpt lat="32.779238" lon="34.997829">
        <ele>346.0</ele>
        <time>2011-11-30T21:10:13Z</time>
      </trkpt>
      <trkpt lat="32.779184" lon="34.997888">
        <ele>347.0</ele>
        <time>2011-11-30T21:10:16Z</time>
      </trkpt>
      <trkpt lat="32.779136" lon="34.997953">
        <ele>347.0</ele>
        <time>2011-11-30T21:10:19Z</time>
      </trkpt>
      <trkpt lat="32.779046" lon="34.998082">
        <ele>349.0</ele>
        <time>2011-11-30T21:10:25Z</time>
      </trkpt>
      <trkpt lat="32.779002" lon="34.998145">
        <ele>350.0</ele>
        <time>2011-11-30T21:10:28Z</time>
      </trkpt>
      <trkpt lat="32.778962" lon="34.998205">
        <ele>350.0</ele>
        <time>2011-11-30T21:10:31Z</time>
      </trkpt>
      <trkpt lat="32.778911" lon="34.998276">
        <ele>351.0</ele>
        <time>2011-11-30T21:10:35Z</time>
      </trkpt>
      <trkpt lat="32.778857" lon="34.998353">
        <ele>352.0</ele>
        <time>2011-11-30T21:10:39Z</time>
      </trkpt>
      <trkpt lat="32.778729" lon="34.998575">
        <ele>355.0</ele>
        <time>2011-11-30T21:10:48Z</time>
      </trkpt>
      <trkpt lat="32.778686" lon="34.998641">
        <ele>357.0</ele>
        <time>2011-11-30T21:10:51Z</time>
      </trkpt>
      <trkpt lat="32.778645" lon="34.998708">
        <ele>358.0</ele>
        <time>2011-11-30T21:10:54Z</time>
      </trkpt>
      <trkpt lat="32.778566" lon="34.998844">
        <ele>360.0</ele>
        <time>2011-11-30T21:11:01Z</time>
      </trkpt>
      <trkpt lat="32.778528" lon="34.998914">
        <ele>362.0</ele>
        <time>2011-11-30T21:11:05Z</time>
      </trkpt>
      <trkpt lat="32.778484" lon="34.998999">
        <ele>363.0</ele>
        <time>2011-11-30T21:11:09Z</time>
      </trkpt>
      <trkpt lat="32.778323" lon="34.999278">
        <ele>366.0</ele>
        <time>2011-11-30T21:11:21Z</time>
      </trkpt>
      <trkpt lat="32.778197" lon="34.999406">
        <ele>367.0</ele>
        <time>2011-11-30T21:11:27Z</time>
      </trkpt>
      <trkpt lat="32.778132" lon="34.99947">
        <ele>368.0</ele>
        <time>2011-11-30T21:11:30Z</time>
      </trkpt>
      <trkpt lat="32.778009" lon="34.999615">
        <ele>369.0</ele>
        <time>2011-11-30T21:11:36Z</time>
      </trkpt>
      <trkpt lat="32.777896" lon="34.999749">
        <ele>370.0</ele>
        <time>2011-11-30T21:11:41Z</time>
      </trkpt>
      <trkpt lat="32.777781" lon="34.999887">
        <ele>372.0</ele>
        <time>2011-11-30T21:11:45Z</time>
      </trkpt>
      <trkpt lat="32.777715" lon="34.999962">
        <ele>375.0</ele>
        <time>2011-11-30T21:11:47Z</time>
      </trkpt>
      <trkpt lat="32.777627" lon="35.000132">
        <ele>379.0</ele>
        <time>2011-11-30T21:11:51Z</time>
      </trkpt>
      <trkpt lat="32.777583" lon="35.000328">
        <ele>379.0</ele>
        <time>2011-11-30T21:11:57Z</time>
      </trkpt>
      <trkpt lat="32.777514" lon="35.000471">
        <ele>379.0</ele>
        <time>2011-11-30T21:12:01Z</time>
      </trkpt>
      <trkpt lat="32.777379" lon="35.000601">
        <ele>382.0</ele>
        <time>2011-11-30T21:12:05Z</time>
      </trkpt>
      <trkpt lat="32.777257" lon="35.000747">
        <ele>384.0</ele>
        <time>2011-11-30T21:12:09Z</time>
      </trkpt>
      <trkpt lat="32.777175" lon="35.000916">
        <ele>384.0</ele>
        <time>2011-11-30T21:12:13Z</time>
      </trkpt>
      <trkpt lat="32.77709" lon="35.001089">
        <ele>384.0</ele>
        <time>2011-11-30T21:12:17Z</time>
      </trkpt>
      <trkpt lat="32.776983" lon="35.001232">
        <ele>384.0</ele>
        <time>2011-11-30T21:12:21Z</time>
      </trkpt>
      <trkpt lat="32.776883" lon="35.001372">
        <ele>385.0</ele>
        <time>2011-11-30T21:12:25Z</time>
      </trkpt>
      <trkpt lat="32.776775" lon="35.001503">
        <ele>385.0</ele>
        <time>2011-11-30T21:12:29Z</time>
      </trkpt>
      <trkpt lat="32.776617" lon="35.001638">
        <ele>384.0</ele>
        <time>2011-11-30T21:12:33Z</time>
      </trkpt>
      <trkpt lat="32.776518" lon="35.001713">
        <ele>384.0</ele>
        <time>2011-11-30T21:12:35Z</time>
      </trkpt>
      <trkpt lat="32.776165" lon="35.001942">
        <ele>383.0</ele>
        <time>2011-11-30T21:12:41Z</time>
      </trkpt>
      <trkpt lat="32.775887" lon="35.002093">
        <ele>383.0</ele>
        <time>2011-11-30T21:12:45Z</time>
      </trkpt>
      <trkpt lat="32.775657" lon="35.002154">
        <ele>382.0</ele>
        <time>2011-11-30T21:12:49Z</time>
      </trkpt>
      <trkpt lat="32.775485" lon="35.002115">
        <ele>382.0</ele>
        <time>2011-11-30T21:12:53Z</time>
      </trkpt>
      <trkpt lat="32.775403" lon="35.002075">
        <ele>382.0</ele>
        <time>2011-11-30T21:12:56Z</time>
      </trkpt>
      <trkpt lat="32.775321" lon="35.002029">
        <ele>382.0</ele>
        <time>2011-11-30T21:12:59Z</time>
      </trkpt>
      <trkpt lat="32.775168" lon="35.001937">
        <ele>382.0</ele>
        <time>2011-11-30T21:13:05Z</time>
      </trkpt>
      <trkpt lat="32.774963" lon="35.001816">
        <ele>382.0</ele>
        <time>2011-11-30T21:13:15Z</time>
      </trkpt>
      <trkpt lat="32.774825" lon="35.001728">
        <ele>381.0</ele>
        <time>2011-11-30T21:13:20Z</time>
      </trkpt>
      <trkpt lat="32.774694" lon="35.001642">
        <ele>381.0</ele>
        <time>2011-11-30T21:13:24Z</time>
      </trkpt>
      <trkpt lat="32.774545" lon="35.001538">
        <ele>378.0</ele>
        <time>2011-11-30T21:13:28Z</time>
      </trkpt>
      <trkpt lat="32.774413" lon="35.001628">
        <ele>377.0</ele>
        <time>2011-11-30T21:13:32Z</time>
      </trkpt>
      <trkpt lat="32.774335" lon="35.001812">
        <ele>377.0</ele>
        <time>2011-11-30T21:13:36Z</time>
      </trkpt>
      <trkpt lat="32.774287" lon="35.001997">
        <ele>379.0</ele>
        <time>2011-11-30T21:13:40Z</time>
      </trkpt>
      <trkpt lat="32.774092" lon="35.002259">
        <ele>379.0</ele>
        <time>2011-11-30T21:13:48Z</time>
      </trkpt>
      <trkpt lat="32.773964" lon="35.002337">
        <ele>379.0</ele>
        <time>2011-11-30T21:13:52Z</time>
      </trkpt>
      <trkpt lat="32.773753" lon="35.002444">
        <ele>380.0</ele>
        <time>2011-11-30T21:14:00Z</time>
      </trkpt>
      <trkpt lat="32.773684" lon="35.002477">
        <ele>380.0</ele>
        <time>2011-11-30T21:14:03Z</time>
      </trkpt>
      <trkpt lat="32.773553" lon="35.00255">
        <ele>380.0</ele>
        <time>2011-11-30T21:14:09Z</time>
      </trkpt>
      <trkpt lat="32.773495" lon="35.002609">
        <ele>380.0</ele>
        <time>2011-11-30T21:14:12Z</time>
      </trkpt>
      <trkpt lat="32.773439" lon="35.002675">
        <ele>380.0</ele>
        <time>2011-11-30T21:14:15Z</time>
      </trkpt>
      <trkpt lat="32.773321" lon="35.002817">
        <ele>381.0</ele>
        <time>2011-11-30T21:14:21Z</time>
      </trkpt>
      <trkpt lat="32.773268" lon="35.002889">
        <ele>381.0</ele>
        <time>2011-11-30T21:14:24Z</time>
      </trkpt>
      <trkpt lat="32.773124" lon="35.003158">
        <ele>382.0</ele>
        <time>2011-11-30T21:14:33Z</time>
      </trkpt>
      <trkpt lat="32.773082" lon="35.003249">
        <ele>382.0</ele>
        <time>2011-11-30T21:14:36Z</time>
      </trkpt>
      <trkpt lat="32.773041" lon="35.003341">
        <ele>383.0</ele>
        <time>2011-11-30T21:14:39Z</time>
      </trkpt>
      <trkpt lat="32.772956" lon="35.003534">
        <ele>384.0</ele>
        <time>2011-11-30T21:14:45Z</time>
      </trkpt>
      <trkpt lat="32.772898" lon="35.003685">
        <ele>384.0</ele>
        <time>2011-11-30T21:14:49Z</time>
      </trkpt>
      <trkpt lat="32.772846" lon="35.003851">
        <ele>385.0</ele>
        <time>2011-11-30T21:14:53Z</time>
      </trkpt>
      <trkpt lat="32.772809" lon="35.004016">
        <ele>385.0</ele>
        <time>2011-11-30T21:14:57Z</time>
      </trkpt>
      <trkpt lat="32.772775" lon="35.004192">
        <ele>387.0</ele>
        <time>2011-11-30T21:15:01Z</time>
      </trkpt>
      <trkpt lat="32.772754" lon="35.004379">
        <ele>389.0</ele>
        <time>2011-11-30T21:15:05Z</time>
      </trkpt>
      <trkpt lat="32.772733" lon="35.004562">
        <ele>390.0</ele>
        <time>2011-11-30T21:15:09Z</time>
      </trkpt>
      <trkpt lat="32.772691" lon="35.004719">
        <ele>390.0</ele>
        <time>2011-11-30T21:15:13Z</time>
      </trkpt>
      <trkpt lat="32.772654" lon="35.00479">
        <ele>390.0</ele>
        <time>2011-11-30T21:15:15Z</time>
      </trkpt>
      <trkpt lat="32.772538" lon="35.004981">
        <ele>390.0</ele>
        <time>2011-11-30T21:15:21Z</time>
      </trkpt>
      <trkpt lat="32.772455" lon="35.005097">
        <ele>390.0</ele>
        <time>2011-11-30T21:15:25Z</time>
      </trkpt>
      <trkpt lat="32.77238" lon="35.005165">
        <ele>390.0</ele>
        <time>2011-11-30T21:15:28Z</time>
      </trkpt>
      <trkpt lat="32.772279" lon="35.005258">
        <ele>390.0</ele>
        <time>2011-11-30T21:15:32Z</time>
      </trkpt>
      <trkpt lat="32.77221" lon="35.005328">
        <ele>390.0</ele>
        <time>2011-11-30T21:15:35Z</time>
      </trkpt>
      <trkpt lat="32.772058" lon="35.005462">
        <ele>390.0</ele>
        <time>2011-11-30T21:15:41Z</time>
      </trkpt>
      <trkpt lat="32.771946" lon="35.005554">
        <ele>391.0</ele>
        <time>2011-11-30T21:15:45Z</time>
      </trkpt>
      <trkpt lat="32.771837" lon="35.005646">
        <ele>391.0</ele>
        <time>2011-11-30T21:15:49Z</time>
      </trkpt>
      <trkpt lat="32.771734" lon="35.005737">
        <ele>391.0</ele>
        <time>2011-11-30T21:15:53Z</time>
      </trkpt>
      <trkpt lat="32.771624" lon="35.005828">
        <ele>391.0</ele>
        <time>2011-11-30T21:15:57Z</time>
      </trkpt>
      <trkpt lat="32.771568" lon="35.00587">
        <ele>391.0</ele>
        <time>2011-11-30T21:15:59Z</time>
      </trkpt>
      <trkpt lat="32.771492" lon="35.005932">
        <ele>391.0</ele>
        <time>2011-11-30T21:16:02Z</time>
      </trkpt>
      <trkpt lat="32.77127" lon="35.006045">
        <ele>391.0</ele>
        <time>2011-11-30T21:16:09Z</time>
      </trkpt>
      <trkpt lat="32.771134" lon="35.006128">
        <ele>391.0</ele>
        <time>2011-11-30T21:16:13Z</time>
      </trkpt>
      <trkpt lat="32.770996" lon="35.006196">
        <ele>393.0</ele>
        <time>2011-11-30T21:16:17Z</time>
      </trkpt>
      <trkpt lat="32.770854" lon="35.006185">
        <ele>394.0</ele>
        <time>2011-11-30T21:16:21Z</time>
      </trkpt>
      <trkpt lat="32.77055" lon="35.006075">
        <ele>394.0</ele>
        <time>2011-11-30T21:16:29Z</time>
      </trkpt>
      <trkpt lat="32.770434" lon="35.00619">
        <ele>394.0</ele>
        <time>2011-11-30T21:16:33Z</time>
      </trkpt>
      <trkpt lat="32.770338" lon="35.006296">
        <ele>394.0</ele>
        <time>2011-11-30T21:16:37Z</time>
      </trkpt>
      <trkpt lat="32.770291" lon="35.006347">
        <ele>394.0</ele>
        <time>2011-11-30T21:16:39Z</time>
      </trkpt>
      <trkpt lat="32.770169" lon="35.006505">
        <ele>394.0</ele>
        <time>2011-11-30T21:16:45Z</time>
      </trkpt>
      <trkpt lat="32.770116" lon="35.006595">
        <ele>394.0</ele>
        <time>2011-11-30T21:16:48Z</time>
      </trkpt>
      <trkpt lat="32.770091" lon="35.00669">
        <ele>394.0</ele>
        <time>2011-11-30T21:16:51Z</time>
      </trkpt>
      <trkpt lat="32.770015" lon="35.00683">
        <ele>394.0</ele>
        <time>2011-11-30T21:16:57Z</time>
      </trkpt>
      <trkpt lat="32.769948" lon="35.006858">
        <ele>394.0</ele>
        <time>2011-11-30T21:17:00Z</time>
      </trkpt>
      <trkpt lat="32.769873" lon="35.006869">
        <ele>395.0</ele>
        <time>2011-11-30T21:17:03Z</time>
      </trkpt>
      <trkpt lat="32.76979" lon="35.006881">
        <ele>395.0</ele>
        <time>2011-11-30T21:17:07Z</time>
      </trkpt>
      <trkpt lat="32.769719" lon="35.006894">
        <ele>395.0</ele>
        <time>2011-11-30T21:17:10Z</time>
      </trkpt>
      <trkpt lat="32.769647" lon="35.006896">
        <ele>395.0</ele>
        <time>2011-11-30T21:17:14Z</time>
      </trkpt>
      <trkpt lat="32.769482" lon="35.006954">
        <ele>395.0</ele>
        <time>2011-11-30T21:17:21Z</time>
      </trkpt>
      <trkpt lat="32.769411" lon="35.006985">
        <ele>395.0</ele>
        <time>2011-11-30T21:17:24Z</time>
      </trkpt>
      <trkpt lat="32.769202" lon="35.007116">
        <ele>395.0</ele>
        <time>2011-11-30T21:17:33Z</time>
      </trkpt>
      <trkpt lat="32.768973" lon="35.007275">
        <ele>396.0</ele>
        <time>2011-11-30T21:17:45Z</time>
      </trkpt>
      <trkpt lat="32.768913" lon="35.007315">
        <ele>396.0</ele>
        <time>2011-11-30T21:17:48Z</time>
      </trkpt>
      <trkpt lat="32.768859" lon="35.007355">
        <ele>396.0</ele>
        <time>2011-11-30T21:17:51Z</time>
      </trkpt>
      <trkpt lat="32.768803" lon="35.007396">
        <ele>396.0</ele>
        <time>2011-11-30T21:17:54Z</time>
      </trkpt>
      <trkpt lat="32.768736" lon="35.007444">
        <ele>397.0</ele>
        <time>2011-11-30T21:17:58Z</time>
      </trkpt>
      <trkpt lat="32.76867" lon="35.007487">
        <ele>397.0</ele>
        <time>2011-11-30T21:18:02Z</time>
      </trkpt>
      <trkpt lat="32.768609" lon="35.007539">
        <ele>397.0</ele>
        <time>2011-11-30T21:18:06Z</time>
      </trkpt>
      <trkpt lat="32.768554" lon="35.007592">
        <ele>398.0</ele>
        <time>2011-11-30T21:18:10Z</time>
      </trkpt>
      <trkpt lat="32.768497" lon="35.007644">
        <ele>398.0</ele>
        <time>2011-11-30T21:18:14Z</time>
      </trkpt>
      <trkpt lat="32.76838" lon="35.007739">
        <ele>399.0</ele>
        <time>2011-11-30T21:18:22Z</time>
      </trkpt>
      <trkpt lat="32.768326" lon="35.007798">
        <ele>399.0</ele>
        <time>2011-11-30T21:18:26Z</time>
      </trkpt>
      <trkpt lat="32.768234" lon="35.007913">
        <ele>400.0</ele>
        <time>2011-11-30T21:18:33Z</time>
      </trkpt>
      <trkpt lat="32.768194" lon="35.007987">
        <ele>400.0</ele>
        <time>2011-11-30T21:18:36Z</time>
      </trkpt>
      <trkpt lat="32.768165" lon="35.008063">
        <ele>401.0</ele>
        <time>2011-11-30T21:18:39Z</time>
      </trkpt>
      <trkpt lat="32.768139" lon="35.008138">
        <ele>402.0</ele>
        <time>2011-11-30T21:18:42Z</time>
      </trkpt>
      <trkpt lat="32.768105" lon="35.008223">
        <ele>402.0</ele>
        <time>2011-11-30T21:18:46Z</time>
      </trkpt>
      <trkpt lat="32.76808" lon="35.008304">
        <ele>403.0</ele>
        <time>2011-11-30T21:18:50Z</time>
      </trkpt>
      <trkpt lat="32.768043" lon="35.008468">
        <ele>404.0</ele>
        <time>2011-11-30T21:18:57Z</time>
      </trkpt>
      <trkpt lat="32.768026" lon="35.008544">
        <ele>405.0</ele>
        <time>2011-11-30T21:19:00Z</time>
      </trkpt>
      <trkpt lat="32.768" lon="35.008613">
        <ele>405.0</ele>
        <time>2011-11-30T21:19:03Z</time>
      </trkpt>
      <trkpt lat="32.767976" lon="35.008695">
        <ele>406.0</ele>
        <time>2011-11-30T21:19:07Z</time>
      </trkpt>
      <trkpt lat="32.767908" lon="35.00893">
        <ele>408.0</ele>
        <time>2011-11-30T21:19:17Z</time>
      </trkpt>
      <trkpt lat="32.767892" lon="35.009006">
        <ele>408.0</ele>
        <time>2011-11-30T21:19:20Z</time>
      </trkpt>
      <trkpt lat="32.767875" lon="35.009081">
        <ele>408.0</ele>
        <time>2011-11-30T21:19:23Z</time>
      </trkpt>
      <trkpt lat="32.767853" lon="35.009241">
        <ele>409.0</ele>
        <time>2011-11-30T21:19:29Z</time>
      </trkpt>
      <trkpt lat="32.767848" lon="35.009318">
        <ele>410.0</ele>
        <time>2011-11-30T21:19:32Z</time>
      </trkpt>
      <trkpt lat="32.767851" lon="35.0094">
        <ele>410.0</ele>
        <time>2011-11-30T21:19:35Z</time>
      </trkpt>
      <trkpt lat="32.767858" lon="35.00948">
        <ele>411.0</ele>
        <time>2011-11-30T21:19:38Z</time>
      </trkpt>
      <trkpt lat="32.767858" lon="35.00948">
        <time>2011-11-30T21:19:49Z</time>
      </trkpt>
    </trkseg>
    <trkseg>
      <trkpt lat="32.767858" lon="35.00948">
        <time>2011-11-30T21:19:50Z</time>
      </trkpt>
      <trkpt lat="32.767809" lon="35.009826">
        <ele>413.0</ele>
        <time>2011-11-30T21:19:54Z</time>
      </trkpt>
      <trkpt lat="32.767788" lon="35.009915">
        <ele>414.0</ele>
        <time>2011-11-30T21:19:58Z</time>
      </trkpt>
      <trkpt lat="32.767758" lon="35.010001">
        <ele>414.0</ele>
        <time>2011-11-30T21:20:02Z</time>
      </trkpt>
      <trkpt lat="32.767725" lon="35.010087">
        <ele>415.0</ele>
        <time>2011-11-30T21:20:06Z</time>
      </trkpt>
      <trkpt lat="32.767693" lon="35.010174">
        <ele>416.0</ele>
        <time>2011-11-30T21:20:10Z</time>
      </trkpt>
      <trkpt lat="32.767662" lon="35.01026">
        <ele>416.0</ele>
        <time>2011-11-30T21:20:14Z</time>
      </trkpt>
      <trkpt lat="32.767622" lon="35.01034">
        <ele>417.0</ele>
        <time>2011-11-30T21:20:18Z</time>
      </trkpt>
      <trkpt lat="32.767582" lon="35.010417">
        <ele>417.0</ele>
        <time>2011-11-30T21:20:22Z</time>
      </trkpt>
      <trkpt lat="32.767543" lon="35.010499">
        <ele>418.0</ele>
        <time>2011-11-30T21:20:26Z</time>
      </trkpt>
      <trkpt lat="32.767506" lon="35.010582">
        <ele>419.0</ele>
        <time>2011-11-30T21:20:30Z</time>
      </trkpt>
      <trkpt lat="32.767472" lon="35.010672">
        <ele>419.0</ele>
        <time>2011-11-30T21:20:34Z</time>
      </trkpt>
      <trkpt lat="32.767437" lon="35.010751">
        <ele>420.0</ele>
        <time>2011-11-30T21:20:37Z</time>
      </trkpt>
      <trkpt lat="32.767387" lon="35.010842">
        <ele>420.0</ele>
        <time>2011-11-30T21:20:40Z</time>
      </trkpt>
      <trkpt lat="32.767279" lon="35.011004">
        <ele>421.0</ele>
        <time>2011-11-30T21:20:46Z</time>
      </trkpt>
      <trkpt lat="32.767226" lon="35.011077">
        <ele>422.0</ele>
        <time>2011-11-30T21:20:49Z</time>
      </trkpt>
      <trkpt lat="32.767166" lon="35.01114">
        <ele>422.0</ele>
        <time>2011-11-30T21:20:52Z</time>
      </trkpt>
      <trkpt lat="32.767122" lon="35.011202">
        <ele>422.0</ele>
        <time>2011-11-30T21:20:56Z</time>
      </trkpt>
      <trkpt lat="32.767071" lon="35.01128">
        <ele>423.0</ele>
        <time>2011-11-30T21:21:00Z</time>
      </trkpt>
      <trkpt lat="32.766972" lon="35.011401">
        <ele>423.0</ele>
        <time>2011-11-30T21:21:06Z</time>
      </trkpt>
      <trkpt lat="32.766925" lon="35.011454">
        <ele>424.0</ele>
        <time>2011-11-30T21:21:09Z</time>
      </trkpt>
      <trkpt lat="32.766859" lon="35.011517">
        <ele>424.0</ele>
        <time>2011-11-30T21:21:13Z</time>
      </trkpt>
      <trkpt lat="32.766809" lon="35.011567">
        <ele>424.0</ele>
        <time>2011-11-30T21:21:16Z</time>
      </trkpt>
      <trkpt lat="32.766693" lon="35.011667">
        <ele>425.0</ele>
        <time>2011-11-30T21:21:23Z</time>
      </trkpt>
      <trkpt lat="32.766628" lon="35.011728">
        <ele>425.0</ele>
        <time>2011-11-30T21:21:27Z</time>
      </trkpt>
      <trkpt lat="32.766473" lon="35.011875">
        <ele>426.0</ele>
        <time>2011-11-30T21:21:36Z</time>
      </trkpt>
      <trkpt lat="32.766375" lon="35.011981">
        <ele>426.0</ele>
        <time>2011-11-30T21:21:42Z</time>
      </trkpt>
      <trkpt lat="32.766228" lon="35.012159">
        <ele>427.0</ele>
        <time>2011-11-30T21:21:51Z</time>
      </trkpt>
      <trkpt lat="32.766135" lon="35.012263">
        <ele>428.0</ele>
        <time>2011-11-30T21:21:57Z</time>
      </trkpt>
      <trkpt lat="32.766076" lon="35.012332">
        <ele>429.0</ele>
        <time>2011-11-30T21:22:01Z</time>
      </trkpt>
      <trkpt lat="32.766042" lon="35.012396">
        <ele>429.0</ele>
        <time>2011-11-30T21:22:04Z</time>
      </trkpt>
      <trkpt lat="32.766009" lon="35.012476">
        <ele>430.0</ele>
        <time>2011-11-30T21:22:08Z</time>
      </trkpt>
      <trkpt lat="32.766009" lon="35.012476">
        <time>2011-11-30T21:22:19Z</time>
      </trkpt>
    </trkseg>
    <trkseg>
      <trkpt lat="32.766009" lon="35.012476">
        <time>2011-11-30T21:22:20Z</time>
      </trkpt>
      <trkpt lat="32.765838" lon="35.012761">
        <ele>433.0</ele>
        <time>2011-11-30T21:22:24Z</time>
      </trkpt>
      <trkpt lat="32.765787" lon="35.012837">
        <ele>433.0</ele>
        <time>2011-11-30T21:22:28Z</time>
      </trkpt>
      <trkpt lat="32.765702" lon="35.012974">
        <ele>435.0</ele>
        <time>2011-11-30T21:22:35Z</time>
      </trkpt>
      <trkpt lat="32.76566" lon="35.013041">
        <ele>435.0</ele>
        <time>2011-11-30T21:22:38Z</time>
      </trkpt>
      <trkpt lat="32.765616" lon="35.013109">
        <ele>436.0</ele>
        <time>2011-11-30T21:22:41Z</time>
      </trkpt>
      <trkpt lat="32.76552" lon="35.013242">
        <ele>437.0</ele>
        <time>2011-11-30T21:22:47Z</time>
      </trkpt>
      <trkpt lat="32.765471" lon="35.013315">
        <ele>438.0</ele>
        <time>2011-11-30T21:22:50Z</time>
      </trkpt>
      <trkpt lat="32.765422" lon="35.013395">
        <ele>439.0</ele>
        <time>2011-11-30T21:22:53Z</time>
      </trkpt>
      <trkpt lat="32.765323" lon="35.013543">
        <ele>440.0</ele>
        <time>2011-11-30T21:22:59Z</time>
      </trkpt>
      <trkpt lat="32.765277" lon="35.013615">
        <ele>441.0</ele>
        <time>2011-11-30T21:23:02Z</time>
      </trkpt>
      <trkpt lat="32.765124" lon="35.013825">
        <ele>442.0</ele>
        <time>2011-11-30T21:23:11Z</time>
      </trkpt>
      <trkpt lat="32.765086" lon="35.01389">
        <ele>443.0</ele>
        <time>2011-11-30T21:23:14Z</time>
      </trkpt>
      <trkpt lat="32.76505" lon="35.01396">
        <ele>444.0</ele>
        <time>2011-11-30T21:23:18Z</time>
      </trkpt>
      <trkpt lat="32.765001" lon="35.014027">
        <ele>444.0</ele>
        <time>2011-11-30T21:23:22Z</time>
      </trkpt>
      <trkpt lat="32.765001" lon="35.014027">
        <time>2011-11-30T21:23:33Z</time>
      </trkpt>
    </trkseg>
    <trkseg>
      <trkpt lat="32.765001" lon="35.014027">
        <time>2011-11-30T21:23:39Z</time>
      </trkpt>
      <trkpt lat="32.765042" lon="35.014237">
        <ele>447.0</ele>
        <time>2011-11-30T21:23:43Z</time>
      </trkpt>
      <trkpt lat="32.765084" lon="35.014315">
        <ele>448.0</ele>
        <time>2011-11-30T21:23:48Z</time>
      </trkpt>
      <trkpt lat="32.765133" lon="35.014392">
        <ele>449.0</ele>
        <time>2011-11-30T21:23:52Z</time>
      </trkpt>
      <trkpt lat="32.765168" lon="35.014476">
        <ele>449.0</ele>
        <time>2011-11-30T21:23:56Z</time>
      </trkpt>
      <trkpt lat="32.765151" lon="35.014637">
        <ele>451.0</ele>
        <time>2011-11-30T21:24:04Z</time>
      </trkpt>
      <trkpt lat="32.765109" lon="35.014718">
        <ele>452.0</ele>
        <time>2011-11-30T21:24:09Z</time>
      </trkpt>
      <trkpt lat="32.765047" lon="35.014758">
        <ele>452.0</ele>
        <time>2011-11-30T21:24:13Z</time>
      </trkpt>
      <trkpt lat="32.764981" lon="35.014793">
        <ele>453.0</ele>
        <time>2011-11-30T21:24:18Z</time>
      </trkpt>
      <trkpt lat="32.764981" lon="35.014793">
        <time>2011-11-30T21:24:29Z</time>
      </trkpt>
    </trkseg>
    <trkseg>
      <trkpt lat="32.764981" lon="35.014793">
        <time>2011-11-30T21:25:05Z</time>
      </trkpt>
      <trkpt lat="32.764889" lon="35.014915">
        <ele>455.0</ele>
        <time>2011-11-30T21:25:09Z</time>
      </trkpt>
      <trkpt lat="32.76484" lon="35.014975">
        <ele>455.0</ele>
        <time>2011-11-30T21:25:13Z</time>
      </trkpt>
      <trkpt lat="32.76484" lon="35.014975">
        <time>2011-11-30T21:25:24Z</time>
      </trkpt>
    </trkseg>
    <trkseg>
      <trkpt lat="32.76484" lon="35.014975">
        <time>2011-11-30T21:25:25Z</time>
      </trkpt>
      <trkpt lat="32.764604" lon="35.015148">
        <ele>457.0</ele>
        <time>2011-11-30T21:25:29Z</time>
      </trkpt>
      <trkpt lat="32.764536" lon="35.015187">
        <ele>458.0</ele>
        <time>2011-11-30T21:25:33Z</time>
      </trkpt>
      <trkpt lat="32.764482" lon="35.01523">
        <ele>458.0</ele>
        <time>2011-11-30T21:25:37Z</time>
      </trkpt>
      <trkpt lat="32.764424" lon="35.015281">
        <ele>459.0</ele>
        <time>2011-11-30T21:25:41Z</time>
      </trkpt>
      <trkpt lat="32.764308" lon="35.015387">
        <ele>460.0</ele>
        <time>2011-11-30T21:25:49Z</time>
      </trkpt>
      <trkpt lat="32.764256" lon="35.015452">
        <ele>461.0</ele>
        <time>2011-11-30T21:25:53Z</time>
      </trkpt>
      <trkpt lat="32.764209" lon="35.015517">
        <ele>461.0</ele>
        <time>2011-11-30T21:25:57Z</time>
      </trkpt>
      <trkpt lat="32.764163" lon="35.015579">
        <ele>462.0</ele>
        <time>2011-11-30T21:26:01Z</time>
      </trkpt>
      <trkpt lat="32.764118" lon="35.015645">
        <ele>462.0</ele>
        <time>2011-11-30T21:26:05Z</time>
      </trkpt>
      <trkpt lat="32.764071" lon="35.015716">
        <ele>463.0</ele>
        <time>2011-11-30T21:26:09Z</time>
      </trkpt>
      <trkpt lat="32.764023" lon="35.015787">
        <ele>463.0</ele>
        <time>2011-11-30T21:26:13Z</time>
      </trkpt>
      <trkpt lat="32.763973" lon="35.015857">
        <ele>464.0</ele>
        <time>2011-11-30T21:26:17Z</time>
      </trkpt>
      <trkpt lat="32.763923" lon="35.015932">
        <ele>464.0</ele>
        <time>2011-11-30T21:26:21Z</time>
      </trkpt>
      <trkpt lat="32.763872" lon="35.016002">
        <ele>465.0</ele>
        <time>2011-11-30T21:26:25Z</time>
      </trkpt>
      <trkpt lat="32.763818" lon="35.016071">
        <ele>465.0</ele>
        <time>2011-11-30T21:26:29Z</time>
      </trkpt>
      <trkpt lat="32.76377" lon="35.016152">
        <ele>466.0</ele>
        <time>2011-11-30T21:26:33Z</time>
      </trkpt>
      <trkpt lat="32.763726" lon="35.016234">
        <ele>467.0</ele>
        <time>2011-11-30T21:26:37Z</time>
      </trkpt>
      <trkpt lat="32.763677" lon="35.016312">
        <ele>467.0</ele>
        <time>2011-11-30T21:26:41Z</time>
      </trkpt>
      <trkpt lat="32.763626" lon="35.016384">
        <ele>468.0</ele>
        <time>2011-11-30T21:26:45Z</time>
      </trkpt>
      <trkpt lat="32.763577" lon="35.016452">
        <ele>469.0</ele>
        <time>2011-11-30T21:26:49Z</time>
      </trkpt>
      <trkpt lat="32.763577" lon="35.016452">
        <time>2011-11-30T21:27:00Z</time>
      </trkpt>
    </trkseg>
    <trkseg>
      <trkpt lat="32.763577" lon="35.016452">
        <time>2011-11-30T21:27:01Z</time>
      </trkpt>
      <trkpt lat="32.763372" lon="35.01671">
        <ele>471.0</ele>
        <time>2011-11-30T21:27:05Z</time>
      </trkpt>
      <trkpt lat="32.763319" lon="35.016772">
        <ele>472.0</ele>
        <time>2011-11-30T21:27:09Z</time>
      </trkpt>
      <trkpt lat="32.763265" lon="35.016831">
        <ele>472.0</ele>
        <time>2011-11-30T21:27:13Z</time>
      </trkpt>
      <trkpt lat="32.763202" lon="35.016881">
        <ele>473.0</ele>
        <time>2011-11-30T21:27:17Z</time>
      </trkpt>
      <trkpt lat="32.763141" lon="35.016925">
        <ele>473.0</ele>
        <time>2011-11-30T21:27:21Z</time>
      </trkpt>
      <trkpt lat="32.763141" lon="35.016925">
        <time>2011-11-30T21:27:32Z</time>
      </trkpt>
    </trkseg>
    <trkseg>
      <trkpt lat="32.763141" lon="35.016925">
        <time>2011-11-30T21:27:37Z</time>
      </trkpt>
      <trkpt lat="32.762874" lon="35.017215">
        <ele>476.0</ele>
        <time>2011-11-30T21:27:41Z</time>
      </trkpt>
      <trkpt lat="32.76283" lon="35.017284">
        <ele>477.0</ele>
        <time>2011-11-30T21:27:46Z</time>
      </trkpt>
      <trkpt lat="32.762783" lon="35.017359">
        <ele>478.0</ele>
        <time>2011-11-30T21:27:51Z</time>
      </trkpt>
      <trkpt lat="32.762733" lon="35.01743">
        <ele>479.0</ele>
        <time>2011-11-30T21:27:56Z</time>
      </trkpt>
      <trkpt lat="32.762684" lon="35.01749">
        <ele>480.0</ele>
        <time>2011-11-30T21:28:01Z</time>
      </trkpt>
      <trkpt lat="32.762684" lon="35.01749">
        <time>2011-11-30T21:28:12Z</time>
      </trkpt>
    </trkseg>
    <trkseg>
      <trkpt lat="32.762684" lon="35.01749">
        <time>2011-11-30T21:28:16Z</time>
      </trkpt>
      <trkpt lat="32.762576" lon="35.017808">
        <ele>485.0</ele>
        <time>2011-11-30T21:28:21Z</time>
      </trkpt>
      <trkpt lat="32.762553" lon="35.017891">
        <ele>486.0</ele>
        <time>2011-11-30T21:28:26Z</time>
      </trkpt>
      <trkpt lat="32.762553" lon="35.017891">
        <time>2011-11-30T21:28:37Z</time>
      </trkpt>
    </trkseg>
    <trkseg>
      <trkpt lat="32.762553" lon="35.017891">
        <time>2011-11-30T21:28:40Z</time>
      </trkpt>
      <trkpt lat="32.762691" lon="35.018101">
        <ele>492.0</ele>
        <time>2011-11-30T21:28:50Z</time>
      </trkpt>
      <trkpt lat="32.762739" lon="35.018047">
        <ele>493.0</ele>
        <time>2011-11-30T21:28:53Z</time>
      </trkpt>
      <trkpt lat="32.762794" lon="35.017976">
        <ele>493.0</ele>
        <time>2011-11-30T21:28:57Z</time>
      </trkpt>
      <trkpt lat="32.762837" lon="35.017916">
        <ele>493.0</ele>
        <time>2011-11-30T21:29:01Z</time>
      </trkpt>
      <trkpt lat="32.762845" lon="35.017842">
        <ele>493.0</ele>
        <time>2011-11-30T21:29:07Z</time>
      </trkpt>
      <trkpt lat="32.762861" lon="35.017766">
        <ele>493.0</ele>
        <time>2011-11-30T21:29:15Z</time>
      </trkpt>
      <trkpt lat="32.762893" lon="35.017701">
        <ele>494.0</ele>
        <time>2011-11-30T21:29:23Z</time>
      </trkpt>
      <trkpt lat="32.762893" lon="35.017701">
        <time>2011-11-30T21:29:34Z</time>
      </trkpt>
    </trkseg>
    <trkseg>
      <trkpt lat="32.762893" lon="35.017701">
        <time>2011-11-30T21:29:46Z</time>
      </trkpt>
      <trkpt lat="32.762893" lon="35.017701">
        <time>2011-11-30T21:29:57Z</time>
      </trkpt>
    </trkseg>
    <trkseg>
      <trkpt lat="32.762893" lon="35.017701">
        <time>2011-11-30T21:29:59Z</time>
      </trkpt>
      <trkpt lat="32.762893" lon="35.017701">
        <time>2011-11-30T21:30:10Z</time>
      </trkpt>
    </trkseg>
    <trkseg>
      <trkpt lat="32.762893" lon="35.017701">
        <time>2011-11-30T21:30:19Z</time>
      </trkpt>
      <trkpt lat="32.762872" lon="35.017787">
        <ele>494.0</ele>
        <time>2011-11-30T21:30:25Z</time>
      </trkpt>
      <trkpt lat="32.762816" lon="35.017853">
        <ele>494.0</ele>
        <time>2011-11-30T21:30:28Z</time>
      </trkpt>
      <trkpt lat="32.762587" lon="35.018117">
        <ele>494.0</ele>
        <time>2011-11-30T21:30:37Z</time>
      </trkpt>
      <trkpt lat="32.762505" lon="35.018127">
        <ele>494.0</ele>
        <time>2011-11-30T21:30:40Z</time>
      </trkpt>
      <trkpt lat="32.762447" lon="35.01808">
        <ele>495.0</ele>
        <time>2011-11-30T21:30:43Z</time>
      </trkpt>
      <trkpt lat="32.762513" lon="35.017813">
        <ele>496.0</ele>
        <time>2011-11-30T21:30:50Z</time>
      </trkpt>
      <trkpt lat="32.762695" lon="35.017517">
        <ele>494.0</ele>
        <time>2011-11-30T21:30:54Z</time>
      </trkpt>
      <trkpt lat="32.762868" lon="35.017246">
        <ele>493.0</ele>
        <time>2011-11-30T21:30:58Z</time>
      </trkpt>
      <trkpt lat="32.763067" lon="35.016969">
        <ele>492.0</ele>
        <time>2011-11-30T21:31:02Z</time>
      </trkpt>
      <trkpt lat="32.763293" lon="35.016634">
        <ele>493.0</ele>
        <time>2011-11-30T21:31:06Z</time>
      </trkpt>
      <trkpt lat="32.763555" lon="35.016291">
        <ele>493.0</ele>
        <time>2011-11-30T21:31:10Z</time>
      </trkpt>
      <trkpt lat="32.763691" lon="35.016104">
        <ele>492.0</ele>
        <time>2011-11-30T21:31:12Z</time>
      </trkpt>
      <trkpt lat="32.764127" lon="35.015494">
        <ele>492.0</ele>
        <time>2011-11-30T21:31:18Z</time>
      </trkpt>
      <trkpt lat="32.764422" lon="35.015127">
        <ele>491.0</ele>
        <time>2011-11-30T21:31:22Z</time>
      </trkpt>
      <trkpt lat="32.764731" lon="35.014797">
        <ele>489.0</ele>
        <time>2011-11-30T21:31:26Z</time>
      </trkpt>
      <trkpt lat="32.765042" lon="35.01447">
        <ele>488.0</ele>
        <time>2011-11-30T21:31:30Z</time>
      </trkpt>
      <trkpt lat="32.765205" lon="35.014123">
        <ele>487.0</ele>
        <time>2011-11-30T21:31:34Z</time>
      </trkpt>
      <trkpt lat="32.76523" lon="35.013938">
        <ele>488.0</ele>
        <time>2011-11-30T21:31:38Z</time>
      </trkpt>
      <trkpt lat="32.765324" lon="35.013813">
        <ele>487.0</ele>
        <time>2011-11-30T21:31:42Z</time>
      </trkpt>
      <trkpt lat="32.765399" lon="35.013748">
        <ele>484.0</ele>
        <time>2011-11-30T21:31:44Z</time>
      </trkpt>
      <trkpt lat="32.765591" lon="35.013469">
        <ele>478.0</ele>
        <time>2011-11-30T21:31:50Z</time>
      </trkpt>
      <trkpt lat="32.765716" lon="35.013245">
        <ele>474.0</ele>
        <time>2011-11-30T21:31:54Z</time>
      </trkpt>
      <trkpt lat="32.765856" lon="35.012983">
        <ele>471.0</ele>
        <time>2011-11-30T21:31:58Z</time>
      </trkpt>
      <trkpt lat="32.766017" lon="35.012708">
        <ele>468.0</ele>
        <time>2011-11-30T21:32:02Z</time>
      </trkpt>
      <trkpt lat="32.766204" lon="35.012411">
        <ele>465.0</ele>
        <time>2011-11-30T21:32:06Z</time>
      </trkpt>
      <trkpt lat="32.766405" lon="35.012112">
        <ele>464.0</ele>
        <time>2011-11-30T21:32:10Z</time>
      </trkpt>
      <trkpt lat="32.766644" lon="35.011864">
        <ele>463.0</ele>
        <time>2011-11-30T21:32:14Z</time>
      </trkpt>
      <trkpt lat="32.766889" lon="35.011629">
        <ele>461.0</ele>
        <time>2011-11-30T21:32:18Z</time>
      </trkpt>
      <trkpt lat="32.767011" lon="35.011504">
        <ele>459.0</ele>
        <time>2011-11-30T21:32:21Z</time>
      </trkpt>
      <trkpt lat="32.767091" lon="35.011377">
        <ele>459.0</ele>
        <time>2011-11-30T21:32:25Z</time>
      </trkpt>
      <trkpt lat="32.767209" lon="35.011223">
        <ele>456.0</ele>
        <time>2011-11-30T21:32:29Z</time>
      </trkpt>
      <trkpt lat="32.767254" lon="35.011154">
        <ele>456.0</ele>
        <time>2011-11-30T21:32:32Z</time>
      </trkpt>
      <trkpt lat="32.76736" lon="35.011004">
        <ele>455.0</ele>
        <time>2011-11-30T21:32:38Z</time>
      </trkpt>
      <trkpt lat="32.767453" lon="35.010882">
        <ele>452.0</ele>
        <time>2011-11-30T21:32:42Z</time>
      </trkpt>
      <trkpt lat="32.767572" lon="35.010726">
        <ele>449.0</ele>
        <time>2011-11-30T21:32:46Z</time>
      </trkpt>
      <trkpt lat="32.767789" lon="35.010362">
        <ele>445.0</ele>
        <time>2011-11-30T21:32:54Z</time>
      </trkpt>
      <trkpt lat="32.767925" lon="35.010043">
        <ele>444.0</ele>
        <time>2011-11-30T21:32:59Z</time>
      </trkpt>
      <trkpt lat="32.767998" lon="35.009758">
        <ele>443.0</ele>
        <time>2011-11-30T21:33:03Z</time>
      </trkpt>
      <trkpt lat="32.768091" lon="35.009395">
        <ele>443.0</ele>
        <time>2011-11-30T21:33:07Z</time>
      </trkpt>
      <trkpt lat="32.768178" lon="35.008991">
        <ele>442.0</ele>
        <time>2011-11-30T21:33:11Z</time>
      </trkpt>
      <trkpt lat="32.768223" lon="35.008793">
        <ele>441.0</ele>
        <time>2011-11-30T21:33:14Z</time>
      </trkpt>
      <trkpt lat="32.768288" lon="35.008556">
        <ele>438.0</ele>
        <time>2011-11-30T21:33:18Z</time>
      </trkpt>
      <trkpt lat="32.768359" lon="35.008329">
        <ele>437.0</ele>
        <time>2011-11-30T21:33:22Z</time>
      </trkpt>
      <trkpt lat="32.768512" lon="35.008069">
        <ele>436.0</ele>
        <time>2011-11-30T21:33:27Z</time>
      </trkpt>
      <trkpt lat="32.768665" lon="35.007854">
        <ele>435.0</ele>
        <time>2011-11-30T21:33:30Z</time>
      </trkpt>
      <trkpt lat="32.768885" lon="35.007622">
        <ele>433.0</ele>
        <time>2011-11-30T21:33:35Z</time>
      </trkpt>
      <trkpt lat="32.769084" lon="35.007446">
        <ele>430.0</ele>
        <time>2011-11-30T21:33:39Z</time>
      </trkpt>
      <trkpt lat="32.769271" lon="35.007308">
        <ele>429.0</ele>
        <time>2011-11-30T21:33:42Z</time>
      </trkpt>
      <trkpt lat="32.769516" lon="35.007132">
        <ele>426.0</ele>
        <time>2011-11-30T21:33:47Z</time>
      </trkpt>
      <trkpt lat="32.769758" lon="35.007022">
        <ele>422.0</ele>
        <time>2011-11-30T21:33:51Z</time>
      </trkpt>
      <trkpt lat="32.769911" lon="35.00699">
        <ele>420.0</ele>
        <time>2011-11-30T21:33:54Z</time>
      </trkpt>
      <trkpt lat="32.770005" lon="35.007454">
        <ele>413.0</ele>
        <time>2011-11-30T21:34:02Z</time>
      </trkpt>
      <trkpt lat="32.769766" lon="35.007621">
        <ele>408.0</ele>
        <time>2011-11-30T21:34:06Z</time>
      </trkpt>
      <trkpt lat="32.769547" lon="35.007713">
        <ele>404.0</ele>
        <time>2011-11-30T21:34:10Z</time>
      </trkpt>
      <trkpt lat="32.769249" lon="35.007879">
        <ele>400.0</ele>
        <time>2011-11-30T21:34:15Z</time>
      </trkpt>
      <trkpt lat="32.769146" lon="35.008085">
        <ele>399.0</ele>
        <time>2011-11-30T21:34:18Z</time>
      </trkpt>
      <trkpt lat="32.769046" lon="35.008465">
        <ele>398.0</ele>
        <time>2011-11-30T21:34:23Z</time>
      </trkpt>
      <trkpt lat="32.769157" lon="35.00876">
        <ele>395.0</ele>
        <time>2011-11-30T21:34:27Z</time>
      </trkpt>
      <trkpt lat="32.769307" lon="35.008958">
        <ele>395.0</ele>
        <time>2011-11-30T21:34:30Z</time>
      </trkpt>
      <trkpt lat="32.769739" lon="35.008954">
        <ele>394.0</ele>
        <time>2011-11-30T21:34:35Z</time>
      </trkpt>
      <trkpt lat="32.769942" lon="35.008846">
        <ele>392.0</ele>
        <time>2011-11-30T21:34:38Z</time>
      </trkpt>
      <trkpt lat="32.770213" lon="35.008669">
        <ele>389.0</ele>
        <time>2011-11-30T21:34:42Z</time>
      </trkpt>
      <trkpt lat="32.770524" lon="35.008493">
        <ele>387.0</ele>
        <time>2011-11-30T21:34:47Z</time>
      </trkpt>
      <trkpt lat="32.770784" lon="35.00839">
        <ele>386.0</ele>
        <time>2011-11-30T21:34:51Z</time>
      </trkpt>
      <trkpt lat="32.771" lon="35.008345">
        <ele>384.0</ele>
        <time>2011-11-30T21:34:54Z</time>
      </trkpt>
      <trkpt lat="32.771406" lon="35.008395">
        <ele>382.0</ele>
        <time>2011-11-30T21:34:59Z</time>
      </trkpt>
      <trkpt lat="32.771648" lon="35.00852">
        <ele>382.0</ele>
        <time>2011-11-30T21:35:02Z</time>
      </trkpt>
      <trkpt lat="32.772048" lon="35.008724">
        <ele>380.0</ele>
        <time>2011-11-30T21:35:07Z</time>
      </trkpt>
      <trkpt lat="32.772386" lon="35.008917">
        <ele>377.0</ele>
        <time>2011-11-30T21:35:11Z</time>
      </trkpt>
      <trkpt lat="32.772722" lon="35.009069">
        <ele>375.0</ele>
        <time>2011-11-30T21:35:15Z</time>
      </trkpt>
      <trkpt lat="32.772961" lon="35.009138">
        <ele>374.0</ele>
        <time>2011-11-30T21:35:18Z</time>
      </trkpt>
      <trkpt lat="32.773223" lon="35.009214">
        <ele>372.0</ele>
        <time>2011-11-30T21:35:22Z</time>
      </trkpt>
      <trkpt lat="32.773634" lon="35.00948">
        <ele>367.0</ele>
        <time>2011-11-30T21:35:31Z</time>
      </trkpt>
      <trkpt lat="32.773774" lon="35.009812">
        <ele>356.0</ele>
        <time>2011-11-30T21:35:35Z</time>
      </trkpt>
      <trkpt lat="32.773811" lon="35.010014">
        <ele>352.0</ele>
        <time>2011-11-30T21:35:37Z</time>
      </trkpt>
      <trkpt lat="32.773873" lon="35.010434">
        <ele>346.0</ele>
        <time>2011-11-30T21:35:42Z</time>
      </trkpt>
      <trkpt lat="32.773886" lon="35.010678">
        <ele>343.0</ele>
        <time>2011-11-30T21:35:46Z</time>
      </trkpt>
      <trkpt lat="32.773831" lon="35.010776">
        <ele>343.0</ele>
        <time>2011-11-30T21:35:50Z</time>
      </trkpt>
      <trkpt lat="32.773831" lon="35.010776">
        <time>2011-11-30T21:36:01Z</time>
      </trkpt>
    </trkseg>
    <trkseg>
      <trkpt lat="32.773831" lon="35.010776">
        <time>2011-11-30T21:36:04Z</time>
      </trkpt>
      <trkpt lat="32.773645" lon="35.011037">
        <ele>339.0</ele>
        <time>2011-11-30T21:36:10Z</time>
      </trkpt>
      <trkpt lat="32.773584" lon="35.01108">
        <ele>338.0</ele>
        <time>2011-11-30T21:36:12Z</time>
      </trkpt>
      <trkpt lat="32.773449" lon="35.011181">
        <ele>337.0</ele>
        <time>2011-11-30T21:36:17Z</time>
      </trkpt>
      <trkpt lat="32.773331" lon="35.011269">
        <ele>336.0</ele>
        <time>2011-11-30T21:36:21Z</time>
      </trkpt>
      <trkpt lat="32.773216" lon="35.011385">
        <ele>332.0</ele>
        <time>2011-11-30T21:36:25Z</time>
      </trkpt>
      <trkpt lat="32.773106" lon="35.011506">
        <ele>331.0</ele>
        <time>2011-11-30T21:36:29Z</time>
      </trkpt>
      <trkpt lat="32.773003" lon="35.011627">
        <ele>330.0</ele>
        <time>2011-11-30T21:36:33Z</time>
      </trkpt>
      <trkpt lat="32.772981" lon="35.01178">
        <ele>330.0</ele>
        <time>2011-11-30T21:36:37Z</time>
      </trkpt>
      <trkpt lat="32.773029" lon="35.011854">
        <ele>329.0</ele>
        <time>2011-11-30T21:36:39Z</time>
      </trkpt>
      <trkpt lat="32.773095" lon="35.012203">
        <ele>325.0</ele>
        <time>2011-11-30T21:36:45Z</time>
      </trkpt>
      <trkpt lat="32.773257" lon="35.012748">
        <ele>326.0</ele>
        <time>2011-11-30T21:36:54Z</time>
      </trkpt>
      <trkpt lat="32.773453" lon="35.012962">
        <ele>326.0</ele>
        <time>2011-11-30T21:36:58Z</time>
      </trkpt>
      <trkpt lat="32.773521" lon="35.013234">
        <ele>326.0</ele>
        <time>2011-11-30T21:37:02Z</time>
      </trkpt>
      <trkpt lat="32.773456" lon="35.013429">
        <ele>326.0</ele>
        <time>2011-11-30T21:37:06Z</time>
      </trkpt>
      <trkpt lat="32.773196" lon="35.013634">
        <ele>326.0</ele>
        <time>2011-11-30T21:37:14Z</time>
      </trkpt>
      <trkpt lat="32.773039" lon="35.013715">
        <ele>326.0</ele>
        <time>2011-11-30T21:37:20Z</time>
      </trkpt>
      <trkpt lat="32.772944" lon="35.013728">
        <ele>326.0</ele>
        <time>2011-11-30T21:37:23Z</time>
      </trkpt>
      <trkpt lat="32.772713" lon="35.013779">
        <ele>325.0</ele>
        <time>2011-11-30T21:37:29Z</time>
      </trkpt>
      <trkpt lat="32.772569" lon="35.013809">
        <ele>325.0</ele>
        <time>2011-11-30T21:37:33Z</time>
      </trkpt>
      <trkpt lat="32.772355" lon="35.013882">
        <ele>325.0</ele>
        <time>2011-11-30T21:37:42Z</time>
      </trkpt>
      <trkpt lat="32.772355" lon="35.013882">
        <time>2011-11-30T21:37:53Z</time>
      </trkpt>
    </trkseg>
    <trkseg>
      <trkpt lat="32.772355" lon="35.013882">
        <time>2011-11-30T21:37:56Z</time>
      </trkpt>
      <trkpt lat="32.772024" lon="35.013863">
        <ele>324.0</ele>
        <time>2011-11-30T21:38:00Z</time>
      </trkpt>
      <trkpt lat="32.771944" lon="35.013844">
        <ele>324.0</ele>
        <time>2011-11-30T21:38:02Z</time>
      </trkpt>
      <trkpt lat="32.771735" lon="35.013788">
        <ele>325.0</ele>
        <time>2011-11-30T21:38:13Z</time>
      </trkpt>
      <trkpt lat="32.771648" lon="35.01378">
        <ele>325.0</ele>
        <time>2011-11-30T21:38:18Z</time>
      </trkpt>
      <trkpt lat="32.771648" lon="35.01378">
        <time>2011-11-30T21:38:29Z</time>
      </trkpt>
    </trkseg>
    <trkseg>
      <trkpt lat="32.771648" lon="35.01378">
        <time>2011-11-30T21:41:44Z</time>
      </trkpt>
      <trkpt lat="32.771322" lon="35.01394">
        <ele>324.0</ele>
        <time>2011-11-30T21:41:49Z</time>
      </trkpt>
      <trkpt lat="32.771322" lon="35.01394">
        <time>2011-11-30T21:42:00Z</time>
      </trkpt>
    </trkseg>
    <trkseg>
      <trkpt lat="32.771322" lon="35.01394">
        <time>2011-11-30T21:42:21Z</time>
      </trkpt>
      <trkpt lat="32.771322" lon="35.01394">
        <time>2011-11-30T21:42:32Z</time>
      </trkpt>
    </trkseg>
    <trkseg>
      <trkpt lat="32.771322" lon="35.01394">
        <time>2011-11-30T21:42:53Z</time>
      </trkpt>
    </trkseg>
  </trk>
</gpx>